<?xml version="1.0" encoding="UTF-8" standalone="no" ?>
<gpx xmlns="http://www.topografix.com/GPX/1/1" xmlns:xsi="http://www.w3.org/2001/XMLSchema-instance" xsi:schemaLocation="http://www.topografix.com/GPX/1/1 http://www.topografix.com/GPX/1/1/gpx.xsd" version="1.1" creator="VisuGPX - https://www.visugpx.com">
  <metadata>
    <name>Chapelle-des-Bois - Roche Champion - Chalet Gaillard - Roche Bernard</name>
    <desc><![CDATA[Randonnée pédestre effectuée le 11 août 2021.]]></desc>
  </metadata>
  <trk>
    <name><![CDATA[11 août 2021 à 09:35:32]]></name>
    <extensions>
      <line xmlns="http://www.topografix.com/GPX/gpx_style/0/2">
        <color>0000FF</color>
        <width>4</width>
      </line>
    </extensions>
    <trkseg>
      <trkpt lat="46.60299" lon="6.11326">
        <ele>1085</ele>
        <time>2021-08-11T07:35:33Z</time>
      </trkpt>
      <trkpt lat="46.60299" lon="6.11326">
        <ele>1085</ele>
        <time>2021-08-11T07:35:34Z</time>
      </trkpt>
      <trkpt lat="46.603" lon="6.11334">
        <ele>1084</ele>
        <time>2021-08-11T07:36:22Z</time>
      </trkpt>
      <trkpt lat="46.60307" lon="6.11341">
        <ele>1087</ele>
        <time>2021-08-11T07:36:57Z</time>
      </trkpt>
      <trkpt lat="46.60308" lon="6.11336">
        <ele>1085</ele>
        <time>2021-08-11T07:37:12Z</time>
      </trkpt>
      <trkpt lat="46.60309" lon="6.11326">
        <ele>1085</ele>
        <time>2021-08-11T07:37:33Z</time>
      </trkpt>
      <trkpt lat="46.60304" lon="6.11318">
        <ele>1085</ele>
        <time>2021-08-11T07:37:40Z</time>
      </trkpt>
      <trkpt lat="46.60294" lon="6.1131">
        <ele>1085</ele>
        <time>2021-08-11T07:37:49Z</time>
      </trkpt>
      <trkpt lat="46.60287" lon="6.11308">
        <ele>1085</ele>
        <time>2021-08-11T07:37:54Z</time>
      </trkpt>
      <trkpt lat="46.60282" lon="6.11305">
        <ele>1084</ele>
        <time>2021-08-11T07:37:58Z</time>
      </trkpt>
      <trkpt lat="46.60268" lon="6.11305">
        <ele>1085</ele>
        <time>2021-08-11T07:38:10Z</time>
      </trkpt>
      <trkpt lat="46.6024" lon="6.11324">
        <ele>1086</ele>
        <time>2021-08-11T07:38:34Z</time>
      </trkpt>
      <trkpt lat="46.60231" lon="6.11333">
        <ele>1086</ele>
        <time>2021-08-11T07:38:45Z</time>
      </trkpt>
      <trkpt lat="46.60226" lon="6.11338">
        <ele>1086</ele>
        <time>2021-08-11T07:38:49Z</time>
      </trkpt>
      <trkpt lat="46.60201" lon="6.11374">
        <ele>1087</ele>
        <time>2021-08-11T07:39:19Z</time>
      </trkpt>
      <trkpt lat="46.60197" lon="6.11384">
        <ele>1086</ele>
        <time>2021-08-11T07:39:25Z</time>
      </trkpt>
      <trkpt lat="46.60194" lon="6.11388">
        <ele>1087</ele>
        <time>2021-08-11T07:39:28Z</time>
      </trkpt>
      <trkpt lat="46.60175" lon="6.11415">
        <ele>1087</ele>
        <time>2021-08-11T07:39:52Z</time>
      </trkpt>
      <trkpt lat="46.60169" lon="6.11419">
        <ele>1087</ele>
        <time>2021-08-11T07:39:57Z</time>
      </trkpt>
      <trkpt lat="46.60165" lon="6.11423">
        <ele>1087</ele>
        <time>2021-08-11T07:40:02Z</time>
      </trkpt>
      <trkpt lat="46.60149" lon="6.11436">
        <ele>1087</ele>
        <time>2021-08-11T07:40:19Z</time>
      </trkpt>
      <trkpt lat="46.60126" lon="6.11449">
        <ele>1086</ele>
        <time>2021-08-11T07:40:41Z</time>
      </trkpt>
      <trkpt lat="46.6012" lon="6.11451">
        <ele>1085</ele>
        <time>2021-08-11T07:40:44Z</time>
      </trkpt>
      <trkpt lat="46.60115" lon="6.11454">
        <ele>1085</ele>
        <time>2021-08-11T07:40:50Z</time>
      </trkpt>
      <trkpt lat="46.601" lon="6.11465">
        <ele>1085</ele>
        <time>2021-08-11T07:41:05Z</time>
      </trkpt>
      <trkpt lat="46.60081" lon="6.11466">
        <ele>1084</ele>
        <time>2021-08-11T07:41:19Z</time>
      </trkpt>
      <trkpt lat="46.60069" lon="6.1147">
        <ele>1084</ele>
        <time>2021-08-11T07:41:28Z</time>
      </trkpt>
      <trkpt lat="46.60061" lon="6.11474">
        <ele>1084</ele>
        <time>2021-08-11T07:41:35Z</time>
      </trkpt>
      <trkpt lat="46.6004" lon="6.11466">
        <ele>1083</ele>
        <time>2021-08-11T07:41:50Z</time>
      </trkpt>
      <trkpt lat="46.60032" lon="6.11466">
        <ele>1083</ele>
        <time>2021-08-11T07:41:59Z</time>
      </trkpt>
      <trkpt lat="46.60001" lon="6.11457">
        <ele>1085</ele>
        <time>2021-08-11T07:42:24Z</time>
      </trkpt>
      <trkpt lat="46.59996" lon="6.11455">
        <ele>1085</ele>
        <time>2021-08-11T07:42:29Z</time>
      </trkpt>
      <trkpt lat="46.59978" lon="6.11459">
        <ele>1086</ele>
        <time>2021-08-11T07:42:44Z</time>
      </trkpt>
      <trkpt lat="46.59974" lon="6.11461">
        <ele>1086</ele>
        <time>2021-08-11T07:42:47Z</time>
      </trkpt>
      <trkpt lat="46.59961" lon="6.11475">
        <ele>1087</ele>
        <time>2021-08-11T07:43:02Z</time>
      </trkpt>
      <trkpt lat="46.59947" lon="6.11482">
        <ele>1087</ele>
        <time>2021-08-11T07:43:16Z</time>
      </trkpt>
      <trkpt lat="46.59941" lon="6.11484">
        <ele>1088</ele>
        <time>2021-08-11T07:43:21Z</time>
      </trkpt>
      <trkpt lat="46.59928" lon="6.11491">
        <ele>1088</ele>
        <time>2021-08-11T07:43:32Z</time>
      </trkpt>
      <trkpt lat="46.59916" lon="6.11498">
        <ele>1090</ele>
        <time>2021-08-11T07:43:44Z</time>
      </trkpt>
      <trkpt lat="46.59907" lon="6.11501">
        <ele>1089</ele>
        <time>2021-08-11T07:43:55Z</time>
      </trkpt>
      <trkpt lat="46.59901" lon="6.11504">
        <ele>1089</ele>
        <time>2021-08-11T07:43:59Z</time>
      </trkpt>
      <trkpt lat="46.59895" lon="6.11505">
        <ele>1088</ele>
        <time>2021-08-11T07:44:03Z</time>
      </trkpt>
      <trkpt lat="46.5989" lon="6.11509">
        <ele>1089</ele>
        <time>2021-08-11T07:44:06Z</time>
      </trkpt>
      <trkpt lat="46.59886" lon="6.11514">
        <ele>1088</ele>
        <time>2021-08-11T07:44:09Z</time>
      </trkpt>
      <trkpt lat="46.59881" lon="6.11517">
        <ele>1088</ele>
        <time>2021-08-11T07:44:14Z</time>
      </trkpt>
      <trkpt lat="46.59878" lon="6.11528">
        <ele>1088</ele>
        <time>2021-08-11T07:44:21Z</time>
      </trkpt>
      <trkpt lat="46.59874" lon="6.11534">
        <ele>1088</ele>
        <time>2021-08-11T07:44:26Z</time>
      </trkpt>
      <trkpt lat="46.59869" lon="6.11538">
        <ele>1088</ele>
        <time>2021-08-11T07:44:31Z</time>
      </trkpt>
      <trkpt lat="46.59864" lon="6.11545">
        <ele>1088</ele>
        <time>2021-08-11T07:44:36Z</time>
      </trkpt>
      <trkpt lat="46.59859" lon="6.11548">
        <ele>1087</ele>
        <time>2021-08-11T07:44:40Z</time>
      </trkpt>
      <trkpt lat="46.59854" lon="6.11556">
        <ele>1087</ele>
        <time>2021-08-11T07:44:45Z</time>
      </trkpt>
      <trkpt lat="46.59852" lon="6.11572">
        <ele>1087</ele>
        <time>2021-08-11T07:44:55Z</time>
      </trkpt>
      <trkpt lat="46.59855" lon="6.11581">
        <ele>1087</ele>
        <time>2021-08-11T07:45:00Z</time>
      </trkpt>
      <trkpt lat="46.59883" lon="6.11619">
        <ele>1086</ele>
        <time>2021-08-11T07:45:34Z</time>
      </trkpt>
      <trkpt lat="46.5989" lon="6.11645">
        <ele>1086</ele>
        <time>2021-08-11T07:45:47Z</time>
      </trkpt>
      <trkpt lat="46.59894" lon="6.11651">
        <ele>1086</ele>
        <time>2021-08-11T07:45:53Z</time>
      </trkpt>
      <trkpt lat="46.59889" lon="6.11693">
        <ele>1085</ele>
        <time>2021-08-11T07:46:21Z</time>
      </trkpt>
      <trkpt lat="46.59889" lon="6.11702">
        <ele>1085</ele>
        <time>2021-08-11T07:46:26Z</time>
      </trkpt>
      <trkpt lat="46.59892" lon="6.11712">
        <ele>1085</ele>
        <time>2021-08-11T07:46:31Z</time>
      </trkpt>
      <trkpt lat="46.59896" lon="6.11729">
        <ele>1084</ele>
        <time>2021-08-11T07:46:40Z</time>
      </trkpt>
      <trkpt lat="46.59896" lon="6.11744">
        <ele>1084</ele>
        <time>2021-08-11T07:46:49Z</time>
      </trkpt>
      <trkpt lat="46.59898" lon="6.11753">
        <ele>1084</ele>
        <time>2021-08-11T07:46:53Z</time>
      </trkpt>
      <trkpt lat="46.599" lon="6.11761">
        <ele>1083</ele>
        <time>2021-08-11T07:46:58Z</time>
      </trkpt>
      <trkpt lat="46.59905" lon="6.11776">
        <ele>1083</ele>
        <time>2021-08-11T07:47:07Z</time>
      </trkpt>
      <trkpt lat="46.59905" lon="6.11788">
        <ele>1083</ele>
        <time>2021-08-11T07:47:15Z</time>
      </trkpt>
      <trkpt lat="46.59905" lon="6.11796">
        <ele>1082</ele>
        <time>2021-08-11T07:47:19Z</time>
      </trkpt>
      <trkpt lat="46.59904" lon="6.11806">
        <ele>1083</ele>
        <time>2021-08-11T07:47:23Z</time>
      </trkpt>
      <trkpt lat="46.59902" lon="6.11812">
        <ele>1082</ele>
        <time>2021-08-11T07:47:27Z</time>
      </trkpt>
      <trkpt lat="46.59901" lon="6.11818">
        <ele>1082</ele>
        <time>2021-08-11T07:47:30Z</time>
      </trkpt>
      <trkpt lat="46.59899" lon="6.11823">
        <ele>1082</ele>
        <time>2021-08-11T07:47:33Z</time>
      </trkpt>
      <trkpt lat="46.59898" lon="6.11829">
        <ele>1082</ele>
        <time>2021-08-11T07:47:36Z</time>
      </trkpt>
      <trkpt lat="46.59897" lon="6.11834">
        <ele>1083</ele>
        <time>2021-08-11T07:47:39Z</time>
      </trkpt>
      <trkpt lat="46.59892" lon="6.11844">
        <ele>1082</ele>
        <time>2021-08-11T07:47:46Z</time>
      </trkpt>
      <trkpt lat="46.59888" lon="6.11849">
        <ele>1082</ele>
        <time>2021-08-11T07:47:51Z</time>
      </trkpt>
      <trkpt lat="46.59884" lon="6.1185">
        <ele>1082</ele>
        <time>2021-08-11T07:47:54Z</time>
      </trkpt>
      <trkpt lat="46.5988" lon="6.11851">
        <ele>1082</ele>
        <time>2021-08-11T07:47:57Z</time>
      </trkpt>
      <trkpt lat="46.59864" lon="6.11852">
        <ele>1082</ele>
        <time>2021-08-11T07:48:10Z</time>
      </trkpt>
      <trkpt lat="46.59858" lon="6.11855">
        <ele>1082</ele>
        <time>2021-08-11T07:48:15Z</time>
      </trkpt>
      <trkpt lat="46.5984" lon="6.11848">
        <ele>1081</ele>
        <time>2021-08-11T07:48:30Z</time>
      </trkpt>
      <trkpt lat="46.59828" lon="6.11851">
        <ele>1082</ele>
        <time>2021-08-11T07:48:39Z</time>
      </trkpt>
      <trkpt lat="46.59821" lon="6.11847">
        <ele>1082</ele>
        <time>2021-08-11T07:48:48Z</time>
      </trkpt>
      <trkpt lat="46.59816" lon="6.11844">
        <ele>1081</ele>
        <time>2021-08-11T07:49:02Z</time>
      </trkpt>
      <trkpt lat="46.59809" lon="6.11839">
        <ele>1083</ele>
        <time>2021-08-11T07:49:17Z</time>
      </trkpt>
      <trkpt lat="46.59806" lon="6.11847">
        <ele>1082</ele>
        <time>2021-08-11T07:49:35Z</time>
      </trkpt>
      <trkpt lat="46.59816" lon="6.11852">
        <ele>1082</ele>
        <time>2021-08-11T07:49:47Z</time>
      </trkpt>
      <trkpt lat="46.59834" lon="6.1185">
        <ele>1081</ele>
        <time>2021-08-11T07:49:59Z</time>
      </trkpt>
      <trkpt lat="46.59843" lon="6.11848">
        <ele>1081</ele>
        <time>2021-08-11T07:50:27Z</time>
      </trkpt>
      <trkpt lat="46.59848" lon="6.11848">
        <ele>1081</ele>
        <time>2021-08-11T07:50:32Z</time>
      </trkpt>
      <trkpt lat="46.59863" lon="6.11851">
        <ele>1081</ele>
        <time>2021-08-11T07:50:46Z</time>
      </trkpt>
      <trkpt lat="46.59858" lon="6.11841">
        <ele>1082</ele>
        <time>2021-08-11T07:51:02Z</time>
      </trkpt>
      <trkpt lat="46.5984" lon="6.11818">
        <ele>1083</ele>
        <time>2021-08-11T07:51:19Z</time>
      </trkpt>
      <trkpt lat="46.59835" lon="6.11813">
        <ele>1083</ele>
        <time>2021-08-11T07:51:23Z</time>
      </trkpt>
      <trkpt lat="46.59823" lon="6.11793">
        <ele>1083</ele>
        <time>2021-08-11T07:51:37Z</time>
      </trkpt>
      <trkpt lat="46.5984" lon="6.1182">
        <ele>1083</ele>
        <time>2021-08-11T07:52:10Z</time>
      </trkpt>
      <trkpt lat="46.5987" lon="6.11848">
        <ele>1082</ele>
        <time>2021-08-11T07:52:37Z</time>
      </trkpt>
      <trkpt lat="46.59874" lon="6.11854">
        <ele>1082</ele>
        <time>2021-08-11T07:52:42Z</time>
      </trkpt>
      <trkpt lat="46.59881" lon="6.11858">
        <ele>1082</ele>
        <time>2021-08-11T07:52:52Z</time>
      </trkpt>
      <trkpt lat="46.5987" lon="6.11869">
        <ele>1081</ele>
        <time>2021-08-11T07:53:03Z</time>
      </trkpt>
      <trkpt lat="46.59849" lon="6.11872">
        <ele>1080</ele>
        <time>2021-08-11T07:53:21Z</time>
      </trkpt>
      <trkpt lat="46.59842" lon="6.11877">
        <ele>1080</ele>
        <time>2021-08-11T07:53:28Z</time>
      </trkpt>
      <trkpt lat="46.59838" lon="6.11882">
        <ele>1080</ele>
        <time>2021-08-11T07:53:33Z</time>
      </trkpt>
      <trkpt lat="46.59834" lon="6.11889">
        <ele>1080</ele>
        <time>2021-08-11T07:53:38Z</time>
      </trkpt>
      <trkpt lat="46.59828" lon="6.11894">
        <ele>1080</ele>
        <time>2021-08-11T07:53:44Z</time>
      </trkpt>
      <trkpt lat="46.59827" lon="6.11906">
        <ele>1080</ele>
        <time>2021-08-11T07:53:52Z</time>
      </trkpt>
      <trkpt lat="46.5982" lon="6.11917">
        <ele>1080</ele>
        <time>2021-08-11T07:54:02Z</time>
      </trkpt>
      <trkpt lat="46.59816" lon="6.11926">
        <ele>1080</ele>
        <time>2021-08-11T07:54:07Z</time>
      </trkpt>
      <trkpt lat="46.59811" lon="6.11937">
        <ele>1080</ele>
        <time>2021-08-11T07:54:14Z</time>
      </trkpt>
      <trkpt lat="46.59808" lon="6.11942">
        <ele>1080</ele>
        <time>2021-08-11T07:54:17Z</time>
      </trkpt>
      <trkpt lat="46.59804" lon="6.11951">
        <ele>1080</ele>
        <time>2021-08-11T07:54:23Z</time>
      </trkpt>
      <trkpt lat="46.59803" lon="6.11959">
        <ele>1080</ele>
        <time>2021-08-11T07:54:29Z</time>
      </trkpt>
      <trkpt lat="46.59799" lon="6.11968">
        <ele>1080</ele>
        <time>2021-08-11T07:54:36Z</time>
      </trkpt>
      <trkpt lat="46.59793" lon="6.11984">
        <ele>1080</ele>
        <time>2021-08-11T07:54:47Z</time>
      </trkpt>
      <trkpt lat="46.59791" lon="6.11989">
        <ele>1080</ele>
        <time>2021-08-11T07:54:50Z</time>
      </trkpt>
      <trkpt lat="46.59787" lon="6.11994">
        <ele>1080</ele>
        <time>2021-08-11T07:54:54Z</time>
      </trkpt>
      <trkpt lat="46.59786" lon="6.12">
        <ele>1080</ele>
        <time>2021-08-11T07:55:03Z</time>
      </trkpt>
      <trkpt lat="46.59784" lon="6.12005">
        <ele>1080</ele>
        <time>2021-08-11T07:55:08Z</time>
      </trkpt>
      <trkpt lat="46.5978" lon="6.12013">
        <ele>1080</ele>
        <time>2021-08-11T07:55:13Z</time>
      </trkpt>
      <trkpt lat="46.59778" lon="6.12021">
        <ele>1081</ele>
        <time>2021-08-11T07:55:18Z</time>
      </trkpt>
      <trkpt lat="46.59777" lon="6.12026">
        <ele>1081</ele>
        <time>2021-08-11T07:55:22Z</time>
      </trkpt>
      <trkpt lat="46.5976" lon="6.12076">
        <ele>1082</ele>
        <time>2021-08-11T07:55:54Z</time>
      </trkpt>
      <trkpt lat="46.5975" lon="6.12094">
        <ele>1083</ele>
        <time>2021-08-11T07:56:09Z</time>
      </trkpt>
      <trkpt lat="46.59746" lon="6.12101">
        <ele>1084</ele>
        <time>2021-08-11T07:56:15Z</time>
      </trkpt>
      <trkpt lat="46.59744" lon="6.12107">
        <ele>1083</ele>
        <time>2021-08-11T07:56:19Z</time>
      </trkpt>
      <trkpt lat="46.59742" lon="6.12112">
        <ele>1084</ele>
        <time>2021-08-11T07:56:23Z</time>
      </trkpt>
      <trkpt lat="46.5974" lon="6.12118">
        <ele>1084</ele>
        <time>2021-08-11T07:56:27Z</time>
      </trkpt>
      <trkpt lat="46.5973" lon="6.12131">
        <ele>1085</ele>
        <time>2021-08-11T07:56:42Z</time>
      </trkpt>
      <trkpt lat="46.59723" lon="6.12138">
        <ele>1086</ele>
        <time>2021-08-11T07:56:50Z</time>
      </trkpt>
      <trkpt lat="46.59716" lon="6.12141">
        <ele>1087</ele>
        <time>2021-08-11T07:57:00Z</time>
      </trkpt>
      <trkpt lat="46.5971" lon="6.12146">
        <ele>1089</ele>
        <time>2021-08-11T07:57:10Z</time>
      </trkpt>
      <trkpt lat="46.59704" lon="6.12138">
        <ele>1090</ele>
        <time>2021-08-11T07:57:24Z</time>
      </trkpt>
      <trkpt lat="46.59697" lon="6.12141">
        <ele>1092</ele>
        <time>2021-08-11T07:58:54Z</time>
      </trkpt>
      <trkpt lat="46.59695" lon="6.12153">
        <ele>1094</ele>
        <time>2021-08-11T07:59:08Z</time>
      </trkpt>
      <trkpt lat="46.59694" lon="6.12164">
        <ele>1095</ele>
        <time>2021-08-11T07:59:17Z</time>
      </trkpt>
      <trkpt lat="46.5969" lon="6.12171">
        <ele>1096</ele>
        <time>2021-08-11T07:59:25Z</time>
      </trkpt>
      <trkpt lat="46.59686" lon="6.12186">
        <ele>1098</ele>
        <time>2021-08-11T07:59:37Z</time>
      </trkpt>
      <trkpt lat="46.59684" lon="6.12205">
        <ele>1101</ele>
        <time>2021-08-11T07:59:57Z</time>
      </trkpt>
      <trkpt lat="46.59683" lon="6.1221">
        <ele>1102</ele>
        <time>2021-08-11T08:00:03Z</time>
      </trkpt>
      <trkpt lat="46.59681" lon="6.12228">
        <ele>1106</ele>
        <time>2021-08-11T08:00:27Z</time>
      </trkpt>
      <trkpt lat="46.59672" lon="6.12249">
        <ele>1110</ele>
        <time>2021-08-11T08:00:51Z</time>
      </trkpt>
      <trkpt lat="46.59671" lon="6.12258">
        <ele>1111</ele>
        <time>2021-08-11T08:01:03Z</time>
      </trkpt>
      <trkpt lat="46.59669" lon="6.12266">
        <ele>1113</ele>
        <time>2021-08-11T08:01:15Z</time>
      </trkpt>
      <trkpt lat="46.59666" lon="6.12274">
        <ele>1115</ele>
        <time>2021-08-11T08:01:27Z</time>
      </trkpt>
      <trkpt lat="46.59662" lon="6.12283">
        <ele>1117</ele>
        <time>2021-08-11T08:01:45Z</time>
      </trkpt>
      <trkpt lat="46.59656" lon="6.1229">
        <ele>1118</ele>
        <time>2021-08-11T08:01:57Z</time>
      </trkpt>
      <trkpt lat="46.59656" lon="6.12299">
        <ele>1120</ele>
        <time>2021-08-11T08:02:09Z</time>
      </trkpt>
      <trkpt lat="46.59656" lon="6.12307">
        <ele>1121</ele>
        <time>2021-08-11T08:02:21Z</time>
      </trkpt>
      <trkpt lat="46.59652" lon="6.12314">
        <ele>1123</ele>
        <time>2021-08-11T08:02:33Z</time>
      </trkpt>
      <trkpt lat="46.5965" lon="6.12322">
        <ele>1126</ele>
        <time>2021-08-11T08:03:15Z</time>
      </trkpt>
      <trkpt lat="46.59656" lon="6.12323">
        <ele>1126</ele>
        <time>2021-08-11T08:04:07Z</time>
      </trkpt>
      <trkpt lat="46.59653" lon="6.12313">
        <ele>1127</ele>
        <time>2021-08-11T08:04:28Z</time>
      </trkpt>
      <trkpt lat="46.59649" lon="6.12314">
        <ele>1127</ele>
        <time>2021-08-11T08:05:26Z</time>
      </trkpt>
      <trkpt lat="46.59646" lon="6.1232">
        <ele>1128</ele>
        <time>2021-08-11T08:06:14Z</time>
      </trkpt>
      <trkpt lat="46.59641" lon="6.12326">
        <ele>1127</ele>
        <time>2021-08-11T08:06:49Z</time>
      </trkpt>
      <trkpt lat="46.59634" lon="6.12331">
        <ele>1130</ele>
        <time>2021-08-11T08:07:07Z</time>
      </trkpt>
      <trkpt lat="46.59626" lon="6.12339">
        <ele>1132</ele>
        <time>2021-08-11T08:08:07Z</time>
      </trkpt>
      <trkpt lat="46.59621" lon="6.12332">
        <ele>1133</ele>
        <time>2021-08-11T08:08:19Z</time>
      </trkpt>
      <trkpt lat="46.59614" lon="6.12331">
        <ele>1134</ele>
        <time>2021-08-11T08:08:31Z</time>
      </trkpt>
      <trkpt lat="46.596" lon="6.12327">
        <ele>1137</ele>
        <time>2021-08-11T08:08:48Z</time>
      </trkpt>
      <trkpt lat="46.59591" lon="6.12333">
        <ele>1139</ele>
        <time>2021-08-11T08:09:00Z</time>
      </trkpt>
      <trkpt lat="46.59585" lon="6.12338">
        <ele>1140</ele>
        <time>2021-08-11T08:09:08Z</time>
      </trkpt>
      <trkpt lat="46.59567" lon="6.12355">
        <ele>1146</ele>
        <time>2021-08-11T08:09:47Z</time>
      </trkpt>
      <trkpt lat="46.59558" lon="6.12366">
        <ele>1149</ele>
        <time>2021-08-11T08:10:06Z</time>
      </trkpt>
      <trkpt lat="46.5955" lon="6.12368">
        <ele>1150</ele>
        <time>2021-08-11T08:10:18Z</time>
      </trkpt>
      <trkpt lat="46.59544" lon="6.1237">
        <ele>1151</ele>
        <time>2021-08-11T08:10:29Z</time>
      </trkpt>
      <trkpt lat="46.5954" lon="6.12376">
        <ele>1152</ele>
        <time>2021-08-11T08:10:39Z</time>
      </trkpt>
      <trkpt lat="46.59534" lon="6.12379">
        <ele>1153</ele>
        <time>2021-08-11T08:10:50Z</time>
      </trkpt>
      <trkpt lat="46.59527" lon="6.12386">
        <ele>1153</ele>
        <time>2021-08-11T08:11:02Z</time>
      </trkpt>
      <trkpt lat="46.5952" lon="6.12397">
        <ele>1154</ele>
        <time>2021-08-11T08:11:12Z</time>
      </trkpt>
      <trkpt lat="46.59515" lon="6.12405">
        <ele>1155</ele>
        <time>2021-08-11T08:11:22Z</time>
      </trkpt>
      <trkpt lat="46.59513" lon="6.12416">
        <ele>1158</ele>
        <time>2021-08-11T08:11:34Z</time>
      </trkpt>
      <trkpt lat="46.59508" lon="6.12426">
        <ele>1159</ele>
        <time>2021-08-11T08:11:46Z</time>
      </trkpt>
      <trkpt lat="46.59507" lon="6.12438">
        <ele>1160</ele>
        <time>2021-08-11T08:11:59Z</time>
      </trkpt>
      <trkpt lat="46.59507" lon="6.12458">
        <ele>1163</ele>
        <time>2021-08-11T08:12:22Z</time>
      </trkpt>
      <trkpt lat="46.59501" lon="6.12465">
        <ele>1165</ele>
        <time>2021-08-11T08:12:34Z</time>
      </trkpt>
      <trkpt lat="46.59498" lon="6.12473">
        <ele>1165</ele>
        <time>2021-08-11T08:12:42Z</time>
      </trkpt>
      <trkpt lat="46.59497" lon="6.12492">
        <ele>1167</ele>
        <time>2021-08-11T08:12:57Z</time>
      </trkpt>
      <trkpt lat="46.59497" lon="6.12505">
        <ele>1169</ele>
        <time>2021-08-11T08:13:16Z</time>
      </trkpt>
      <trkpt lat="46.59494" lon="6.1252">
        <ele>1171</ele>
        <time>2021-08-11T08:13:34Z</time>
      </trkpt>
      <trkpt lat="46.59497" lon="6.12526">
        <ele>1171</ele>
        <time>2021-08-11T08:13:38Z</time>
      </trkpt>
      <trkpt lat="46.59491" lon="6.12548">
        <ele>1176</ele>
        <time>2021-08-11T08:14:16Z</time>
      </trkpt>
      <trkpt lat="46.59488" lon="6.1256">
        <ele>1177</ele>
        <time>2021-08-11T08:14:22Z</time>
      </trkpt>
      <trkpt lat="46.59483" lon="6.12567">
        <ele>1179</ele>
        <time>2021-08-11T08:14:49Z</time>
      </trkpt>
      <trkpt lat="46.59475" lon="6.12571">
        <ele>1187</ele>
        <time>2021-08-11T08:16:07Z</time>
      </trkpt>
      <trkpt lat="46.59459" lon="6.12583">
        <ele>1190</ele>
        <time>2021-08-11T08:16:43Z</time>
      </trkpt>
      <trkpt lat="46.59452" lon="6.12581">
        <ele>1192</ele>
        <time>2021-08-11T08:16:55Z</time>
      </trkpt>
      <trkpt lat="46.59435" lon="6.12583">
        <ele>1195</ele>
        <time>2021-08-11T08:17:41Z</time>
      </trkpt>
      <trkpt lat="46.59425" lon="6.12583">
        <ele>1198</ele>
        <time>2021-08-11T08:18:01Z</time>
      </trkpt>
      <trkpt lat="46.59417" lon="6.12578">
        <ele>1199</ele>
        <time>2021-08-11T08:18:15Z</time>
      </trkpt>
      <trkpt lat="46.59409" lon="6.12579">
        <ele>1200</ele>
        <time>2021-08-11T08:18:21Z</time>
      </trkpt>
      <trkpt lat="46.59401" lon="6.12581">
        <ele>1203</ele>
        <time>2021-08-11T08:18:50Z</time>
      </trkpt>
      <trkpt lat="46.59406" lon="6.12591">
        <ele>1206</ele>
        <time>2021-08-11T08:19:03Z</time>
      </trkpt>
      <trkpt lat="46.59399" lon="6.12591">
        <ele>1212</ele>
        <time>2021-08-11T08:19:44Z</time>
      </trkpt>
      <trkpt lat="46.59392" lon="6.12591">
        <ele>1213</ele>
        <time>2021-08-11T08:19:56Z</time>
      </trkpt>
      <trkpt lat="46.59384" lon="6.12592">
        <ele>1215</ele>
        <time>2021-08-11T08:20:16Z</time>
      </trkpt>
      <trkpt lat="46.59378" lon="6.12589">
        <ele>1217</ele>
        <time>2021-08-11T08:20:28Z</time>
      </trkpt>
      <trkpt lat="46.59361" lon="6.12593">
        <ele>1219</ele>
        <time>2021-08-11T08:21:17Z</time>
      </trkpt>
      <trkpt lat="46.59356" lon="6.12596">
        <ele>1221</ele>
        <time>2021-08-11T08:21:29Z</time>
      </trkpt>
      <trkpt lat="46.59349" lon="6.126">
        <ele>1222</ele>
        <time>2021-08-11T08:21:47Z</time>
      </trkpt>
      <trkpt lat="46.59345" lon="6.12608">
        <ele>1226</ele>
        <time>2021-08-11T08:22:11Z</time>
      </trkpt>
      <trkpt lat="46.59337" lon="6.126">
        <ele>1228</ele>
        <time>2021-08-11T08:22:31Z</time>
      </trkpt>
      <trkpt lat="46.5933" lon="6.126">
        <ele>1231</ele>
        <time>2021-08-11T08:22:49Z</time>
      </trkpt>
      <trkpt lat="46.59323" lon="6.12606">
        <ele>1233</ele>
        <time>2021-08-11T08:23:07Z</time>
      </trkpt>
      <trkpt lat="46.59312" lon="6.12608">
        <ele>1235</ele>
        <time>2021-08-11T08:23:26Z</time>
      </trkpt>
      <trkpt lat="46.59313" lon="6.12619">
        <ele>1239</ele>
        <time>2021-08-11T08:23:50Z</time>
      </trkpt>
      <trkpt lat="46.59318" lon="6.12632">
        <ele>1240</ele>
        <time>2021-08-11T08:24:03Z</time>
      </trkpt>
      <trkpt lat="46.59344" lon="6.12644">
        <ele>1246</ele>
        <time>2021-08-11T08:24:57Z</time>
      </trkpt>
      <trkpt lat="46.59349" lon="6.12653">
        <ele>1252</ele>
        <time>2021-08-11T08:25:26Z</time>
      </trkpt>
      <trkpt lat="46.59337" lon="6.12655">
        <ele>1256</ele>
        <time>2021-08-11T08:26:03Z</time>
      </trkpt>
      <trkpt lat="46.59327" lon="6.1266">
        <ele>1261</ele>
        <time>2021-08-11T08:26:34Z</time>
      </trkpt>
      <trkpt lat="46.5932" lon="6.12664">
        <ele>1264</ele>
        <time>2021-08-11T08:26:58Z</time>
      </trkpt>
      <trkpt lat="46.59327" lon="6.12674">
        <ele>1266</ele>
        <time>2021-08-11T08:27:16Z</time>
      </trkpt>
      <trkpt lat="46.5932" lon="6.12677">
        <ele>1271</ele>
        <time>2021-08-11T08:27:58Z</time>
      </trkpt>
      <trkpt lat="46.59313" lon="6.12679">
        <ele>1273</ele>
        <time>2021-08-11T08:28:34Z</time>
      </trkpt>
      <trkpt lat="46.59305" lon="6.1268">
        <ele>1274</ele>
        <time>2021-08-11T08:29:03Z</time>
      </trkpt>
      <trkpt lat="46.59301" lon="6.12677">
        <ele>1275</ele>
        <time>2021-08-11T08:29:09Z</time>
      </trkpt>
      <trkpt lat="46.59293" lon="6.12681">
        <ele>1280</ele>
        <time>2021-08-11T08:29:40Z</time>
      </trkpt>
      <trkpt lat="46.59289" lon="6.1269">
        <ele>1284</ele>
        <time>2021-08-11T08:30:16Z</time>
      </trkpt>
      <trkpt lat="46.593" lon="6.12701">
        <ele>1287</ele>
        <time>2021-08-11T08:30:43Z</time>
      </trkpt>
      <trkpt lat="46.59307" lon="6.12711">
        <ele>1290</ele>
        <time>2021-08-11T08:31:04Z</time>
      </trkpt>
      <trkpt lat="46.59312" lon="6.1272">
        <ele>1295</ele>
        <time>2021-08-11T08:31:40Z</time>
      </trkpt>
      <trkpt lat="46.59319" lon="6.12732">
        <ele>1299</ele>
        <time>2021-08-11T08:32:15Z</time>
      </trkpt>
      <trkpt lat="46.59327" lon="6.12726">
        <ele>1302</ele>
        <time>2021-08-11T08:32:32Z</time>
      </trkpt>
      <trkpt lat="46.59336" lon="6.12727">
        <ele>1305</ele>
        <time>2021-08-11T08:33:21Z</time>
      </trkpt>
      <trkpt lat="46.59335" lon="6.12736">
        <ele>1307</ele>
        <time>2021-08-11T08:33:57Z</time>
      </trkpt>
      <trkpt lat="46.59326" lon="6.1273">
        <ele>1308</ele>
        <time>2021-08-11T08:34:34Z</time>
      </trkpt>
      <trkpt lat="46.5932" lon="6.12725">
        <ele>1308</ele>
        <time>2021-08-11T08:34:44Z</time>
      </trkpt>
      <trkpt lat="46.59311" lon="6.12729">
        <ele>1308</ele>
        <time>2021-08-11T08:35:03Z</time>
      </trkpt>
      <trkpt lat="46.59304" lon="6.12725">
        <ele>1309</ele>
        <time>2021-08-11T08:35:21Z</time>
      </trkpt>
      <trkpt lat="46.59297" lon="6.12719">
        <ele>1310</ele>
        <time>2021-08-11T08:35:33Z</time>
      </trkpt>
      <trkpt lat="46.59289" lon="6.12717">
        <ele>1312</ele>
        <time>2021-08-11T08:35:50Z</time>
      </trkpt>
      <trkpt lat="46.5928" lon="6.12715">
        <ele>1313</ele>
        <time>2021-08-11T08:36:01Z</time>
      </trkpt>
      <trkpt lat="46.59274" lon="6.12707">
        <ele>1314</ele>
        <time>2021-08-11T08:36:15Z</time>
      </trkpt>
      <trkpt lat="46.59266" lon="6.12702">
        <ele>1315</ele>
        <time>2021-08-11T08:36:27Z</time>
      </trkpt>
      <trkpt lat="46.5926" lon="6.12698">
        <ele>1316</ele>
        <time>2021-08-11T08:37:15Z</time>
      </trkpt>
      <trkpt lat="46.59252" lon="6.12697">
        <ele>1316</ele>
        <time>2021-08-11T08:37:33Z</time>
      </trkpt>
      <trkpt lat="46.59247" lon="6.12687">
        <ele>1317</ele>
        <time>2021-08-11T08:38:03Z</time>
      </trkpt>
      <trkpt lat="46.59241" lon="6.12687">
        <ele>1317</ele>
        <time>2021-08-11T08:38:22Z</time>
      </trkpt>
      <trkpt lat="46.59235" lon="6.12686">
        <ele>1316</ele>
        <time>2021-08-11T08:38:40Z</time>
      </trkpt>
      <trkpt lat="46.5923" lon="6.12677">
        <ele>1314</ele>
        <time>2021-08-11T08:38:57Z</time>
      </trkpt>
      <trkpt lat="46.59223" lon="6.12675">
        <ele>1313</ele>
        <time>2021-08-11T08:39:12Z</time>
      </trkpt>
      <trkpt lat="46.59218" lon="6.1268">
        <ele>1312</ele>
        <time>2021-08-11T08:39:32Z</time>
      </trkpt>
      <trkpt lat="46.59213" lon="6.12684">
        <ele>1311</ele>
        <time>2021-08-11T08:39:37Z</time>
      </trkpt>
      <trkpt lat="46.59207" lon="6.12689">
        <ele>1312</ele>
        <time>2021-08-11T08:39:43Z</time>
      </trkpt>
      <trkpt lat="46.59201" lon="6.12691">
        <ele>1312</ele>
        <time>2021-08-11T08:39:57Z</time>
      </trkpt>
      <trkpt lat="46.59191" lon="6.12689">
        <ele>1310</ele>
        <time>2021-08-11T08:40:17Z</time>
      </trkpt>
      <trkpt lat="46.59189" lon="6.12674">
        <ele>1313</ele>
        <time>2021-08-11T08:40:36Z</time>
      </trkpt>
      <trkpt lat="46.59189" lon="6.12663">
        <ele>1316</ele>
        <time>2021-08-11T08:40:49Z</time>
      </trkpt>
      <trkpt lat="46.59185" lon="6.12655">
        <ele>1317</ele>
        <time>2021-08-11T08:41:01Z</time>
      </trkpt>
      <trkpt lat="46.59176" lon="6.12648">
        <ele>1318</ele>
        <time>2021-08-11T08:41:14Z</time>
      </trkpt>
      <trkpt lat="46.59169" lon="6.12642">
        <ele>1318</ele>
        <time>2021-08-11T08:41:26Z</time>
      </trkpt>
      <trkpt lat="46.59151" lon="6.12633">
        <ele>1319</ele>
        <time>2021-08-11T08:41:44Z</time>
      </trkpt>
      <trkpt lat="46.59153" lon="6.12617">
        <ele>1318</ele>
        <time>2021-08-11T08:42:03Z</time>
      </trkpt>
      <trkpt lat="46.59152" lon="6.12609">
        <ele>1318</ele>
        <time>2021-08-11T08:42:17Z</time>
      </trkpt>
      <trkpt lat="46.59146" lon="6.12603">
        <ele>1317</ele>
        <time>2021-08-11T08:42:31Z</time>
      </trkpt>
      <trkpt lat="46.59143" lon="6.12596">
        <ele>1317</ele>
        <time>2021-08-11T08:42:45Z</time>
      </trkpt>
      <trkpt lat="46.59141" lon="6.12587">
        <ele>1317</ele>
        <time>2021-08-11T08:43:26Z</time>
      </trkpt>
      <trkpt lat="46.59134" lon="6.12584">
        <ele>1316</ele>
        <time>2021-08-11T08:44:45Z</time>
      </trkpt>
      <trkpt lat="46.5913" lon="6.12585">
        <ele>1316</ele>
        <time>2021-08-11T08:44:59Z</time>
      </trkpt>
      <trkpt lat="46.59121" lon="6.12585">
        <ele>1316</ele>
        <time>2021-08-11T08:45:12Z</time>
      </trkpt>
      <trkpt lat="46.59111" lon="6.1258">
        <ele>1316</ele>
        <time>2021-08-11T08:45:25Z</time>
      </trkpt>
      <trkpt lat="46.59097" lon="6.12565">
        <ele>1316</ele>
        <time>2021-08-11T08:45:45Z</time>
      </trkpt>
      <trkpt lat="46.59089" lon="6.12561">
        <ele>1316</ele>
        <time>2021-08-11T08:45:58Z</time>
      </trkpt>
      <trkpt lat="46.59088" lon="6.12553">
        <ele>1316</ele>
        <time>2021-08-11T08:46:09Z</time>
      </trkpt>
      <trkpt lat="46.59081" lon="6.12548">
        <ele>1316</ele>
        <time>2021-08-11T08:46:51Z</time>
      </trkpt>
      <trkpt lat="46.59073" lon="6.12542">
        <ele>1316</ele>
        <time>2021-08-11T08:47:06Z</time>
      </trkpt>
      <trkpt lat="46.59068" lon="6.12537">
        <ele>1317</ele>
        <time>2021-08-11T08:47:12Z</time>
      </trkpt>
      <trkpt lat="46.5906" lon="6.12527">
        <ele>1316</ele>
        <time>2021-08-11T08:47:25Z</time>
      </trkpt>
      <trkpt lat="46.59056" lon="6.12523">
        <ele>1316</ele>
        <time>2021-08-11T08:47:31Z</time>
      </trkpt>
      <trkpt lat="46.59049" lon="6.12523">
        <ele>1317</ele>
        <time>2021-08-11T08:47:40Z</time>
      </trkpt>
      <trkpt lat="46.59045" lon="6.1252">
        <ele>1316</ele>
        <time>2021-08-11T08:47:44Z</time>
      </trkpt>
      <trkpt lat="46.59039" lon="6.12514">
        <ele>1317</ele>
        <time>2021-08-11T08:47:53Z</time>
      </trkpt>
      <trkpt lat="46.59036" lon="6.12511">
        <ele>1317</ele>
        <time>2021-08-11T08:47:57Z</time>
      </trkpt>
      <trkpt lat="46.59025" lon="6.12503">
        <ele>1317</ele>
        <time>2021-08-11T08:48:12Z</time>
      </trkpt>
      <trkpt lat="46.59021" lon="6.12499">
        <ele>1317</ele>
        <time>2021-08-11T08:48:18Z</time>
      </trkpt>
      <trkpt lat="46.59019" lon="6.12495">
        <ele>1317</ele>
        <time>2021-08-11T08:48:23Z</time>
      </trkpt>
      <trkpt lat="46.59015" lon="6.12492">
        <ele>1317</ele>
        <time>2021-08-11T08:48:26Z</time>
      </trkpt>
      <trkpt lat="46.5901" lon="6.12491">
        <ele>1316</ele>
        <time>2021-08-11T08:48:29Z</time>
      </trkpt>
      <trkpt lat="46.59007" lon="6.12491">
        <ele>1317</ele>
        <time>2021-08-11T08:48:37Z</time>
      </trkpt>
      <trkpt lat="46.59003" lon="6.12489">
        <ele>1318</ele>
        <time>2021-08-11T08:48:49Z</time>
      </trkpt>
      <trkpt lat="46.58999" lon="6.12491">
        <ele>1317</ele>
        <time>2021-08-11T08:48:53Z</time>
      </trkpt>
      <trkpt lat="46.59" lon="6.12482">
        <ele>1318</ele>
        <time>2021-08-11T08:49:30Z</time>
      </trkpt>
      <trkpt lat="46.58999" lon="6.12474">
        <ele>1318</ele>
        <time>2021-08-11T08:50:12Z</time>
      </trkpt>
      <trkpt lat="46.58992" lon="6.12471">
        <ele>1318</ele>
        <time>2021-08-11T08:51:18Z</time>
      </trkpt>
      <trkpt lat="46.58994" lon="6.12477">
        <ele>1317</ele>
        <time>2021-08-11T08:52:28Z</time>
      </trkpt>
      <trkpt lat="46.58991" lon="6.1248">
        <ele>1317</ele>
        <time>2021-08-11T08:52:39Z</time>
      </trkpt>
      <trkpt lat="46.58984" lon="6.12485">
        <ele>1317</ele>
        <time>2021-08-11T08:53:54Z</time>
      </trkpt>
      <trkpt lat="46.58979" lon="6.1249">
        <ele>1318</ele>
        <time>2021-08-11T08:53:59Z</time>
      </trkpt>
      <trkpt lat="46.58975" lon="6.12495">
        <ele>1318</ele>
        <time>2021-08-11T08:54:11Z</time>
      </trkpt>
      <trkpt lat="46.58963" lon="6.12498">
        <ele>1319</ele>
        <time>2021-08-11T08:54:37Z</time>
      </trkpt>
      <trkpt lat="46.58955" lon="6.12501">
        <ele>1318</ele>
        <time>2021-08-11T08:54:45Z</time>
      </trkpt>
      <trkpt lat="46.5895" lon="6.12503">
        <ele>1318</ele>
        <time>2021-08-11T08:54:51Z</time>
      </trkpt>
      <trkpt lat="46.58939" lon="6.12503">
        <ele>1320</ele>
        <time>2021-08-11T08:55:02Z</time>
      </trkpt>
      <trkpt lat="46.58936" lon="6.12496">
        <ele>1322</ele>
        <time>2021-08-11T08:55:18Z</time>
      </trkpt>
      <trkpt lat="46.58928" lon="6.12495">
        <ele>1323</ele>
        <time>2021-08-11T08:55:29Z</time>
      </trkpt>
      <trkpt lat="46.58922" lon="6.12491">
        <ele>1323</ele>
        <time>2021-08-11T08:55:34Z</time>
      </trkpt>
      <trkpt lat="46.58917" lon="6.12481">
        <ele>1323</ele>
        <time>2021-08-11T08:55:48Z</time>
      </trkpt>
      <trkpt lat="46.58912" lon="6.12477">
        <ele>1324</ele>
        <time>2021-08-11T08:55:56Z</time>
      </trkpt>
      <trkpt lat="46.58907" lon="6.12473">
        <ele>1323</ele>
        <time>2021-08-11T08:56:01Z</time>
      </trkpt>
      <trkpt lat="46.58901" lon="6.12467">
        <ele>1324</ele>
        <time>2021-08-11T08:56:09Z</time>
      </trkpt>
      <trkpt lat="46.58894" lon="6.12456">
        <ele>1324</ele>
        <time>2021-08-11T08:56:23Z</time>
      </trkpt>
      <trkpt lat="46.58881" lon="6.12442">
        <ele>1324</ele>
        <time>2021-08-11T08:56:40Z</time>
      </trkpt>
      <trkpt lat="46.58879" lon="6.1243">
        <ele>1324</ele>
        <time>2021-08-11T08:56:51Z</time>
      </trkpt>
      <trkpt lat="46.58878" lon="6.12422">
        <ele>1324</ele>
        <time>2021-08-11T08:56:56Z</time>
      </trkpt>
      <trkpt lat="46.58872" lon="6.12419">
        <ele>1324</ele>
        <time>2021-08-11T08:57:02Z</time>
      </trkpt>
      <trkpt lat="46.58867" lon="6.12414">
        <ele>1324</ele>
        <time>2021-08-11T08:57:07Z</time>
      </trkpt>
      <trkpt lat="46.58855" lon="6.124">
        <ele>1325</ele>
        <time>2021-08-11T08:57:29Z</time>
      </trkpt>
      <trkpt lat="46.58853" lon="6.12391">
        <ele>1324</ele>
        <time>2021-08-11T08:57:34Z</time>
      </trkpt>
      <trkpt lat="46.58849" lon="6.12381">
        <ele>1324</ele>
        <time>2021-08-11T08:57:42Z</time>
      </trkpt>
      <trkpt lat="46.58846" lon="6.12369">
        <ele>1323</ele>
        <time>2021-08-11T08:57:51Z</time>
      </trkpt>
      <trkpt lat="46.58842" lon="6.12363">
        <ele>1323</ele>
        <time>2021-08-11T08:57:57Z</time>
      </trkpt>
      <trkpt lat="46.58835" lon="6.12356">
        <ele>1323</ele>
        <time>2021-08-11T08:58:06Z</time>
      </trkpt>
      <trkpt lat="46.58833" lon="6.12348">
        <ele>1323</ele>
        <time>2021-08-11T08:58:10Z</time>
      </trkpt>
      <trkpt lat="46.58831" lon="6.12341">
        <ele>1323</ele>
        <time>2021-08-11T08:58:16Z</time>
      </trkpt>
      <trkpt lat="46.58827" lon="6.12332">
        <ele>1323</ele>
        <time>2021-08-11T08:58:26Z</time>
      </trkpt>
      <trkpt lat="46.58822" lon="6.12325">
        <ele>1324</ele>
        <time>2021-08-11T08:58:52Z</time>
      </trkpt>
      <trkpt lat="46.58822" lon="6.12324">
        <ele>1307</ele>
        <time>2021-08-11T08:59:02Z</time>
      </trkpt>
      <trkpt lat="46.58822" lon="6.12324">
        <ele>1307</ele>
        <time>2021-08-11T08:59:08Z</time>
      </trkpt>
      <trkpt lat="46.58819" lon="6.12326">
        <ele>1308</ele>
        <time>2021-08-11T09:00:15Z</time>
      </trkpt>
      <trkpt lat="46.58812" lon="6.12322">
        <ele>1309</ele>
        <time>2021-08-11T09:00:26Z</time>
      </trkpt>
      <trkpt lat="46.58805" lon="6.12323">
        <ele>1309</ele>
        <time>2021-08-11T09:00:33Z</time>
      </trkpt>
      <trkpt lat="46.588" lon="6.12325">
        <ele>1309</ele>
        <time>2021-08-11T09:00:39Z</time>
      </trkpt>
      <trkpt lat="46.58794" lon="6.12325">
        <ele>1310</ele>
        <time>2021-08-11T09:00:44Z</time>
      </trkpt>
      <trkpt lat="46.58788" lon="6.12323">
        <ele>1311</ele>
        <time>2021-08-11T09:00:52Z</time>
      </trkpt>
      <trkpt lat="46.58779" lon="6.1232">
        <ele>1311</ele>
        <time>2021-08-11T09:01:04Z</time>
      </trkpt>
      <trkpt lat="46.58769" lon="6.12317">
        <ele>1313</ele>
        <time>2021-08-11T09:01:15Z</time>
      </trkpt>
      <trkpt lat="46.58762" lon="6.12315">
        <ele>1312</ele>
        <time>2021-08-11T09:01:20Z</time>
      </trkpt>
      <trkpt lat="46.5875" lon="6.1231">
        <ele>1311</ele>
        <time>2021-08-11T09:01:32Z</time>
      </trkpt>
      <trkpt lat="46.58745" lon="6.12307">
        <ele>1313</ele>
        <time>2021-08-11T09:01:36Z</time>
      </trkpt>
      <trkpt lat="46.58738" lon="6.12305">
        <ele>1313</ele>
        <time>2021-08-11T09:01:43Z</time>
      </trkpt>
      <trkpt lat="46.58725" lon="6.12301">
        <ele>1312</ele>
        <time>2021-08-11T09:01:52Z</time>
      </trkpt>
      <trkpt lat="46.5872" lon="6.12303">
        <ele>1312</ele>
        <time>2021-08-11T09:02:01Z</time>
      </trkpt>
      <trkpt lat="46.58713" lon="6.12306">
        <ele>1312</ele>
        <time>2021-08-11T09:02:07Z</time>
      </trkpt>
      <trkpt lat="46.58709" lon="6.12311">
        <ele>1312</ele>
        <time>2021-08-11T09:02:11Z</time>
      </trkpt>
      <trkpt lat="46.58704" lon="6.12316">
        <ele>1314</ele>
        <time>2021-08-11T09:02:21Z</time>
      </trkpt>
      <trkpt lat="46.58698" lon="6.12321">
        <ele>1313</ele>
        <time>2021-08-11T09:02:28Z</time>
      </trkpt>
      <trkpt lat="46.58673" lon="6.12303">
        <ele>1313</ele>
        <time>2021-08-11T09:02:58Z</time>
      </trkpt>
      <trkpt lat="46.5867" lon="6.12298">
        <ele>1313</ele>
        <time>2021-08-11T09:03:03Z</time>
      </trkpt>
      <trkpt lat="46.58662" lon="6.12293">
        <ele>1314</ele>
        <time>2021-08-11T09:03:13Z</time>
      </trkpt>
      <trkpt lat="46.5866" lon="6.12277">
        <ele>1314</ele>
        <time>2021-08-11T09:03:25Z</time>
      </trkpt>
      <trkpt lat="46.58661" lon="6.12256">
        <ele>1313</ele>
        <time>2021-08-11T09:03:38Z</time>
      </trkpt>
      <trkpt lat="46.58663" lon="6.12249">
        <ele>1314</ele>
        <time>2021-08-11T09:03:44Z</time>
      </trkpt>
      <trkpt lat="46.58666" lon="6.12242">
        <ele>1314</ele>
        <time>2021-08-11T09:03:50Z</time>
      </trkpt>
      <trkpt lat="46.58664" lon="6.12228">
        <ele>1314</ele>
        <time>2021-08-11T09:04:01Z</time>
      </trkpt>
      <trkpt lat="46.58661" lon="6.12219">
        <ele>1314</ele>
        <time>2021-08-11T09:04:10Z</time>
      </trkpt>
      <trkpt lat="46.58657" lon="6.12212">
        <ele>1314</ele>
        <time>2021-08-11T09:04:17Z</time>
      </trkpt>
      <trkpt lat="46.58639" lon="6.12212">
        <ele>1315</ele>
        <time>2021-08-11T09:04:33Z</time>
      </trkpt>
      <trkpt lat="46.58626" lon="6.12204">
        <ele>1315</ele>
        <time>2021-08-11T09:04:46Z</time>
      </trkpt>
      <trkpt lat="46.58619" lon="6.12201">
        <ele>1316</ele>
        <time>2021-08-11T09:04:54Z</time>
      </trkpt>
      <trkpt lat="46.58619" lon="6.1219">
        <ele>1316</ele>
        <time>2021-08-11T09:05:08Z</time>
      </trkpt>
      <trkpt lat="46.58609" lon="6.12188">
        <ele>1316</ele>
        <time>2021-08-11T09:05:55Z</time>
      </trkpt>
      <trkpt lat="46.58601" lon="6.12198">
        <ele>1317</ele>
        <time>2021-08-11T09:06:06Z</time>
      </trkpt>
      <trkpt lat="46.58596" lon="6.12201">
        <ele>1317</ele>
        <time>2021-08-11T09:06:11Z</time>
      </trkpt>
      <trkpt lat="46.58591" lon="6.12204">
        <ele>1316</ele>
        <time>2021-08-11T09:06:17Z</time>
      </trkpt>
      <trkpt lat="46.58587" lon="6.1221">
        <ele>1316</ele>
        <time>2021-08-11T09:06:21Z</time>
      </trkpt>
      <trkpt lat="46.58582" lon="6.12215">
        <ele>1316</ele>
        <time>2021-08-11T09:06:26Z</time>
      </trkpt>
      <trkpt lat="46.58571" lon="6.12222">
        <ele>1315</ele>
        <time>2021-08-11T09:06:42Z</time>
      </trkpt>
      <trkpt lat="46.58564" lon="6.12219">
        <ele>1315</ele>
        <time>2021-08-11T09:06:52Z</time>
      </trkpt>
      <trkpt lat="46.58559" lon="6.12216">
        <ele>1314</ele>
        <time>2021-08-11T09:06:58Z</time>
      </trkpt>
      <trkpt lat="46.58553" lon="6.1221">
        <ele>1315</ele>
        <time>2021-08-11T09:07:09Z</time>
      </trkpt>
      <trkpt lat="46.58546" lon="6.12207">
        <ele>1316</ele>
        <time>2021-08-11T09:07:23Z</time>
      </trkpt>
      <trkpt lat="46.58541" lon="6.12202">
        <ele>1316</ele>
        <time>2021-08-11T09:07:29Z</time>
      </trkpt>
      <trkpt lat="46.58535" lon="6.12202">
        <ele>1315</ele>
        <time>2021-08-11T09:07:35Z</time>
      </trkpt>
      <trkpt lat="46.58528" lon="6.12197">
        <ele>1315</ele>
        <time>2021-08-11T09:07:42Z</time>
      </trkpt>
      <trkpt lat="46.58522" lon="6.12195">
        <ele>1315</ele>
        <time>2021-08-11T09:07:47Z</time>
      </trkpt>
      <trkpt lat="46.58509" lon="6.12198">
        <ele>1315</ele>
        <time>2021-08-11T09:07:58Z</time>
      </trkpt>
      <trkpt lat="46.58503" lon="6.12197">
        <ele>1316</ele>
        <time>2021-08-11T09:08:04Z</time>
      </trkpt>
      <trkpt lat="46.58497" lon="6.12201">
        <ele>1318</ele>
        <time>2021-08-11T09:08:12Z</time>
      </trkpt>
      <trkpt lat="46.58482" lon="6.12205">
        <ele>1317</ele>
        <time>2021-08-11T09:08:32Z</time>
      </trkpt>
      <trkpt lat="46.58468" lon="6.12191">
        <ele>1317</ele>
        <time>2021-08-11T09:08:51Z</time>
      </trkpt>
      <trkpt lat="46.58461" lon="6.12188">
        <ele>1317</ele>
        <time>2021-08-11T09:08:58Z</time>
      </trkpt>
      <trkpt lat="46.58453" lon="6.12178">
        <ele>1318</ele>
        <time>2021-08-11T09:09:12Z</time>
      </trkpt>
      <trkpt lat="46.5845" lon="6.12169">
        <ele>1318</ele>
        <time>2021-08-11T09:09:20Z</time>
      </trkpt>
      <trkpt lat="46.58445" lon="6.12161">
        <ele>1318</ele>
        <time>2021-08-11T09:09:27Z</time>
      </trkpt>
      <trkpt lat="46.58437" lon="6.12153">
        <ele>1319</ele>
        <time>2021-08-11T09:09:37Z</time>
      </trkpt>
      <trkpt lat="46.58422" lon="6.12147">
        <ele>1322</ele>
        <time>2021-08-11T09:09:55Z</time>
      </trkpt>
      <trkpt lat="46.5841" lon="6.12149">
        <ele>1322</ele>
        <time>2021-08-11T09:10:06Z</time>
      </trkpt>
      <trkpt lat="46.58404" lon="6.12133">
        <ele>1321</ele>
        <time>2021-08-11T09:10:25Z</time>
      </trkpt>
      <trkpt lat="46.58404" lon="6.12123">
        <ele>1320</ele>
        <time>2021-08-11T09:10:39Z</time>
      </trkpt>
      <trkpt lat="46.58395" lon="6.12118">
        <ele>1318</ele>
        <time>2021-08-11T09:10:54Z</time>
      </trkpt>
      <trkpt lat="46.58388" lon="6.12114">
        <ele>1318</ele>
        <time>2021-08-11T09:11:01Z</time>
      </trkpt>
      <trkpt lat="46.58376" lon="6.12109">
        <ele>1318</ele>
        <time>2021-08-11T09:11:17Z</time>
      </trkpt>
      <trkpt lat="46.58369" lon="6.12105">
        <ele>1318</ele>
        <time>2021-08-11T09:11:24Z</time>
      </trkpt>
      <trkpt lat="46.58347" lon="6.12097">
        <ele>1319</ele>
        <time>2021-08-11T09:11:45Z</time>
      </trkpt>
      <trkpt lat="46.58337" lon="6.12093">
        <ele>1318</ele>
        <time>2021-08-11T09:11:54Z</time>
      </trkpt>
      <trkpt lat="46.58329" lon="6.12094">
        <ele>1316</ele>
        <time>2021-08-11T09:12:08Z</time>
      </trkpt>
      <trkpt lat="46.58326" lon="6.12079">
        <ele>1312</ele>
        <time>2021-08-11T09:12:29Z</time>
      </trkpt>
      <trkpt lat="46.5833" lon="6.1207">
        <ele>1313</ele>
        <time>2021-08-11T09:12:36Z</time>
      </trkpt>
      <trkpt lat="46.58334" lon="6.1206">
        <ele>1314</ele>
        <time>2021-08-11T09:12:42Z</time>
      </trkpt>
      <trkpt lat="46.58336" lon="6.12049">
        <ele>1313</ele>
        <time>2021-08-11T09:12:47Z</time>
      </trkpt>
      <trkpt lat="46.58339" lon="6.12032">
        <ele>1312</ele>
        <time>2021-08-11T09:13:00Z</time>
      </trkpt>
      <trkpt lat="46.58342" lon="6.12024">
        <ele>1310</ele>
        <time>2021-08-11T09:13:08Z</time>
      </trkpt>
      <trkpt lat="46.58346" lon="6.12012">
        <ele>1309</ele>
        <time>2021-08-11T09:13:17Z</time>
      </trkpt>
      <trkpt lat="46.58346" lon="6.11994">
        <ele>1307</ele>
        <time>2021-08-11T09:13:28Z</time>
      </trkpt>
      <trkpt lat="46.58344" lon="6.11986">
        <ele>1307</ele>
        <time>2021-08-11T09:13:34Z</time>
      </trkpt>
      <trkpt lat="46.58339" lon="6.11982">
        <ele>1307</ele>
        <time>2021-08-11T09:14:23Z</time>
      </trkpt>
      <trkpt lat="46.58337" lon="6.12011">
        <ele>1310</ele>
        <time>2021-08-11T09:14:43Z</time>
      </trkpt>
      <trkpt lat="46.5833" lon="6.12024">
        <ele>1312</ele>
        <time>2021-08-11T09:14:57Z</time>
      </trkpt>
      <trkpt lat="46.58329" lon="6.12037">
        <ele>1314</ele>
        <time>2021-08-11T09:15:07Z</time>
      </trkpt>
      <trkpt lat="46.58325" lon="6.12049">
        <ele>1315</ele>
        <time>2021-08-11T09:15:17Z</time>
      </trkpt>
      <trkpt lat="46.58319" lon="6.12059">
        <ele>1315</ele>
        <time>2021-08-11T09:15:28Z</time>
      </trkpt>
      <trkpt lat="46.58312" lon="6.12069">
        <ele>1315</ele>
        <time>2021-08-11T09:15:46Z</time>
      </trkpt>
      <trkpt lat="46.58308" lon="6.1208">
        <ele>1315</ele>
        <time>2021-08-11T09:15:55Z</time>
      </trkpt>
      <trkpt lat="46.58306" lon="6.12089">
        <ele>1316</ele>
        <time>2021-08-11T09:16:17Z</time>
      </trkpt>
      <trkpt lat="46.58303" lon="6.12071">
        <ele>1321</ele>
        <time>2021-08-11T09:16:56Z</time>
      </trkpt>
      <trkpt lat="46.58303" lon="6.12045">
        <ele>1323</ele>
        <time>2021-08-11T09:17:47Z</time>
      </trkpt>
      <trkpt lat="46.58283" lon="6.12001">
        <ele>1320</ele>
        <time>2021-08-11T09:18:23Z</time>
      </trkpt>
      <trkpt lat="46.58279" lon="6.11987">
        <ele>1321</ele>
        <time>2021-08-11T09:18:38Z</time>
      </trkpt>
      <trkpt lat="46.5828" lon="6.11975">
        <ele>1324</ele>
        <time>2021-08-11T09:18:51Z</time>
      </trkpt>
      <trkpt lat="46.58272" lon="6.11966">
        <ele>1327</ele>
        <time>2021-08-11T09:19:09Z</time>
      </trkpt>
      <trkpt lat="46.58253" lon="6.11938">
        <ele>1333</ele>
        <time>2021-08-11T09:19:51Z</time>
      </trkpt>
      <trkpt lat="46.5825" lon="6.11928">
        <ele>1333</ele>
        <time>2021-08-11T09:19:58Z</time>
      </trkpt>
      <trkpt lat="46.58245" lon="6.1192">
        <ele>1332</ele>
        <time>2021-08-11T09:20:12Z</time>
      </trkpt>
      <trkpt lat="46.58235" lon="6.11913">
        <ele>1330</ele>
        <time>2021-08-11T09:20:32Z</time>
      </trkpt>
      <trkpt lat="46.58228" lon="6.11904">
        <ele>1331</ele>
        <time>2021-08-11T09:21:06Z</time>
      </trkpt>
      <trkpt lat="46.58215" lon="6.11887">
        <ele>1336</ele>
        <time>2021-08-11T09:21:32Z</time>
      </trkpt>
      <trkpt lat="46.58212" lon="6.11877">
        <ele>1341</ele>
        <time>2021-08-11T09:22:10Z</time>
      </trkpt>
      <trkpt lat="46.58203" lon="6.11849">
        <ele>1344</ele>
        <time>2021-08-11T09:22:47Z</time>
      </trkpt>
      <trkpt lat="46.58191" lon="6.11837">
        <ele>1347</ele>
        <time>2021-08-11T09:23:23Z</time>
      </trkpt>
      <trkpt lat="46.58185" lon="6.11834">
        <ele>1347</ele>
        <time>2021-08-11T09:23:54Z</time>
      </trkpt>
      <trkpt lat="46.58177" lon="6.11828">
        <ele>1348</ele>
        <time>2021-08-11T09:24:49Z</time>
      </trkpt>
      <trkpt lat="46.58168" lon="6.11816">
        <ele>1346</ele>
        <time>2021-08-11T09:25:08Z</time>
      </trkpt>
      <trkpt lat="46.58147" lon="6.11802">
        <ele>1343</ele>
        <time>2021-08-11T09:25:40Z</time>
      </trkpt>
      <trkpt lat="46.5814" lon="6.11797">
        <ele>1343</ele>
        <time>2021-08-11T09:25:45Z</time>
      </trkpt>
      <trkpt lat="46.58131" lon="6.11775">
        <ele>1340</ele>
        <time>2021-08-11T09:26:13Z</time>
      </trkpt>
      <trkpt lat="46.58125" lon="6.11756">
        <ele>1337</ele>
        <time>2021-08-11T09:26:29Z</time>
      </trkpt>
      <trkpt lat="46.58125" lon="6.11745">
        <ele>1339</ele>
        <time>2021-08-11T09:26:41Z</time>
      </trkpt>
      <trkpt lat="46.58124" lon="6.11734">
        <ele>1338</ele>
        <time>2021-08-11T09:26:51Z</time>
      </trkpt>
      <trkpt lat="46.5812" lon="6.11722">
        <ele>1339</ele>
        <time>2021-08-11T09:26:58Z</time>
      </trkpt>
      <trkpt lat="46.58118" lon="6.11699">
        <ele>1340</ele>
        <time>2021-08-11T09:27:15Z</time>
      </trkpt>
      <trkpt lat="46.58114" lon="6.1167">
        <ele>1341</ele>
        <time>2021-08-11T09:27:37Z</time>
      </trkpt>
      <trkpt lat="46.58113" lon="6.1166">
        <ele>1342</ele>
        <time>2021-08-11T09:27:43Z</time>
      </trkpt>
      <trkpt lat="46.58108" lon="6.11635">
        <ele>1341</ele>
        <time>2021-08-11T09:28:01Z</time>
      </trkpt>
      <trkpt lat="46.58107" lon="6.11624">
        <ele>1341</ele>
        <time>2021-08-11T09:28:09Z</time>
      </trkpt>
      <trkpt lat="46.58103" lon="6.11615">
        <ele>1341</ele>
        <time>2021-08-11T09:28:18Z</time>
      </trkpt>
      <trkpt lat="46.58094" lon="6.1161">
        <ele>1337</ele>
        <time>2021-08-11T09:28:42Z</time>
      </trkpt>
      <trkpt lat="46.58085" lon="6.11602">
        <ele>1336</ele>
        <time>2021-08-11T09:29:00Z</time>
      </trkpt>
      <trkpt lat="46.58078" lon="6.11598">
        <ele>1337</ele>
        <time>2021-08-11T09:29:05Z</time>
      </trkpt>
      <trkpt lat="46.5807" lon="6.1159">
        <ele>1337</ele>
        <time>2021-08-11T09:29:14Z</time>
      </trkpt>
      <trkpt lat="46.58054" lon="6.11579">
        <ele>1336</ele>
        <time>2021-08-11T09:29:24Z</time>
      </trkpt>
      <trkpt lat="46.58046" lon="6.11576">
        <ele>1335</ele>
        <time>2021-08-11T09:29:30Z</time>
      </trkpt>
      <trkpt lat="46.58035" lon="6.11562">
        <ele>1335</ele>
        <time>2021-08-11T09:29:41Z</time>
      </trkpt>
      <trkpt lat="46.58028" lon="6.11558">
        <ele>1335</ele>
        <time>2021-08-11T09:29:48Z</time>
      </trkpt>
      <trkpt lat="46.58023" lon="6.11542">
        <ele>1334</ele>
        <time>2021-08-11T09:30:02Z</time>
      </trkpt>
      <trkpt lat="46.58018" lon="6.11522">
        <ele>1333</ele>
        <time>2021-08-11T09:30:17Z</time>
      </trkpt>
      <trkpt lat="46.58018" lon="6.1151">
        <ele>1332</ele>
        <time>2021-08-11T09:30:24Z</time>
      </trkpt>
      <trkpt lat="46.58018" lon="6.11491">
        <ele>1330</ele>
        <time>2021-08-11T09:30:40Z</time>
      </trkpt>
      <trkpt lat="46.58021" lon="6.11476">
        <ele>1327</ele>
        <time>2021-08-11T09:30:58Z</time>
      </trkpt>
      <trkpt lat="46.58015" lon="6.11453">
        <ele>1324</ele>
        <time>2021-08-11T09:31:15Z</time>
      </trkpt>
      <trkpt lat="46.58011" lon="6.11447">
        <ele>1323</ele>
        <time>2021-08-11T09:31:20Z</time>
      </trkpt>
      <trkpt lat="46.58005" lon="6.1144">
        <ele>1322</ele>
        <time>2021-08-11T09:31:28Z</time>
      </trkpt>
      <trkpt lat="46.57998" lon="6.11434">
        <ele>1321</ele>
        <time>2021-08-11T09:31:36Z</time>
      </trkpt>
      <trkpt lat="46.5799" lon="6.11432">
        <ele>1320</ele>
        <time>2021-08-11T09:31:42Z</time>
      </trkpt>
      <trkpt lat="46.57983" lon="6.1143">
        <ele>1321</ele>
        <time>2021-08-11T09:31:47Z</time>
      </trkpt>
      <trkpt lat="46.57973" lon="6.11429">
        <ele>1320</ele>
        <time>2021-08-11T09:31:58Z</time>
      </trkpt>
      <trkpt lat="46.57967" lon="6.11423">
        <ele>1319</ele>
        <time>2021-08-11T09:32:03Z</time>
      </trkpt>
      <trkpt lat="46.57957" lon="6.11419">
        <ele>1318</ele>
        <time>2021-08-11T09:32:14Z</time>
      </trkpt>
      <trkpt lat="46.57954" lon="6.11413">
        <ele>1318</ele>
        <time>2021-08-11T09:32:20Z</time>
      </trkpt>
      <trkpt lat="46.5795" lon="6.11398">
        <ele>1317</ele>
        <time>2021-08-11T09:32:34Z</time>
      </trkpt>
      <trkpt lat="46.57948" lon="6.11388">
        <ele>1317</ele>
        <time>2021-08-11T09:32:46Z</time>
      </trkpt>
      <trkpt lat="46.57931" lon="6.11344">
        <ele>1312</ele>
        <time>2021-08-11T09:33:28Z</time>
      </trkpt>
      <trkpt lat="46.57926" lon="6.11335">
        <ele>1311</ele>
        <time>2021-08-11T09:33:35Z</time>
      </trkpt>
      <trkpt lat="46.57922" lon="6.11326">
        <ele>1311</ele>
        <time>2021-08-11T09:33:42Z</time>
      </trkpt>
      <trkpt lat="46.57919" lon="6.11314">
        <ele>1311</ele>
        <time>2021-08-11T09:33:55Z</time>
      </trkpt>
      <trkpt lat="46.57917" lon="6.11298">
        <ele>1311</ele>
        <time>2021-08-11T09:34:09Z</time>
      </trkpt>
      <trkpt lat="46.57924" lon="6.11288">
        <ele>1311</ele>
        <time>2021-08-11T09:34:27Z</time>
      </trkpt>
      <trkpt lat="46.5793" lon="6.11284">
        <ele>1311</ele>
        <time>2021-08-11T09:34:55Z</time>
      </trkpt>
      <trkpt lat="46.57935" lon="6.11278">
        <ele>1312</ele>
        <time>2021-08-11T09:35:11Z</time>
      </trkpt>
      <trkpt lat="46.5793" lon="6.11273">
        <ele>1309</ele>
        <time>2021-08-11T09:37:28Z</time>
      </trkpt>
      <trkpt lat="46.57925" lon="6.11288">
        <ele>1310</ele>
        <time>2021-08-11T09:37:48Z</time>
      </trkpt>
      <trkpt lat="46.5792" lon="6.11293">
        <ele>1309</ele>
        <time>2021-08-11T09:37:56Z</time>
      </trkpt>
      <trkpt lat="46.57912" lon="6.1131">
        <ele>1309</ele>
        <time>2021-08-11T09:38:12Z</time>
      </trkpt>
      <trkpt lat="46.57907" lon="6.11318">
        <ele>1309</ele>
        <time>2021-08-11T09:38:19Z</time>
      </trkpt>
      <trkpt lat="46.579" lon="6.11323">
        <ele>1308</ele>
        <time>2021-08-11T09:38:26Z</time>
      </trkpt>
      <trkpt lat="46.57893" lon="6.11323">
        <ele>1307</ele>
        <time>2021-08-11T09:38:36Z</time>
      </trkpt>
      <trkpt lat="46.57886" lon="6.11315">
        <ele>1307</ele>
        <time>2021-08-11T09:38:48Z</time>
      </trkpt>
      <trkpt lat="46.57879" lon="6.11304">
        <ele>1307</ele>
        <time>2021-08-11T09:39:30Z</time>
      </trkpt>
      <trkpt lat="46.57871" lon="6.11301">
        <ele>1307</ele>
        <time>2021-08-11T09:39:49Z</time>
      </trkpt>
      <trkpt lat="46.57861" lon="6.11297">
        <ele>1308</ele>
        <time>2021-08-11T09:40:05Z</time>
      </trkpt>
      <trkpt lat="46.57851" lon="6.1128">
        <ele>1310</ele>
        <time>2021-08-11T09:40:21Z</time>
      </trkpt>
      <trkpt lat="46.57844" lon="6.11261">
        <ele>1310</ele>
        <time>2021-08-11T09:40:34Z</time>
      </trkpt>
      <trkpt lat="46.57836" lon="6.11253">
        <ele>1310</ele>
        <time>2021-08-11T09:40:50Z</time>
      </trkpt>
      <trkpt lat="46.5783" lon="6.11245">
        <ele>1310</ele>
        <time>2021-08-11T09:41:02Z</time>
      </trkpt>
      <trkpt lat="46.57823" lon="6.11238">
        <ele>1310</ele>
        <time>2021-08-11T09:41:09Z</time>
      </trkpt>
      <trkpt lat="46.57818" lon="6.11226">
        <ele>1311</ele>
        <time>2021-08-11T09:41:17Z</time>
      </trkpt>
      <trkpt lat="46.57803" lon="6.11194">
        <ele>1310</ele>
        <time>2021-08-11T09:41:40Z</time>
      </trkpt>
      <trkpt lat="46.57802" lon="6.11184">
        <ele>1310</ele>
        <time>2021-08-11T09:41:47Z</time>
      </trkpt>
      <trkpt lat="46.57796" lon="6.11173">
        <ele>1310</ele>
        <time>2021-08-11T09:41:56Z</time>
      </trkpt>
      <trkpt lat="46.57785" lon="6.11157">
        <ele>1309</ele>
        <time>2021-08-11T09:42:12Z</time>
      </trkpt>
      <trkpt lat="46.57777" lon="6.11147">
        <ele>1310</ele>
        <time>2021-08-11T09:42:27Z</time>
      </trkpt>
      <trkpt lat="46.57762" lon="6.11141">
        <ele>1309</ele>
        <time>2021-08-11T09:42:42Z</time>
      </trkpt>
      <trkpt lat="46.57754" lon="6.11139">
        <ele>1308</ele>
        <time>2021-08-11T09:42:51Z</time>
      </trkpt>
      <trkpt lat="46.57747" lon="6.11135">
        <ele>1306</ele>
        <time>2021-08-11T09:42:58Z</time>
      </trkpt>
      <trkpt lat="46.57739" lon="6.11131">
        <ele>1306</ele>
        <time>2021-08-11T09:43:07Z</time>
      </trkpt>
      <trkpt lat="46.5773" lon="6.11128">
        <ele>1306</ele>
        <time>2021-08-11T09:43:16Z</time>
      </trkpt>
      <trkpt lat="46.57722" lon="6.11124">
        <ele>1304</ele>
        <time>2021-08-11T09:43:30Z</time>
      </trkpt>
      <trkpt lat="46.57713" lon="6.11102">
        <ele>1302</ele>
        <time>2021-08-11T09:43:40Z</time>
      </trkpt>
      <trkpt lat="46.57704" lon="6.11087">
        <ele>1301</ele>
        <time>2021-08-11T09:43:49Z</time>
      </trkpt>
      <trkpt lat="46.57694" lon="6.11076">
        <ele>1301</ele>
        <time>2021-08-11T09:44:03Z</time>
      </trkpt>
      <trkpt lat="46.57686" lon="6.11075">
        <ele>1302</ele>
        <time>2021-08-11T09:44:17Z</time>
      </trkpt>
      <trkpt lat="46.5768" lon="6.11079">
        <ele>1303</ele>
        <time>2021-08-11T09:44:25Z</time>
      </trkpt>
      <trkpt lat="46.57669" lon="6.11081">
        <ele>1305</ele>
        <time>2021-08-11T09:44:41Z</time>
      </trkpt>
      <trkpt lat="46.57663" lon="6.11072">
        <ele>1306</ele>
        <time>2021-08-11T09:44:55Z</time>
      </trkpt>
      <trkpt lat="46.57662" lon="6.1106">
        <ele>1306</ele>
        <time>2021-08-11T09:45:25Z</time>
      </trkpt>
      <trkpt lat="46.57656" lon="6.11054">
        <ele>1305</ele>
        <time>2021-08-11T09:45:55Z</time>
      </trkpt>
      <trkpt lat="46.57651" lon="6.11048">
        <ele>1304</ele>
        <time>2021-08-11T09:46:25Z</time>
      </trkpt>
      <trkpt lat="46.5763" lon="6.11042">
        <ele>1303</ele>
        <time>2021-08-11T09:46:45Z</time>
      </trkpt>
      <trkpt lat="46.57626" lon="6.11031">
        <ele>1301</ele>
        <time>2021-08-11T09:47:00Z</time>
      </trkpt>
      <trkpt lat="46.57625" lon="6.11023">
        <ele>1300</ele>
        <time>2021-08-11T09:47:06Z</time>
      </trkpt>
      <trkpt lat="46.57622" lon="6.11014">
        <ele>1298</ele>
        <time>2021-08-11T09:47:20Z</time>
      </trkpt>
      <trkpt lat="46.57614" lon="6.11008">
        <ele>1294</ele>
        <time>2021-08-11T09:47:56Z</time>
      </trkpt>
      <trkpt lat="46.57611" lon="6.11001">
        <ele>1292</ele>
        <time>2021-08-11T09:48:08Z</time>
      </trkpt>
      <trkpt lat="46.57606" lon="6.10998">
        <ele>1292</ele>
        <time>2021-08-11T09:48:13Z</time>
      </trkpt>
      <trkpt lat="46.576" lon="6.10987">
        <ele>1292</ele>
        <time>2021-08-11T09:48:23Z</time>
      </trkpt>
      <trkpt lat="46.57595" lon="6.10978">
        <ele>1291</ele>
        <time>2021-08-11T09:48:45Z</time>
      </trkpt>
      <trkpt lat="46.57579" lon="6.10963">
        <ele>1292</ele>
        <time>2021-08-11T09:49:07Z</time>
      </trkpt>
      <trkpt lat="46.57571" lon="6.10963">
        <ele>1293</ele>
        <time>2021-08-11T09:49:15Z</time>
      </trkpt>
      <trkpt lat="46.57563" lon="6.1096">
        <ele>1294</ele>
        <time>2021-08-11T09:49:23Z</time>
      </trkpt>
      <trkpt lat="46.57552" lon="6.10946">
        <ele>1292</ele>
        <time>2021-08-11T09:49:47Z</time>
      </trkpt>
      <trkpt lat="46.5755" lon="6.10936">
        <ele>1293</ele>
        <time>2021-08-11T09:49:54Z</time>
      </trkpt>
      <trkpt lat="46.57543" lon="6.10921">
        <ele>1293</ele>
        <time>2021-08-11T09:50:08Z</time>
      </trkpt>
      <trkpt lat="46.57536" lon="6.10916">
        <ele>1293</ele>
        <time>2021-08-11T09:50:14Z</time>
      </trkpt>
      <trkpt lat="46.57529" lon="6.10916">
        <ele>1293</ele>
        <time>2021-08-11T09:50:20Z</time>
      </trkpt>
      <trkpt lat="46.57522" lon="6.10911">
        <ele>1293</ele>
        <time>2021-08-11T09:50:27Z</time>
      </trkpt>
      <trkpt lat="46.57511" lon="6.10895">
        <ele>1292</ele>
        <time>2021-08-11T09:50:42Z</time>
      </trkpt>
      <trkpt lat="46.57508" lon="6.10881">
        <ele>1291</ele>
        <time>2021-08-11T09:50:52Z</time>
      </trkpt>
      <trkpt lat="46.57502" lon="6.10875">
        <ele>1290</ele>
        <time>2021-08-11T09:50:59Z</time>
      </trkpt>
      <trkpt lat="46.57493" lon="6.10875">
        <ele>1289</ele>
        <time>2021-08-11T09:51:08Z</time>
      </trkpt>
      <trkpt lat="46.57484" lon="6.10873">
        <ele>1290</ele>
        <time>2021-08-11T09:51:22Z</time>
      </trkpt>
      <trkpt lat="46.57478" lon="6.10864">
        <ele>1290</ele>
        <time>2021-08-11T09:51:29Z</time>
      </trkpt>
      <trkpt lat="46.57473" lon="6.10858">
        <ele>1291</ele>
        <time>2021-08-11T09:51:40Z</time>
      </trkpt>
      <trkpt lat="46.57458" lon="6.10852">
        <ele>1289</ele>
        <time>2021-08-11T09:51:54Z</time>
      </trkpt>
      <trkpt lat="46.57451" lon="6.10842">
        <ele>1289</ele>
        <time>2021-08-11T09:52:04Z</time>
      </trkpt>
      <trkpt lat="46.57447" lon="6.10833">
        <ele>1290</ele>
        <time>2021-08-11T09:52:13Z</time>
      </trkpt>
      <trkpt lat="46.57441" lon="6.10821">
        <ele>1290</ele>
        <time>2021-08-11T09:52:21Z</time>
      </trkpt>
      <trkpt lat="46.57434" lon="6.10816">
        <ele>1289</ele>
        <time>2021-08-11T09:52:34Z</time>
      </trkpt>
      <trkpt lat="46.5743" lon="6.10807">
        <ele>1285</ele>
        <time>2021-08-11T09:52:52Z</time>
      </trkpt>
      <trkpt lat="46.5742" lon="6.10804">
        <ele>1283</ele>
        <time>2021-08-11T09:53:05Z</time>
      </trkpt>
      <trkpt lat="46.57415" lon="6.10795">
        <ele>1282</ele>
        <time>2021-08-11T09:53:13Z</time>
      </trkpt>
      <trkpt lat="46.57407" lon="6.10789">
        <ele>1280</ele>
        <time>2021-08-11T09:53:30Z</time>
      </trkpt>
      <trkpt lat="46.57401" lon="6.10788">
        <ele>1280</ele>
        <time>2021-08-11T09:53:36Z</time>
      </trkpt>
      <trkpt lat="46.57393" lon="6.10794">
        <ele>1280</ele>
        <time>2021-08-11T09:53:46Z</time>
      </trkpt>
      <trkpt lat="46.57384" lon="6.1079">
        <ele>1279</ele>
        <time>2021-08-11T09:53:55Z</time>
      </trkpt>
      <trkpt lat="46.57365" lon="6.1077">
        <ele>1278</ele>
        <time>2021-08-11T09:54:30Z</time>
      </trkpt>
      <trkpt lat="46.57348" lon="6.1078">
        <ele>1278</ele>
        <time>2021-08-11T09:54:56Z</time>
      </trkpt>
      <trkpt lat="46.5733" lon="6.10779">
        <ele>1277</ele>
        <time>2021-08-11T09:55:34Z</time>
      </trkpt>
      <trkpt lat="46.5732" lon="6.10793">
        <ele>1275</ele>
        <time>2021-08-11T09:55:46Z</time>
      </trkpt>
      <trkpt lat="46.57281" lon="6.10827">
        <ele>1274</ele>
        <time>2021-08-11T09:56:19Z</time>
      </trkpt>
      <trkpt lat="46.57273" lon="6.10845">
        <ele>1273</ele>
        <time>2021-08-11T09:56:31Z</time>
      </trkpt>
      <trkpt lat="46.57269" lon="6.10862">
        <ele>1272</ele>
        <time>2021-08-11T09:56:44Z</time>
      </trkpt>
      <trkpt lat="46.57258" lon="6.10874">
        <ele>1271</ele>
        <time>2021-08-11T09:56:52Z</time>
      </trkpt>
      <trkpt lat="46.57254" lon="6.1088">
        <ele>1271</ele>
        <time>2021-08-11T09:56:57Z</time>
      </trkpt>
      <trkpt lat="46.57242" lon="6.10905">
        <ele>1269</ele>
        <time>2021-08-11T09:57:19Z</time>
      </trkpt>
      <trkpt lat="46.5723" lon="6.10951">
        <ele>1266</ele>
        <time>2021-08-11T09:57:51Z</time>
      </trkpt>
      <trkpt lat="46.57221" lon="6.10972">
        <ele>1265</ele>
        <time>2021-08-11T09:58:06Z</time>
      </trkpt>
      <trkpt lat="46.5722" lon="6.1098">
        <ele>1265</ele>
        <time>2021-08-11T09:58:10Z</time>
      </trkpt>
      <trkpt lat="46.57215" lon="6.10988">
        <ele>1265</ele>
        <time>2021-08-11T09:58:18Z</time>
      </trkpt>
      <trkpt lat="46.57201" lon="6.11003">
        <ele>1264</ele>
        <time>2021-08-11T09:58:34Z</time>
      </trkpt>
      <trkpt lat="46.57194" lon="6.1102">
        <ele>1266</ele>
        <time>2021-08-11T09:58:48Z</time>
      </trkpt>
      <trkpt lat="46.57189" lon="6.11027">
        <ele>1266</ele>
        <time>2021-08-11T09:58:56Z</time>
      </trkpt>
      <trkpt lat="46.57182" lon="6.11037">
        <ele>1268</ele>
        <time>2021-08-11T09:59:05Z</time>
      </trkpt>
      <trkpt lat="46.57177" lon="6.11044">
        <ele>1268</ele>
        <time>2021-08-11T09:59:11Z</time>
      </trkpt>
      <trkpt lat="46.57171" lon="6.11053">
        <ele>1269</ele>
        <time>2021-08-11T09:59:17Z</time>
      </trkpt>
      <trkpt lat="46.57165" lon="6.11058">
        <ele>1269</ele>
        <time>2021-08-11T09:59:23Z</time>
      </trkpt>
      <trkpt lat="46.57141" lon="6.11052">
        <ele>1270</ele>
        <time>2021-08-11T09:59:42Z</time>
      </trkpt>
      <trkpt lat="46.57128" lon="6.11039">
        <ele>1272</ele>
        <time>2021-08-11T09:59:55Z</time>
      </trkpt>
      <trkpt lat="46.57121" lon="6.11041">
        <ele>1273</ele>
        <time>2021-08-11T10:00:03Z</time>
      </trkpt>
      <trkpt lat="46.57114" lon="6.11046">
        <ele>1274</ele>
        <time>2021-08-11T10:00:10Z</time>
      </trkpt>
      <trkpt lat="46.5711" lon="6.11054">
        <ele>1274</ele>
        <time>2021-08-11T10:00:15Z</time>
      </trkpt>
      <trkpt lat="46.5711" lon="6.11062">
        <ele>1274</ele>
        <time>2021-08-11T10:00:21Z</time>
      </trkpt>
      <trkpt lat="46.57107" lon="6.11071">
        <ele>1274</ele>
        <time>2021-08-11T10:00:26Z</time>
      </trkpt>
      <trkpt lat="46.57106" lon="6.11079">
        <ele>1274</ele>
        <time>2021-08-11T10:00:31Z</time>
      </trkpt>
      <trkpt lat="46.57104" lon="6.11087">
        <ele>1274</ele>
        <time>2021-08-11T10:00:36Z</time>
      </trkpt>
      <trkpt lat="46.57097" lon="6.11106">
        <ele>1273</ele>
        <time>2021-08-11T10:00:50Z</time>
      </trkpt>
      <trkpt lat="46.5708" lon="6.11114">
        <ele>1272</ele>
        <time>2021-08-11T10:01:05Z</time>
      </trkpt>
      <trkpt lat="46.57072" lon="6.11114">
        <ele>1271</ele>
        <time>2021-08-11T10:01:12Z</time>
      </trkpt>
      <trkpt lat="46.57064" lon="6.11117">
        <ele>1270</ele>
        <time>2021-08-11T10:01:19Z</time>
      </trkpt>
      <trkpt lat="46.57059" lon="6.11126">
        <ele>1269</ele>
        <time>2021-08-11T10:01:24Z</time>
      </trkpt>
      <trkpt lat="46.57038" lon="6.11176">
        <ele>1266</ele>
        <time>2021-08-11T10:01:57Z</time>
      </trkpt>
      <trkpt lat="46.57033" lon="6.11194">
        <ele>1263</ele>
        <time>2021-08-11T10:02:10Z</time>
      </trkpt>
      <trkpt lat="46.57017" lon="6.11224">
        <ele>1258</ele>
        <time>2021-08-11T10:02:33Z</time>
      </trkpt>
      <trkpt lat="46.57011" lon="6.11228">
        <ele>1257</ele>
        <time>2021-08-11T10:02:40Z</time>
      </trkpt>
      <trkpt lat="46.57" lon="6.11249">
        <ele>1254</ele>
        <time>2021-08-11T10:02:54Z</time>
      </trkpt>
      <trkpt lat="46.56992" lon="6.11267">
        <ele>1253</ele>
        <time>2021-08-11T10:03:05Z</time>
      </trkpt>
      <trkpt lat="46.56982" lon="6.11284">
        <ele>1252</ele>
        <time>2021-08-11T10:03:19Z</time>
      </trkpt>
      <trkpt lat="46.56975" lon="6.11305">
        <ele>1251</ele>
        <time>2021-08-11T10:03:32Z</time>
      </trkpt>
      <trkpt lat="46.56974" lon="6.11317">
        <ele>1251</ele>
        <time>2021-08-11T10:03:37Z</time>
      </trkpt>
      <trkpt lat="46.56967" lon="6.11341">
        <ele>1249</ele>
        <time>2021-08-11T10:03:53Z</time>
      </trkpt>
      <trkpt lat="46.56965" lon="6.11355">
        <ele>1248</ele>
        <time>2021-08-11T10:04:00Z</time>
      </trkpt>
      <trkpt lat="46.56962" lon="6.11361">
        <ele>1248</ele>
        <time>2021-08-11T10:04:04Z</time>
      </trkpt>
      <trkpt lat="46.56957" lon="6.11364">
        <ele>1248</ele>
        <time>2021-08-11T10:04:09Z</time>
      </trkpt>
      <trkpt lat="46.56953" lon="6.11371">
        <ele>1248</ele>
        <time>2021-08-11T10:04:14Z</time>
      </trkpt>
      <trkpt lat="46.5695" lon="6.11378">
        <ele>1248</ele>
        <time>2021-08-11T10:04:18Z</time>
      </trkpt>
      <trkpt lat="46.56944" lon="6.11395">
        <ele>1247</ele>
        <time>2021-08-11T10:04:29Z</time>
      </trkpt>
      <trkpt lat="46.5694" lon="6.11412">
        <ele>1246</ele>
        <time>2021-08-11T10:04:39Z</time>
      </trkpt>
      <trkpt lat="46.56932" lon="6.11433">
        <ele>1246</ele>
        <time>2021-08-11T10:04:51Z</time>
      </trkpt>
      <trkpt lat="46.5693" lon="6.11443">
        <ele>1246</ele>
        <time>2021-08-11T10:04:57Z</time>
      </trkpt>
      <trkpt lat="46.5692" lon="6.11464">
        <ele>1244</ele>
        <time>2021-08-11T10:05:12Z</time>
      </trkpt>
      <trkpt lat="46.56918" lon="6.11472">
        <ele>1243</ele>
        <time>2021-08-11T10:05:17Z</time>
      </trkpt>
      <trkpt lat="46.56911" lon="6.11479">
        <ele>1243</ele>
        <time>2021-08-11T10:05:24Z</time>
      </trkpt>
      <trkpt lat="46.56901" lon="6.11517">
        <ele>1240</ele>
        <time>2021-08-11T10:05:49Z</time>
      </trkpt>
      <trkpt lat="46.56896" lon="6.11567">
        <ele>1238</ele>
        <time>2021-08-11T10:06:17Z</time>
      </trkpt>
      <trkpt lat="46.56895" lon="6.11575">
        <ele>1238</ele>
        <time>2021-08-11T10:06:22Z</time>
      </trkpt>
      <trkpt lat="46.56891" lon="6.11592">
        <ele>1238</ele>
        <time>2021-08-11T10:06:32Z</time>
      </trkpt>
      <trkpt lat="46.56872" lon="6.11625">
        <ele>1237</ele>
        <time>2021-08-11T10:06:58Z</time>
      </trkpt>
      <trkpt lat="46.56863" lon="6.1164">
        <ele>1239</ele>
        <time>2021-08-11T10:07:07Z</time>
      </trkpt>
      <trkpt lat="46.56859" lon="6.11647">
        <ele>1238</ele>
        <time>2021-08-11T10:07:12Z</time>
      </trkpt>
      <trkpt lat="46.56855" lon="6.11651">
        <ele>1237</ele>
        <time>2021-08-11T10:07:17Z</time>
      </trkpt>
      <trkpt lat="46.56851" lon="6.1167">
        <ele>1235</ele>
        <time>2021-08-11T10:07:35Z</time>
      </trkpt>
      <trkpt lat="46.56846" lon="6.11677">
        <ele>1235</ele>
        <time>2021-08-11T10:07:40Z</time>
      </trkpt>
      <trkpt lat="46.56839" lon="6.11695">
        <ele>1235</ele>
        <time>2021-08-11T10:07:54Z</time>
      </trkpt>
      <trkpt lat="46.56834" lon="6.117">
        <ele>1234</ele>
        <time>2021-08-11T10:07:58Z</time>
      </trkpt>
      <trkpt lat="46.56815" lon="6.1171">
        <ele>1233</ele>
        <time>2021-08-11T10:08:11Z</time>
      </trkpt>
      <trkpt lat="46.5681" lon="6.11713">
        <ele>1233</ele>
        <time>2021-08-11T10:08:14Z</time>
      </trkpt>
      <trkpt lat="46.56804" lon="6.11718">
        <ele>1233</ele>
        <time>2021-08-11T10:08:18Z</time>
      </trkpt>
      <trkpt lat="46.568" lon="6.11723">
        <ele>1232</ele>
        <time>2021-08-11T10:08:23Z</time>
      </trkpt>
      <trkpt lat="46.56795" lon="6.11726">
        <ele>1232</ele>
        <time>2021-08-11T10:08:27Z</time>
      </trkpt>
      <trkpt lat="46.56769" lon="6.11754">
        <ele>1230</ele>
        <time>2021-08-11T10:08:51Z</time>
      </trkpt>
      <trkpt lat="46.56763" lon="6.11761">
        <ele>1230</ele>
        <time>2021-08-11T10:08:56Z</time>
      </trkpt>
      <trkpt lat="46.56738" lon="6.11785">
        <ele>1233</ele>
        <time>2021-08-11T10:09:18Z</time>
      </trkpt>
      <trkpt lat="46.56732" lon="6.11798">
        <ele>1234</ele>
        <time>2021-08-11T10:09:26Z</time>
      </trkpt>
      <trkpt lat="46.56721" lon="6.11813">
        <ele>1235</ele>
        <time>2021-08-11T10:09:40Z</time>
      </trkpt>
      <trkpt lat="46.56714" lon="6.11823">
        <ele>1234</ele>
        <time>2021-08-11T10:10:05Z</time>
      </trkpt>
      <trkpt lat="46.56707" lon="6.11833">
        <ele>1234</ele>
        <time>2021-08-11T10:10:17Z</time>
      </trkpt>
      <trkpt lat="46.56698" lon="6.11829">
        <ele>1233</ele>
        <time>2021-08-11T10:10:30Z</time>
      </trkpt>
      <trkpt lat="46.56683" lon="6.11833">
        <ele>1232</ele>
        <time>2021-08-11T10:10:44Z</time>
      </trkpt>
      <trkpt lat="46.56678" lon="6.11838">
        <ele>1232</ele>
        <time>2021-08-11T10:10:49Z</time>
      </trkpt>
      <trkpt lat="46.56672" lon="6.11844">
        <ele>1232</ele>
        <time>2021-08-11T10:10:54Z</time>
      </trkpt>
      <trkpt lat="46.56664" lon="6.11848">
        <ele>1232</ele>
        <time>2021-08-11T10:10:59Z</time>
      </trkpt>
      <trkpt lat="46.56658" lon="6.11848">
        <ele>1232</ele>
        <time>2021-08-11T10:11:05Z</time>
      </trkpt>
      <trkpt lat="46.56652" lon="6.11852">
        <ele>1233</ele>
        <time>2021-08-11T10:11:10Z</time>
      </trkpt>
      <trkpt lat="46.56646" lon="6.11856">
        <ele>1233</ele>
        <time>2021-08-11T10:11:15Z</time>
      </trkpt>
      <trkpt lat="46.5664" lon="6.11857">
        <ele>1233</ele>
        <time>2021-08-11T10:11:20Z</time>
      </trkpt>
      <trkpt lat="46.56629" lon="6.11861">
        <ele>1235</ele>
        <time>2021-08-11T10:11:33Z</time>
      </trkpt>
      <trkpt lat="46.56617" lon="6.11864">
        <ele>1236</ele>
        <time>2021-08-11T10:11:47Z</time>
      </trkpt>
      <trkpt lat="46.56608" lon="6.11862">
        <ele>1236</ele>
        <time>2021-08-11T10:12:01Z</time>
      </trkpt>
      <trkpt lat="46.56597" lon="6.11862">
        <ele>1234</ele>
        <time>2021-08-11T10:12:15Z</time>
      </trkpt>
      <trkpt lat="46.56588" lon="6.11864">
        <ele>1235</ele>
        <time>2021-08-11T10:12:23Z</time>
      </trkpt>
      <trkpt lat="46.56581" lon="6.11867">
        <ele>1236</ele>
        <time>2021-08-11T10:12:36Z</time>
      </trkpt>
      <trkpt lat="46.56575" lon="6.11874">
        <ele>1236</ele>
        <time>2021-08-11T10:12:45Z</time>
      </trkpt>
      <trkpt lat="46.56563" lon="6.11884">
        <ele>1238</ele>
        <time>2021-08-11T10:13:02Z</time>
      </trkpt>
      <trkpt lat="46.56556" lon="6.11887">
        <ele>1238</ele>
        <time>2021-08-11T10:13:06Z</time>
      </trkpt>
      <trkpt lat="46.56552" lon="6.11892">
        <ele>1240</ele>
        <time>2021-08-11T10:13:17Z</time>
      </trkpt>
      <trkpt lat="46.56547" lon="6.11898">
        <ele>1241</ele>
        <time>2021-08-11T10:13:24Z</time>
      </trkpt>
      <trkpt lat="46.56543" lon="6.11911">
        <ele>1242</ele>
        <time>2021-08-11T10:13:37Z</time>
      </trkpt>
      <trkpt lat="46.56533" lon="6.11932">
        <ele>1245</ele>
        <time>2021-08-11T10:13:59Z</time>
      </trkpt>
      <trkpt lat="46.56525" lon="6.1194">
        <ele>1246</ele>
        <time>2021-08-11T10:14:13Z</time>
      </trkpt>
      <trkpt lat="46.56519" lon="6.11939">
        <ele>1245</ele>
        <time>2021-08-11T10:14:25Z</time>
      </trkpt>
      <trkpt lat="46.56508" lon="6.11944">
        <ele>1245</ele>
        <time>2021-08-11T10:14:38Z</time>
      </trkpt>
      <trkpt lat="46.565" lon="6.11952">
        <ele>1244</ele>
        <time>2021-08-11T10:14:49Z</time>
      </trkpt>
      <trkpt lat="46.56487" lon="6.11964">
        <ele>1244</ele>
        <time>2021-08-11T10:15:07Z</time>
      </trkpt>
      <trkpt lat="46.5648" lon="6.11969">
        <ele>1244</ele>
        <time>2021-08-11T10:15:13Z</time>
      </trkpt>
      <trkpt lat="46.56477" lon="6.11975">
        <ele>1245</ele>
        <time>2021-08-11T10:15:18Z</time>
      </trkpt>
      <trkpt lat="46.56476" lon="6.11985">
        <ele>1246</ele>
        <time>2021-08-11T10:15:26Z</time>
      </trkpt>
      <trkpt lat="46.56472" lon="6.11991">
        <ele>1247</ele>
        <time>2021-08-11T10:15:34Z</time>
      </trkpt>
      <trkpt lat="46.56464" lon="6.11994">
        <ele>1248</ele>
        <time>2021-08-11T10:15:41Z</time>
      </trkpt>
      <trkpt lat="46.56459" lon="6.11998">
        <ele>1248</ele>
        <time>2021-08-11T10:15:47Z</time>
      </trkpt>
      <trkpt lat="46.5644" lon="6.12015">
        <ele>1248</ele>
        <time>2021-08-11T10:16:13Z</time>
      </trkpt>
      <trkpt lat="46.56435" lon="6.12019">
        <ele>1247</ele>
        <time>2021-08-11T10:16:19Z</time>
      </trkpt>
      <trkpt lat="46.56426" lon="6.12019">
        <ele>1245</ele>
        <time>2021-08-11T10:16:30Z</time>
      </trkpt>
      <trkpt lat="46.56417" lon="6.12026">
        <ele>1244</ele>
        <time>2021-08-11T10:17:01Z</time>
      </trkpt>
      <trkpt lat="46.56411" lon="6.12028">
        <ele>1243</ele>
        <time>2021-08-11T10:17:08Z</time>
      </trkpt>
      <trkpt lat="46.56402" lon="6.12036">
        <ele>1242</ele>
        <time>2021-08-11T10:17:20Z</time>
      </trkpt>
      <trkpt lat="46.56395" lon="6.12039">
        <ele>1242</ele>
        <time>2021-08-11T10:17:24Z</time>
      </trkpt>
      <trkpt lat="46.56391" lon="6.12044">
        <ele>1241</ele>
        <time>2021-08-11T10:17:29Z</time>
      </trkpt>
      <trkpt lat="46.56385" lon="6.12053">
        <ele>1241</ele>
        <time>2021-08-11T10:17:40Z</time>
      </trkpt>
      <trkpt lat="46.56379" lon="6.12055">
        <ele>1240</ele>
        <time>2021-08-11T10:17:47Z</time>
      </trkpt>
      <trkpt lat="46.56375" lon="6.1206">
        <ele>1240</ele>
        <time>2021-08-11T10:17:52Z</time>
      </trkpt>
      <trkpt lat="46.56372" lon="6.12068">
        <ele>1240</ele>
        <time>2021-08-11T10:17:58Z</time>
      </trkpt>
      <trkpt lat="46.56365" lon="6.12074">
        <ele>1239</ele>
        <time>2021-08-11T10:18:06Z</time>
      </trkpt>
      <trkpt lat="46.56356" lon="6.12076">
        <ele>1238</ele>
        <time>2021-08-11T10:18:19Z</time>
      </trkpt>
      <trkpt lat="46.56335" lon="6.12096">
        <ele>1233</ele>
        <time>2021-08-11T10:18:50Z</time>
      </trkpt>
      <trkpt lat="46.56331" lon="6.12102">
        <ele>1232</ele>
        <time>2021-08-11T10:18:55Z</time>
      </trkpt>
      <trkpt lat="46.5633" lon="6.12114">
        <ele>1231</ele>
        <time>2021-08-11T10:19:04Z</time>
      </trkpt>
      <trkpt lat="46.5633" lon="6.12122">
        <ele>1231</ele>
        <time>2021-08-11T10:19:08Z</time>
      </trkpt>
      <trkpt lat="46.56334" lon="6.12138">
        <ele>1233</ele>
        <time>2021-08-11T10:19:18Z</time>
      </trkpt>
      <trkpt lat="46.56331" lon="6.12147">
        <ele>1235</ele>
        <time>2021-08-11T10:19:28Z</time>
      </trkpt>
      <trkpt lat="46.56331" lon="6.12156">
        <ele>1235</ele>
        <time>2021-08-11T10:19:36Z</time>
      </trkpt>
      <trkpt lat="46.56329" lon="6.12167">
        <ele>1235</ele>
        <time>2021-08-11T10:19:48Z</time>
      </trkpt>
      <trkpt lat="46.56328" lon="6.12177">
        <ele>1235</ele>
        <time>2021-08-11T10:20:00Z</time>
      </trkpt>
      <trkpt lat="46.56324" lon="6.1219">
        <ele>1236</ele>
        <time>2021-08-11T10:20:14Z</time>
      </trkpt>
      <trkpt lat="46.56323" lon="6.12201">
        <ele>1235</ele>
        <time>2021-08-11T10:20:27Z</time>
      </trkpt>
      <trkpt lat="46.56329" lon="6.12201">
        <ele>1236</ele>
        <time>2021-08-11T10:22:45Z</time>
      </trkpt>
      <trkpt lat="46.56325" lon="6.12199">
        <ele>1238</ele>
        <time>2021-08-11T10:28:21Z</time>
      </trkpt>
      <trkpt lat="46.56309" lon="6.12229">
        <ele>1233</ele>
        <time>2021-08-11T11:08:35Z</time>
      </trkpt>
      <trkpt lat="46.56287" lon="6.12262">
        <ele>1231</ele>
        <time>2021-08-11T11:09:10Z</time>
      </trkpt>
      <trkpt lat="46.56273" lon="6.12277">
        <ele>1228</ele>
        <time>2021-08-11T11:09:34Z</time>
      </trkpt>
      <trkpt lat="46.56266" lon="6.12282">
        <ele>1228</ele>
        <time>2021-08-11T11:09:45Z</time>
      </trkpt>
      <trkpt lat="46.56258" lon="6.12289">
        <ele>1228</ele>
        <time>2021-08-11T11:09:53Z</time>
      </trkpt>
      <trkpt lat="46.56256" lon="6.12296">
        <ele>1227</ele>
        <time>2021-08-11T11:09:59Z</time>
      </trkpt>
      <trkpt lat="46.5625" lon="6.12302">
        <ele>1226</ele>
        <time>2021-08-11T11:10:04Z</time>
      </trkpt>
      <trkpt lat="46.56247" lon="6.1231">
        <ele>1225</ele>
        <time>2021-08-11T11:10:09Z</time>
      </trkpt>
      <trkpt lat="46.56244" lon="6.12319">
        <ele>1226</ele>
        <time>2021-08-11T11:10:15Z</time>
      </trkpt>
      <trkpt lat="46.5624" lon="6.12325">
        <ele>1226</ele>
        <time>2021-08-11T11:10:20Z</time>
      </trkpt>
      <trkpt lat="46.56237" lon="6.12332">
        <ele>1225</ele>
        <time>2021-08-11T11:10:25Z</time>
      </trkpt>
      <trkpt lat="46.56229" lon="6.12339">
        <ele>1225</ele>
        <time>2021-08-11T11:10:39Z</time>
      </trkpt>
      <trkpt lat="46.56221" lon="6.12358">
        <ele>1223</ele>
        <time>2021-08-11T11:11:03Z</time>
      </trkpt>
      <trkpt lat="46.56212" lon="6.1237">
        <ele>1221</ele>
        <time>2021-08-11T11:11:18Z</time>
      </trkpt>
      <trkpt lat="46.56207" lon="6.12381">
        <ele>1219</ele>
        <time>2021-08-11T11:11:30Z</time>
      </trkpt>
      <trkpt lat="46.56205" lon="6.12389">
        <ele>1219</ele>
        <time>2021-08-11T11:11:36Z</time>
      </trkpt>
      <trkpt lat="46.56201" lon="6.12396">
        <ele>1219</ele>
        <time>2021-08-11T11:11:42Z</time>
      </trkpt>
      <trkpt lat="46.56196" lon="6.12401">
        <ele>1219</ele>
        <time>2021-08-11T11:11:47Z</time>
      </trkpt>
      <trkpt lat="46.56186" lon="6.12408">
        <ele>1218</ele>
        <time>2021-08-11T11:12:02Z</time>
      </trkpt>
      <trkpt lat="46.56186" lon="6.12418">
        <ele>1218</ele>
        <time>2021-08-11T11:12:08Z</time>
      </trkpt>
      <trkpt lat="46.56187" lon="6.12425">
        <ele>1218</ele>
        <time>2021-08-11T11:12:13Z</time>
      </trkpt>
      <trkpt lat="46.5619" lon="6.12437">
        <ele>1218</ele>
        <time>2021-08-11T11:12:24Z</time>
      </trkpt>
      <trkpt lat="46.56193" lon="6.12444">
        <ele>1218</ele>
        <time>2021-08-11T11:12:28Z</time>
      </trkpt>
      <trkpt lat="46.56201" lon="6.1245">
        <ele>1219</ele>
        <time>2021-08-11T11:12:41Z</time>
      </trkpt>
      <trkpt lat="46.56205" lon="6.12458">
        <ele>1218</ele>
        <time>2021-08-11T11:12:49Z</time>
      </trkpt>
      <trkpt lat="46.5621" lon="6.12465">
        <ele>1218</ele>
        <time>2021-08-11T11:13:01Z</time>
      </trkpt>
      <trkpt lat="46.56212" lon="6.12473">
        <ele>1218</ele>
        <time>2021-08-11T11:13:06Z</time>
      </trkpt>
      <trkpt lat="46.56218" lon="6.12494">
        <ele>1219</ele>
        <time>2021-08-11T11:13:20Z</time>
      </trkpt>
      <trkpt lat="46.56223" lon="6.12502">
        <ele>1219</ele>
        <time>2021-08-11T11:13:23Z</time>
      </trkpt>
      <trkpt lat="46.56224" lon="6.12509">
        <ele>1220</ele>
        <time>2021-08-11T11:13:27Z</time>
      </trkpt>
      <trkpt lat="46.56223" lon="6.12518">
        <ele>1220</ele>
        <time>2021-08-11T11:13:35Z</time>
      </trkpt>
      <trkpt lat="46.56222" lon="6.12528">
        <ele>1219</ele>
        <time>2021-08-11T11:13:42Z</time>
      </trkpt>
      <trkpt lat="46.5622" lon="6.12535">
        <ele>1219</ele>
        <time>2021-08-11T11:13:48Z</time>
      </trkpt>
      <trkpt lat="46.56215" lon="6.12556">
        <ele>1219</ele>
        <time>2021-08-11T11:14:03Z</time>
      </trkpt>
      <trkpt lat="46.56208" lon="6.12566">
        <ele>1219</ele>
        <time>2021-08-11T11:14:17Z</time>
      </trkpt>
      <trkpt lat="46.56203" lon="6.12578">
        <ele>1219</ele>
        <time>2021-08-11T11:14:28Z</time>
      </trkpt>
      <trkpt lat="46.56204" lon="6.12602">
        <ele>1216</ele>
        <time>2021-08-11T11:14:46Z</time>
      </trkpt>
      <trkpt lat="46.562" lon="6.12624">
        <ele>1214</ele>
        <time>2021-08-11T11:15:02Z</time>
      </trkpt>
      <trkpt lat="46.56193" lon="6.12632">
        <ele>1212</ele>
        <time>2021-08-11T11:15:21Z</time>
      </trkpt>
      <trkpt lat="46.56192" lon="6.12648">
        <ele>1210</ele>
        <time>2021-08-11T11:15:33Z</time>
      </trkpt>
      <trkpt lat="46.56183" lon="6.12653">
        <ele>1207</ele>
        <time>2021-08-11T11:15:48Z</time>
      </trkpt>
      <trkpt lat="46.56171" lon="6.12653">
        <ele>1207</ele>
        <time>2021-08-11T11:16:00Z</time>
      </trkpt>
      <trkpt lat="46.56166" lon="6.12656">
        <ele>1207</ele>
        <time>2021-08-11T11:16:05Z</time>
      </trkpt>
      <trkpt lat="46.56161" lon="6.1266">
        <ele>1207</ele>
        <time>2021-08-11T11:16:11Z</time>
      </trkpt>
      <trkpt lat="46.56155" lon="6.12679">
        <ele>1208</ele>
        <time>2021-08-11T11:16:22Z</time>
      </trkpt>
      <trkpt lat="46.56154" lon="6.12688">
        <ele>1208</ele>
        <time>2021-08-11T11:16:26Z</time>
      </trkpt>
      <trkpt lat="46.56151" lon="6.127">
        <ele>1207</ele>
        <time>2021-08-11T11:16:36Z</time>
      </trkpt>
      <trkpt lat="46.56148" lon="6.12722">
        <ele>1210</ele>
        <time>2021-08-11T11:16:53Z</time>
      </trkpt>
      <trkpt lat="46.56146" lon="6.12731">
        <ele>1209</ele>
        <time>2021-08-11T11:16:58Z</time>
      </trkpt>
      <trkpt lat="46.56146" lon="6.12738">
        <ele>1210</ele>
        <time>2021-08-11T11:17:03Z</time>
      </trkpt>
      <trkpt lat="46.56142" lon="6.12747">
        <ele>1211</ele>
        <time>2021-08-11T11:17:12Z</time>
      </trkpt>
      <trkpt lat="46.5614" lon="6.12755">
        <ele>1211</ele>
        <time>2021-08-11T11:17:18Z</time>
      </trkpt>
      <trkpt lat="46.56138" lon="6.12765">
        <ele>1212</ele>
        <time>2021-08-11T11:17:26Z</time>
      </trkpt>
      <trkpt lat="46.56135" lon="6.12778">
        <ele>1210</ele>
        <time>2021-08-11T11:17:40Z</time>
      </trkpt>
      <trkpt lat="46.56128" lon="6.12793">
        <ele>1209</ele>
        <time>2021-08-11T11:17:52Z</time>
      </trkpt>
      <trkpt lat="46.56121" lon="6.12799">
        <ele>1208</ele>
        <time>2021-08-11T11:17:59Z</time>
      </trkpt>
      <trkpt lat="46.56118" lon="6.12808">
        <ele>1207</ele>
        <time>2021-08-11T11:18:07Z</time>
      </trkpt>
      <trkpt lat="46.56116" lon="6.12816">
        <ele>1206</ele>
        <time>2021-08-11T11:18:13Z</time>
      </trkpt>
      <trkpt lat="46.56108" lon="6.12829">
        <ele>1206</ele>
        <time>2021-08-11T11:18:23Z</time>
      </trkpt>
      <trkpt lat="46.56098" lon="6.12839">
        <ele>1208</ele>
        <time>2021-08-11T11:18:37Z</time>
      </trkpt>
      <trkpt lat="46.56095" lon="6.12846">
        <ele>1209</ele>
        <time>2021-08-11T11:18:43Z</time>
      </trkpt>
      <trkpt lat="46.56092" lon="6.12858">
        <ele>1210</ele>
        <time>2021-08-11T11:18:54Z</time>
      </trkpt>
      <trkpt lat="46.5608" lon="6.12876">
        <ele>1214</ele>
        <time>2021-08-11T11:19:17Z</time>
      </trkpt>
      <trkpt lat="46.56065" lon="6.12885">
        <ele>1218</ele>
        <time>2021-08-11T11:19:43Z</time>
      </trkpt>
      <trkpt lat="46.56052" lon="6.12895">
        <ele>1219</ele>
        <time>2021-08-11T11:20:00Z</time>
      </trkpt>
      <trkpt lat="46.56037" lon="6.12916">
        <ele>1221</ele>
        <time>2021-08-11T11:20:22Z</time>
      </trkpt>
      <trkpt lat="46.56025" lon="6.12935">
        <ele>1222</ele>
        <time>2021-08-11T11:20:40Z</time>
      </trkpt>
      <trkpt lat="46.5602" lon="6.12943">
        <ele>1221</ele>
        <time>2021-08-11T11:20:48Z</time>
      </trkpt>
      <trkpt lat="46.56017" lon="6.12951">
        <ele>1220</ele>
        <time>2021-08-11T11:20:56Z</time>
      </trkpt>
      <trkpt lat="46.56012" lon="6.12958">
        <ele>1220</ele>
        <time>2021-08-11T11:21:01Z</time>
      </trkpt>
      <trkpt lat="46.56008" lon="6.12963">
        <ele>1220</ele>
        <time>2021-08-11T11:21:06Z</time>
      </trkpt>
      <trkpt lat="46.56005" lon="6.12971">
        <ele>1220</ele>
        <time>2021-08-11T11:21:12Z</time>
      </trkpt>
      <trkpt lat="46.56002" lon="6.12977">
        <ele>1220</ele>
        <time>2021-08-11T11:21:18Z</time>
      </trkpt>
      <trkpt lat="46.55999" lon="6.12984">
        <ele>1220</ele>
        <time>2021-08-11T11:21:23Z</time>
      </trkpt>
      <trkpt lat="46.55993" lon="6.12998">
        <ele>1218</ele>
        <time>2021-08-11T11:21:35Z</time>
      </trkpt>
      <trkpt lat="46.55975" lon="6.13032">
        <ele>1214</ele>
        <time>2021-08-11T11:22:03Z</time>
      </trkpt>
      <trkpt lat="46.55975" lon="6.13041">
        <ele>1214</ele>
        <time>2021-08-11T11:22:08Z</time>
      </trkpt>
      <trkpt lat="46.55972" lon="6.13049">
        <ele>1213</ele>
        <time>2021-08-11T11:22:14Z</time>
      </trkpt>
      <trkpt lat="46.55964" lon="6.13064">
        <ele>1213</ele>
        <time>2021-08-11T11:22:25Z</time>
      </trkpt>
      <trkpt lat="46.55957" lon="6.13081">
        <ele>1212</ele>
        <time>2021-08-11T11:22:37Z</time>
      </trkpt>
      <trkpt lat="46.55949" lon="6.13094">
        <ele>1212</ele>
        <time>2021-08-11T11:22:48Z</time>
      </trkpt>
      <trkpt lat="46.55947" lon="6.13099">
        <ele>1212</ele>
        <time>2021-08-11T11:22:52Z</time>
      </trkpt>
      <trkpt lat="46.55937" lon="6.13113">
        <ele>1212</ele>
        <time>2021-08-11T11:23:04Z</time>
      </trkpt>
      <trkpt lat="46.55932" lon="6.13119">
        <ele>1212</ele>
        <time>2021-08-11T11:23:12Z</time>
      </trkpt>
      <trkpt lat="46.55923" lon="6.13128">
        <ele>1212</ele>
        <time>2021-08-11T11:23:24Z</time>
      </trkpt>
      <trkpt lat="46.5592" lon="6.13134">
        <ele>1211</ele>
        <time>2021-08-11T11:23:30Z</time>
      </trkpt>
      <trkpt lat="46.55917" lon="6.13138">
        <ele>1212</ele>
        <time>2021-08-11T11:23:34Z</time>
      </trkpt>
      <trkpt lat="46.5591" lon="6.13142">
        <ele>1210</ele>
        <time>2021-08-11T11:23:43Z</time>
      </trkpt>
      <trkpt lat="46.55875" lon="6.13169">
        <ele>1207</ele>
        <time>2021-08-11T11:24:20Z</time>
      </trkpt>
      <trkpt lat="46.5587" lon="6.13173">
        <ele>1207</ele>
        <time>2021-08-11T11:24:25Z</time>
      </trkpt>
      <trkpt lat="46.55862" lon="6.13174">
        <ele>1206</ele>
        <time>2021-08-11T11:24:37Z</time>
      </trkpt>
      <trkpt lat="46.55859" lon="6.13172">
        <ele>1206</ele>
        <time>2021-08-11T11:24:41Z</time>
      </trkpt>
      <trkpt lat="46.55858" lon="6.13164">
        <ele>1206</ele>
        <time>2021-08-11T11:24:47Z</time>
      </trkpt>
      <trkpt lat="46.55853" lon="6.13157">
        <ele>1206</ele>
        <time>2021-08-11T11:24:54Z</time>
      </trkpt>
      <trkpt lat="46.55846" lon="6.13144">
        <ele>1205</ele>
        <time>2021-08-11T11:25:05Z</time>
      </trkpt>
      <trkpt lat="46.55842" lon="6.13137">
        <ele>1205</ele>
        <time>2021-08-11T11:25:11Z</time>
      </trkpt>
      <trkpt lat="46.5584" lon="6.13129">
        <ele>1204</ele>
        <time>2021-08-11T11:25:17Z</time>
      </trkpt>
      <trkpt lat="46.55838" lon="6.13123">
        <ele>1205</ele>
        <time>2021-08-11T11:25:24Z</time>
      </trkpt>
      <trkpt lat="46.55833" lon="6.13117">
        <ele>1205</ele>
        <time>2021-08-11T11:25:30Z</time>
      </trkpt>
      <trkpt lat="46.55829" lon="6.13111">
        <ele>1205</ele>
        <time>2021-08-11T11:25:36Z</time>
      </trkpt>
      <trkpt lat="46.55825" lon="6.13108">
        <ele>1205</ele>
        <time>2021-08-11T11:25:39Z</time>
      </trkpt>
      <trkpt lat="46.55809" lon="6.13091">
        <ele>1203</ele>
        <time>2021-08-11T11:25:57Z</time>
      </trkpt>
      <trkpt lat="46.55803" lon="6.13085">
        <ele>1203</ele>
        <time>2021-08-11T11:26:04Z</time>
      </trkpt>
      <trkpt lat="46.55803" lon="6.13085">
        <ele>1203</ele>
        <time>2021-08-11T11:26:05Z</time>
      </trkpt>
      <trkpt lat="46.55793" lon="6.13071">
        <ele>1202</ele>
        <time>2021-08-11T11:26:20Z</time>
      </trkpt>
      <trkpt lat="46.55787" lon="6.13061">
        <ele>1202</ele>
        <time>2021-08-11T11:26:29Z</time>
      </trkpt>
      <trkpt lat="46.55774" lon="6.13053">
        <ele>1201</ele>
        <time>2021-08-11T11:26:43Z</time>
      </trkpt>
      <trkpt lat="46.55769" lon="6.13049">
        <ele>1201</ele>
        <time>2021-08-11T11:26:49Z</time>
      </trkpt>
      <trkpt lat="46.55762" lon="6.13047">
        <ele>1201</ele>
        <time>2021-08-11T11:26:56Z</time>
      </trkpt>
      <trkpt lat="46.55757" lon="6.13041">
        <ele>1200</ele>
        <time>2021-08-11T11:27:02Z</time>
      </trkpt>
      <trkpt lat="46.55753" lon="6.1303">
        <ele>1199</ele>
        <time>2021-08-11T11:27:12Z</time>
      </trkpt>
      <trkpt lat="46.55749" lon="6.13026">
        <ele>1199</ele>
        <time>2021-08-11T11:27:16Z</time>
      </trkpt>
      <trkpt lat="46.55745" lon="6.13018">
        <ele>1199</ele>
        <time>2021-08-11T11:27:26Z</time>
      </trkpt>
      <trkpt lat="46.55738" lon="6.13012">
        <ele>1198</ele>
        <time>2021-08-11T11:27:57Z</time>
      </trkpt>
      <trkpt lat="46.55731" lon="6.12988">
        <ele>1198</ele>
        <time>2021-08-11T11:28:13Z</time>
      </trkpt>
      <trkpt lat="46.55727" lon="6.1298">
        <ele>1197</ele>
        <time>2021-08-11T11:28:19Z</time>
      </trkpt>
      <trkpt lat="46.55722" lon="6.12977">
        <ele>1197</ele>
        <time>2021-08-11T11:28:23Z</time>
      </trkpt>
      <trkpt lat="46.55716" lon="6.12971">
        <ele>1197</ele>
        <time>2021-08-11T11:28:27Z</time>
      </trkpt>
      <trkpt lat="46.55712" lon="6.12964">
        <ele>1197</ele>
        <time>2021-08-11T11:28:31Z</time>
      </trkpt>
      <trkpt lat="46.5571" lon="6.12961">
        <ele>1196</ele>
        <time>2021-08-11T11:28:35Z</time>
      </trkpt>
      <trkpt lat="46.55699" lon="6.12947">
        <ele>1196</ele>
        <time>2021-08-11T11:28:46Z</time>
      </trkpt>
      <trkpt lat="46.5567" lon="6.12902">
        <ele>1193</ele>
        <time>2021-08-11T11:29:20Z</time>
      </trkpt>
      <trkpt lat="46.55655" lon="6.1287">
        <ele>1191</ele>
        <time>2021-08-11T11:29:43Z</time>
      </trkpt>
      <trkpt lat="46.55654" lon="6.12862">
        <ele>1191</ele>
        <time>2021-08-11T11:29:48Z</time>
      </trkpt>
      <trkpt lat="46.5565" lon="6.12855">
        <ele>1191</ele>
        <time>2021-08-11T11:29:52Z</time>
      </trkpt>
      <trkpt lat="46.55646" lon="6.12848">
        <ele>1191</ele>
        <time>2021-08-11T11:29:56Z</time>
      </trkpt>
      <trkpt lat="46.55641" lon="6.12843">
        <ele>1191</ele>
        <time>2021-08-11T11:30:00Z</time>
      </trkpt>
      <trkpt lat="46.55637" lon="6.12837">
        <ele>1191</ele>
        <time>2021-08-11T11:30:05Z</time>
      </trkpt>
      <trkpt lat="46.55635" lon="6.12829">
        <ele>1191</ele>
        <time>2021-08-11T11:30:10Z</time>
      </trkpt>
      <trkpt lat="46.55626" lon="6.12817">
        <ele>1191</ele>
        <time>2021-08-11T11:30:19Z</time>
      </trkpt>
      <trkpt lat="46.55622" lon="6.12807">
        <ele>1190</ele>
        <time>2021-08-11T11:30:27Z</time>
      </trkpt>
      <trkpt lat="46.55619" lon="6.12799">
        <ele>1190</ele>
        <time>2021-08-11T11:30:33Z</time>
      </trkpt>
      <trkpt lat="46.55613" lon="6.12784">
        <ele>1190</ele>
        <time>2021-08-11T11:30:41Z</time>
      </trkpt>
      <trkpt lat="46.55607" lon="6.12769">
        <ele>1190</ele>
        <time>2021-08-11T11:30:49Z</time>
      </trkpt>
      <trkpt lat="46.55604" lon="6.1276">
        <ele>1190</ele>
        <time>2021-08-11T11:30:54Z</time>
      </trkpt>
      <trkpt lat="46.55601" lon="6.12753">
        <ele>1190</ele>
        <time>2021-08-11T11:30:59Z</time>
      </trkpt>
      <trkpt lat="46.55594" lon="6.12727">
        <ele>1191</ele>
        <time>2021-08-11T11:31:15Z</time>
      </trkpt>
      <trkpt lat="46.55585" lon="6.12707">
        <ele>1191</ele>
        <time>2021-08-11T11:31:30Z</time>
      </trkpt>
      <trkpt lat="46.55566" lon="6.12675">
        <ele>1189</ele>
        <time>2021-08-11T11:31:54Z</time>
      </trkpt>
      <trkpt lat="46.55563" lon="6.12668">
        <ele>1189</ele>
        <time>2021-08-11T11:31:59Z</time>
      </trkpt>
      <trkpt lat="46.55558" lon="6.12662">
        <ele>1190</ele>
        <time>2021-08-11T11:32:04Z</time>
      </trkpt>
      <trkpt lat="46.55555" lon="6.12661">
        <ele>1190</ele>
        <time>2021-08-11T11:32:07Z</time>
      </trkpt>
      <trkpt lat="46.55551" lon="6.12658">
        <ele>1190</ele>
        <time>2021-08-11T11:32:10Z</time>
      </trkpt>
      <trkpt lat="46.5554" lon="6.12654">
        <ele>1190</ele>
        <time>2021-08-11T11:32:22Z</time>
      </trkpt>
      <trkpt lat="46.55533" lon="6.12648">
        <ele>1191</ele>
        <time>2021-08-11T11:32:30Z</time>
      </trkpt>
      <trkpt lat="46.55529" lon="6.12642">
        <ele>1190</ele>
        <time>2021-08-11T11:32:35Z</time>
      </trkpt>
      <trkpt lat="46.55516" lon="6.12619">
        <ele>1189</ele>
        <time>2021-08-11T11:32:53Z</time>
      </trkpt>
      <trkpt lat="46.55513" lon="6.12613">
        <ele>1188</ele>
        <time>2021-08-11T11:32:58Z</time>
      </trkpt>
      <trkpt lat="46.55499" lon="6.12583">
        <ele>1188</ele>
        <time>2021-08-11T11:33:17Z</time>
      </trkpt>
      <trkpt lat="46.55493" lon="6.12569">
        <ele>1187</ele>
        <time>2021-08-11T11:33:29Z</time>
      </trkpt>
      <trkpt lat="46.55489" lon="6.12562">
        <ele>1187</ele>
        <time>2021-08-11T11:33:33Z</time>
      </trkpt>
      <trkpt lat="46.55487" lon="6.12553">
        <ele>1187</ele>
        <time>2021-08-11T11:33:38Z</time>
      </trkpt>
      <trkpt lat="46.55487" lon="6.12544">
        <ele>1187</ele>
        <time>2021-08-11T11:33:42Z</time>
      </trkpt>
      <trkpt lat="46.55488" lon="6.12535">
        <ele>1188</ele>
        <time>2021-08-11T11:33:48Z</time>
      </trkpt>
      <trkpt lat="46.55493" lon="6.12528">
        <ele>1188</ele>
        <time>2021-08-11T11:33:55Z</time>
      </trkpt>
      <trkpt lat="46.55505" lon="6.12522">
        <ele>1189</ele>
        <time>2021-08-11T11:34:04Z</time>
      </trkpt>
      <trkpt lat="46.5551" lon="6.12516">
        <ele>1189</ele>
        <time>2021-08-11T11:34:10Z</time>
      </trkpt>
      <trkpt lat="46.55513" lon="6.12506">
        <ele>1190</ele>
        <time>2021-08-11T11:34:17Z</time>
      </trkpt>
      <trkpt lat="46.55518" lon="6.12482">
        <ele>1189</ele>
        <time>2021-08-11T11:34:33Z</time>
      </trkpt>
      <trkpt lat="46.55516" lon="6.12463">
        <ele>1189</ele>
        <time>2021-08-11T11:34:43Z</time>
      </trkpt>
      <trkpt lat="46.55515" lon="6.12455">
        <ele>1189</ele>
        <time>2021-08-11T11:34:48Z</time>
      </trkpt>
      <trkpt lat="46.55511" lon="6.12448">
        <ele>1189</ele>
        <time>2021-08-11T11:34:53Z</time>
      </trkpt>
      <trkpt lat="46.55488" lon="6.1242">
        <ele>1190</ele>
        <time>2021-08-11T11:35:19Z</time>
      </trkpt>
      <trkpt lat="46.55479" lon="6.12415">
        <ele>1189</ele>
        <time>2021-08-11T11:35:27Z</time>
      </trkpt>
      <trkpt lat="46.55471" lon="6.12403">
        <ele>1189</ele>
        <time>2021-08-11T11:35:35Z</time>
      </trkpt>
      <trkpt lat="46.55464" lon="6.12388">
        <ele>1189</ele>
        <time>2021-08-11T11:35:46Z</time>
      </trkpt>
      <trkpt lat="46.55463" lon="6.1238">
        <ele>1190</ele>
        <time>2021-08-11T11:35:51Z</time>
      </trkpt>
      <trkpt lat="46.5546" lon="6.12372">
        <ele>1190</ele>
        <time>2021-08-11T11:35:55Z</time>
      </trkpt>
      <trkpt lat="46.55456" lon="6.12356">
        <ele>1191</ele>
        <time>2021-08-11T11:36:05Z</time>
      </trkpt>
      <trkpt lat="46.55446" lon="6.12342">
        <ele>1192</ele>
        <time>2021-08-11T11:36:17Z</time>
      </trkpt>
      <trkpt lat="46.5544" lon="6.12328">
        <ele>1191</ele>
        <time>2021-08-11T11:36:27Z</time>
      </trkpt>
      <trkpt lat="46.55441" lon="6.12322">
        <ele>1191</ele>
        <time>2021-08-11T11:36:31Z</time>
      </trkpt>
      <trkpt lat="46.5544" lon="6.12271">
        <ele>1194</ele>
        <time>2021-08-11T11:37:02Z</time>
      </trkpt>
      <trkpt lat="46.55437" lon="6.12242">
        <ele>1196</ele>
        <time>2021-08-11T11:37:21Z</time>
      </trkpt>
      <trkpt lat="46.55442" lon="6.12234">
        <ele>1195</ele>
        <time>2021-08-11T11:38:25Z</time>
      </trkpt>
      <trkpt lat="46.55448" lon="6.12236">
        <ele>1196</ele>
        <time>2021-08-11T11:38:29Z</time>
      </trkpt>
      <trkpt lat="46.55454" lon="6.12233">
        <ele>1196</ele>
        <time>2021-08-11T11:38:37Z</time>
      </trkpt>
      <trkpt lat="46.55478" lon="6.12215">
        <ele>1196</ele>
        <time>2021-08-11T11:39:02Z</time>
      </trkpt>
      <trkpt lat="46.55497" lon="6.12193">
        <ele>1195</ele>
        <time>2021-08-11T11:39:22Z</time>
      </trkpt>
      <trkpt lat="46.55502" lon="6.12188">
        <ele>1194</ele>
        <time>2021-08-11T11:39:27Z</time>
      </trkpt>
      <trkpt lat="46.55519" lon="6.12172">
        <ele>1193</ele>
        <time>2021-08-11T11:39:46Z</time>
      </trkpt>
      <trkpt lat="46.55531" lon="6.12162">
        <ele>1191</ele>
        <time>2021-08-11T11:39:56Z</time>
      </trkpt>
      <trkpt lat="46.55537" lon="6.12159">
        <ele>1191</ele>
        <time>2021-08-11T11:40:01Z</time>
      </trkpt>
      <trkpt lat="46.55563" lon="6.12131">
        <ele>1190</ele>
        <time>2021-08-11T11:40:23Z</time>
      </trkpt>
      <trkpt lat="46.55569" lon="6.12119">
        <ele>1190</ele>
        <time>2021-08-11T11:40:31Z</time>
      </trkpt>
      <trkpt lat="46.55582" lon="6.12106">
        <ele>1190</ele>
        <time>2021-08-11T11:40:43Z</time>
      </trkpt>
      <trkpt lat="46.55589" lon="6.12094">
        <ele>1190</ele>
        <time>2021-08-11T11:40:53Z</time>
      </trkpt>
      <trkpt lat="46.55595" lon="6.12088">
        <ele>1190</ele>
        <time>2021-08-11T11:40:57Z</time>
      </trkpt>
      <trkpt lat="46.55603" lon="6.1208">
        <ele>1190</ele>
        <time>2021-08-11T11:41:03Z</time>
      </trkpt>
      <trkpt lat="46.55606" lon="6.12072">
        <ele>1190</ele>
        <time>2021-08-11T11:41:08Z</time>
      </trkpt>
      <trkpt lat="46.5561" lon="6.12067">
        <ele>1189</ele>
        <time>2021-08-11T11:41:14Z</time>
      </trkpt>
      <trkpt lat="46.55618" lon="6.12054">
        <ele>1190</ele>
        <time>2021-08-11T11:41:24Z</time>
      </trkpt>
      <trkpt lat="46.55623" lon="6.1205">
        <ele>1190</ele>
        <time>2021-08-11T11:41:29Z</time>
      </trkpt>
      <trkpt lat="46.55629" lon="6.12048">
        <ele>1191</ele>
        <time>2021-08-11T11:41:34Z</time>
      </trkpt>
      <trkpt lat="46.5564" lon="6.12048">
        <ele>1191</ele>
        <time>2021-08-11T11:41:42Z</time>
      </trkpt>
      <trkpt lat="46.55652" lon="6.12041">
        <ele>1191</ele>
        <time>2021-08-11T11:41:54Z</time>
      </trkpt>
      <trkpt lat="46.55659" lon="6.12038">
        <ele>1192</ele>
        <time>2021-08-11T11:42:02Z</time>
      </trkpt>
      <trkpt lat="46.55665" lon="6.12036">
        <ele>1192</ele>
        <time>2021-08-11T11:42:08Z</time>
      </trkpt>
      <trkpt lat="46.55671" lon="6.12038">
        <ele>1192</ele>
        <time>2021-08-11T11:42:14Z</time>
      </trkpt>
      <trkpt lat="46.55679" lon="6.12045">
        <ele>1191</ele>
        <time>2021-08-11T11:42:24Z</time>
      </trkpt>
      <trkpt lat="46.55691" lon="6.12049">
        <ele>1191</ele>
        <time>2021-08-11T11:42:33Z</time>
      </trkpt>
      <trkpt lat="46.55697" lon="6.12047">
        <ele>1191</ele>
        <time>2021-08-11T11:42:37Z</time>
      </trkpt>
      <trkpt lat="46.55709" lon="6.12036">
        <ele>1191</ele>
        <time>2021-08-11T11:42:46Z</time>
      </trkpt>
      <trkpt lat="46.55713" lon="6.1203">
        <ele>1190</ele>
        <time>2021-08-11T11:42:51Z</time>
      </trkpt>
      <trkpt lat="46.55715" lon="6.12022">
        <ele>1190</ele>
        <time>2021-08-11T11:42:55Z</time>
      </trkpt>
      <trkpt lat="46.55717" lon="6.12014">
        <ele>1190</ele>
        <time>2021-08-11T11:42:59Z</time>
      </trkpt>
      <trkpt lat="46.5572" lon="6.12007">
        <ele>1189</ele>
        <time>2021-08-11T11:43:05Z</time>
      </trkpt>
      <trkpt lat="46.55724" lon="6.11991">
        <ele>1189</ele>
        <time>2021-08-11T11:43:14Z</time>
      </trkpt>
      <trkpt lat="46.55729" lon="6.11984">
        <ele>1188</ele>
        <time>2021-08-11T11:43:19Z</time>
      </trkpt>
      <trkpt lat="46.55733" lon="6.11976">
        <ele>1188</ele>
        <time>2021-08-11T11:43:24Z</time>
      </trkpt>
      <trkpt lat="46.55745" lon="6.11969">
        <ele>1188</ele>
        <time>2021-08-11T11:43:35Z</time>
      </trkpt>
      <trkpt lat="46.55763" lon="6.1194">
        <ele>1189</ele>
        <time>2021-08-11T11:44:00Z</time>
      </trkpt>
      <trkpt lat="46.55767" lon="6.11936">
        <ele>1190</ele>
        <time>2021-08-11T11:44:06Z</time>
      </trkpt>
      <trkpt lat="46.55776" lon="6.11916">
        <ele>1189</ele>
        <time>2021-08-11T11:44:25Z</time>
      </trkpt>
      <trkpt lat="46.5578" lon="6.11908">
        <ele>1190</ele>
        <time>2021-08-11T11:44:30Z</time>
      </trkpt>
      <trkpt lat="46.5578" lon="6.11898">
        <ele>1190</ele>
        <time>2021-08-11T11:44:36Z</time>
      </trkpt>
      <trkpt lat="46.55782" lon="6.1189">
        <ele>1190</ele>
        <time>2021-08-11T11:44:40Z</time>
      </trkpt>
      <trkpt lat="46.55784" lon="6.11881">
        <ele>1190</ele>
        <time>2021-08-11T11:44:45Z</time>
      </trkpt>
      <trkpt lat="46.55782" lon="6.11866">
        <ele>1191</ele>
        <time>2021-08-11T11:44:55Z</time>
      </trkpt>
      <trkpt lat="46.55778" lon="6.11857">
        <ele>1191</ele>
        <time>2021-08-11T11:45:00Z</time>
      </trkpt>
      <trkpt lat="46.55777" lon="6.11847">
        <ele>1191</ele>
        <time>2021-08-11T11:45:05Z</time>
      </trkpt>
      <trkpt lat="46.55777" lon="6.11839">
        <ele>1191</ele>
        <time>2021-08-11T11:45:10Z</time>
      </trkpt>
      <trkpt lat="46.55771" lon="6.11819">
        <ele>1191</ele>
        <time>2021-08-11T11:45:22Z</time>
      </trkpt>
      <trkpt lat="46.55767" lon="6.11814">
        <ele>1192</ele>
        <time>2021-08-11T11:45:26Z</time>
      </trkpt>
      <trkpt lat="46.55763" lon="6.11798">
        <ele>1191</ele>
        <time>2021-08-11T11:45:37Z</time>
      </trkpt>
      <trkpt lat="46.55758" lon="6.11793">
        <ele>1191</ele>
        <time>2021-08-11T11:45:42Z</time>
      </trkpt>
      <trkpt lat="46.55754" lon="6.11784">
        <ele>1191</ele>
        <time>2021-08-11T11:45:49Z</time>
      </trkpt>
      <trkpt lat="46.55741" lon="6.11767">
        <ele>1191</ele>
        <time>2021-08-11T11:46:01Z</time>
      </trkpt>
      <trkpt lat="46.55738" lon="6.11759">
        <ele>1191</ele>
        <time>2021-08-11T11:46:07Z</time>
      </trkpt>
      <trkpt lat="46.55733" lon="6.11753">
        <ele>1191</ele>
        <time>2021-08-11T11:46:12Z</time>
      </trkpt>
      <trkpt lat="46.55732" lon="6.11745">
        <ele>1191</ele>
        <time>2021-08-11T11:46:17Z</time>
      </trkpt>
      <trkpt lat="46.55728" lon="6.11739">
        <ele>1191</ele>
        <time>2021-08-11T11:46:22Z</time>
      </trkpt>
      <trkpt lat="46.55726" lon="6.11735">
        <ele>1191</ele>
        <time>2021-08-11T11:46:25Z</time>
      </trkpt>
      <trkpt lat="46.55723" lon="6.1173">
        <ele>1191</ele>
        <time>2021-08-11T11:46:28Z</time>
      </trkpt>
      <trkpt lat="46.55724" lon="6.11733">
        <ele>1191</ele>
        <time>2021-08-11T11:47:02Z</time>
      </trkpt>
      <trkpt lat="46.55729" lon="6.11739">
        <ele>1191</ele>
        <time>2021-08-11T11:47:08Z</time>
      </trkpt>
      <trkpt lat="46.55736" lon="6.11753">
        <ele>1191</ele>
        <time>2021-08-11T11:47:16Z</time>
      </trkpt>
      <trkpt lat="46.55744" lon="6.11737">
        <ele>1191</ele>
        <time>2021-08-11T11:47:39Z</time>
      </trkpt>
      <trkpt lat="46.55737" lon="6.11738">
        <ele>1191</ele>
        <time>2021-08-11T11:48:20Z</time>
      </trkpt>
      <trkpt lat="46.55731" lon="6.1174">
        <ele>1191</ele>
        <time>2021-08-11T11:48:24Z</time>
      </trkpt>
      <trkpt lat="46.55725" lon="6.11735">
        <ele>1190</ele>
        <time>2021-08-11T11:48:29Z</time>
      </trkpt>
      <trkpt lat="46.55719" lon="6.11711">
        <ele>1190</ele>
        <time>2021-08-11T11:48:42Z</time>
      </trkpt>
      <trkpt lat="46.55718" lon="6.11678">
        <ele>1190</ele>
        <time>2021-08-11T11:48:58Z</time>
      </trkpt>
      <trkpt lat="46.5572" lon="6.11669">
        <ele>1189</ele>
        <time>2021-08-11T11:49:04Z</time>
      </trkpt>
      <trkpt lat="46.5572" lon="6.11657">
        <ele>1189</ele>
        <time>2021-08-11T11:49:14Z</time>
      </trkpt>
      <trkpt lat="46.55719" lon="6.11649">
        <ele>1189</ele>
        <time>2021-08-11T11:49:19Z</time>
      </trkpt>
      <trkpt lat="46.55707" lon="6.11626">
        <ele>1190</ele>
        <time>2021-08-11T11:49:36Z</time>
      </trkpt>
      <trkpt lat="46.55696" lon="6.11616">
        <ele>1191</ele>
        <time>2021-08-11T11:49:47Z</time>
      </trkpt>
      <trkpt lat="46.5567" lon="6.11573">
        <ele>1193</ele>
        <time>2021-08-11T11:50:16Z</time>
      </trkpt>
      <trkpt lat="46.55669" lon="6.11553">
        <ele>1194</ele>
        <time>2021-08-11T11:50:30Z</time>
      </trkpt>
      <trkpt lat="46.55671" lon="6.11541">
        <ele>1194</ele>
        <time>2021-08-11T11:50:37Z</time>
      </trkpt>
      <trkpt lat="46.55673" lon="6.11535">
        <ele>1195</ele>
        <time>2021-08-11T11:50:43Z</time>
      </trkpt>
      <trkpt lat="46.55676" lon="6.11524">
        <ele>1195</ele>
        <time>2021-08-11T11:50:50Z</time>
      </trkpt>
      <trkpt lat="46.55679" lon="6.11515">
        <ele>1196</ele>
        <time>2021-08-11T11:50:57Z</time>
      </trkpt>
      <trkpt lat="46.55678" lon="6.11467">
        <ele>1200</ele>
        <time>2021-08-11T11:51:28Z</time>
      </trkpt>
      <trkpt lat="46.55675" lon="6.11454">
        <ele>1200</ele>
        <time>2021-08-11T11:51:37Z</time>
      </trkpt>
      <trkpt lat="46.55676" lon="6.11448">
        <ele>1201</ele>
        <time>2021-08-11T11:52:13Z</time>
      </trkpt>
      <trkpt lat="46.55667" lon="6.11434">
        <ele>1201</ele>
        <time>2021-08-11T11:52:25Z</time>
      </trkpt>
      <trkpt lat="46.55664" lon="6.11427">
        <ele>1201</ele>
        <time>2021-08-11T11:52:31Z</time>
      </trkpt>
      <trkpt lat="46.5566" lon="6.11419">
        <ele>1201</ele>
        <time>2021-08-11T11:53:14Z</time>
      </trkpt>
      <trkpt lat="46.55654" lon="6.11415">
        <ele>1201</ele>
        <time>2021-08-11T11:53:24Z</time>
      </trkpt>
      <trkpt lat="46.5565" lon="6.1141">
        <ele>1201</ele>
        <time>2021-08-11T11:53:34Z</time>
      </trkpt>
      <trkpt lat="46.55644" lon="6.11407">
        <ele>1200</ele>
        <time>2021-08-11T11:53:40Z</time>
      </trkpt>
      <trkpt lat="46.55638" lon="6.11405">
        <ele>1200</ele>
        <time>2021-08-11T11:53:45Z</time>
      </trkpt>
      <trkpt lat="46.55634" lon="6.11401">
        <ele>1201</ele>
        <time>2021-08-11T11:53:51Z</time>
      </trkpt>
      <trkpt lat="46.55628" lon="6.11398">
        <ele>1200</ele>
        <time>2021-08-11T11:53:56Z</time>
      </trkpt>
      <trkpt lat="46.55617" lon="6.11396">
        <ele>1199</ele>
        <time>2021-08-11T11:54:05Z</time>
      </trkpt>
      <trkpt lat="46.55603" lon="6.11379">
        <ele>1199</ele>
        <time>2021-08-11T11:54:19Z</time>
      </trkpt>
      <trkpt lat="46.55598" lon="6.11373">
        <ele>1199</ele>
        <time>2021-08-11T11:54:25Z</time>
      </trkpt>
      <trkpt lat="46.55592" lon="6.11368">
        <ele>1199</ele>
        <time>2021-08-11T11:54:34Z</time>
      </trkpt>
      <trkpt lat="46.55585" lon="6.11363">
        <ele>1199</ele>
        <time>2021-08-11T11:54:39Z</time>
      </trkpt>
      <trkpt lat="46.55574" lon="6.11356">
        <ele>1198</ele>
        <time>2021-08-11T11:54:50Z</time>
      </trkpt>
      <trkpt lat="46.55568" lon="6.11355">
        <ele>1197</ele>
        <time>2021-08-11T11:54:55Z</time>
      </trkpt>
      <trkpt lat="46.55557" lon="6.11349">
        <ele>1197</ele>
        <time>2021-08-11T11:55:03Z</time>
      </trkpt>
      <trkpt lat="46.55551" lon="6.11348">
        <ele>1197</ele>
        <time>2021-08-11T11:55:09Z</time>
      </trkpt>
      <trkpt lat="46.55546" lon="6.11352">
        <ele>1197</ele>
        <time>2021-08-11T11:55:14Z</time>
      </trkpt>
      <trkpt lat="46.55539" lon="6.1135">
        <ele>1198</ele>
        <time>2021-08-11T11:55:20Z</time>
      </trkpt>
      <trkpt lat="46.55535" lon="6.11343">
        <ele>1198</ele>
        <time>2021-08-11T11:55:24Z</time>
      </trkpt>
      <trkpt lat="46.55523" lon="6.1132">
        <ele>1199</ele>
        <time>2021-08-11T11:55:41Z</time>
      </trkpt>
      <trkpt lat="46.55519" lon="6.11298">
        <ele>1201</ele>
        <time>2021-08-11T11:55:53Z</time>
      </trkpt>
      <trkpt lat="46.55516" lon="6.11292">
        <ele>1201</ele>
        <time>2021-08-11T11:55:57Z</time>
      </trkpt>
      <trkpt lat="46.55518" lon="6.11262">
        <ele>1203</ele>
        <time>2021-08-11T11:56:16Z</time>
      </trkpt>
      <trkpt lat="46.55514" lon="6.11244">
        <ele>1205</ele>
        <time>2021-08-11T11:56:24Z</time>
      </trkpt>
      <trkpt lat="46.5551" lon="6.11228">
        <ele>1206</ele>
        <time>2021-08-11T11:56:35Z</time>
      </trkpt>
      <trkpt lat="46.55506" lon="6.1122">
        <ele>1206</ele>
        <time>2021-08-11T11:56:40Z</time>
      </trkpt>
      <trkpt lat="46.55487" lon="6.11196">
        <ele>1208</ele>
        <time>2021-08-11T11:57:03Z</time>
      </trkpt>
      <trkpt lat="46.55485" lon="6.11186">
        <ele>1208</ele>
        <time>2021-08-11T11:57:10Z</time>
      </trkpt>
      <trkpt lat="46.55481" lon="6.11179">
        <ele>1209</ele>
        <time>2021-08-11T11:57:14Z</time>
      </trkpt>
      <trkpt lat="46.55475" lon="6.11174">
        <ele>1209</ele>
        <time>2021-08-11T11:57:19Z</time>
      </trkpt>
      <trkpt lat="46.55459" lon="6.1115">
        <ele>1211</ele>
        <time>2021-08-11T11:57:46Z</time>
      </trkpt>
      <trkpt lat="46.55459" lon="6.11115">
        <ele>1214</ele>
        <time>2021-08-11T11:58:05Z</time>
      </trkpt>
      <trkpt lat="46.55461" lon="6.11105">
        <ele>1214</ele>
        <time>2021-08-11T11:58:11Z</time>
      </trkpt>
      <trkpt lat="46.5545" lon="6.11067">
        <ele>1216</ele>
        <time>2021-08-11T11:58:35Z</time>
      </trkpt>
      <trkpt lat="46.55448" lon="6.1106">
        <ele>1216</ele>
        <time>2021-08-11T11:58:40Z</time>
      </trkpt>
      <trkpt lat="46.55443" lon="6.11051">
        <ele>1216</ele>
        <time>2021-08-11T11:58:45Z</time>
      </trkpt>
      <trkpt lat="46.55435" lon="6.11039">
        <ele>1216</ele>
        <time>2021-08-11T11:58:53Z</time>
      </trkpt>
      <trkpt lat="46.55425" lon="6.11028">
        <ele>1216</ele>
        <time>2021-08-11T11:59:05Z</time>
      </trkpt>
      <trkpt lat="46.55414" lon="6.11022">
        <ele>1216</ele>
        <time>2021-08-11T11:59:15Z</time>
      </trkpt>
      <trkpt lat="46.55406" lon="6.11">
        <ele>1217</ele>
        <time>2021-08-11T11:59:42Z</time>
      </trkpt>
      <trkpt lat="46.55408" lon="6.1099">
        <ele>1217</ele>
        <time>2021-08-11T11:59:52Z</time>
      </trkpt>
      <trkpt lat="46.55409" lon="6.10981">
        <ele>1217</ele>
        <time>2021-08-11T11:59:57Z</time>
      </trkpt>
      <trkpt lat="46.55407" lon="6.10959">
        <ele>1216</ele>
        <time>2021-08-11T12:00:13Z</time>
      </trkpt>
      <trkpt lat="46.55415" lon="6.10936">
        <ele>1216</ele>
        <time>2021-08-11T12:00:29Z</time>
      </trkpt>
      <trkpt lat="46.5543" lon="6.10911">
        <ele>1217</ele>
        <time>2021-08-11T12:00:49Z</time>
      </trkpt>
      <trkpt lat="46.55434" lon="6.10888">
        <ele>1217</ele>
        <time>2021-08-11T12:00:58Z</time>
      </trkpt>
      <trkpt lat="46.55462" lon="6.10842">
        <ele>1217</ele>
        <time>2021-08-11T12:01:31Z</time>
      </trkpt>
      <trkpt lat="46.55473" lon="6.1083">
        <ele>1217</ele>
        <time>2021-08-11T12:01:40Z</time>
      </trkpt>
      <trkpt lat="46.55478" lon="6.10818">
        <ele>1218</ele>
        <time>2021-08-11T12:01:49Z</time>
      </trkpt>
      <trkpt lat="46.55484" lon="6.10809">
        <ele>1218</ele>
        <time>2021-08-11T12:01:57Z</time>
      </trkpt>
      <trkpt lat="46.55488" lon="6.10799">
        <ele>1218</ele>
        <time>2021-08-11T12:02:03Z</time>
      </trkpt>
      <trkpt lat="46.55488" lon="6.10777">
        <ele>1218</ele>
        <time>2021-08-11T12:02:13Z</time>
      </trkpt>
      <trkpt lat="46.55492" lon="6.10769">
        <ele>1218</ele>
        <time>2021-08-11T12:02:17Z</time>
      </trkpt>
      <trkpt lat="46.55491" lon="6.10761">
        <ele>1218</ele>
        <time>2021-08-11T12:02:22Z</time>
      </trkpt>
      <trkpt lat="46.55494" lon="6.10753">
        <ele>1218</ele>
        <time>2021-08-11T12:02:28Z</time>
      </trkpt>
      <trkpt lat="46.55495" lon="6.10745">
        <ele>1218</ele>
        <time>2021-08-11T12:02:33Z</time>
      </trkpt>
      <trkpt lat="46.55495" lon="6.10733">
        <ele>1218</ele>
        <time>2021-08-11T12:02:41Z</time>
      </trkpt>
      <trkpt lat="46.55499" lon="6.10708">
        <ele>1218</ele>
        <time>2021-08-11T12:02:55Z</time>
      </trkpt>
      <trkpt lat="46.55495" lon="6.10699">
        <ele>1219</ele>
        <time>2021-08-11T12:03:01Z</time>
      </trkpt>
      <trkpt lat="46.55492" lon="6.10692">
        <ele>1218</ele>
        <time>2021-08-11T12:03:06Z</time>
      </trkpt>
      <trkpt lat="46.55487" lon="6.10687">
        <ele>1218</ele>
        <time>2021-08-11T12:03:10Z</time>
      </trkpt>
      <trkpt lat="46.55472" lon="6.10675">
        <ele>1218</ele>
        <time>2021-08-11T12:03:27Z</time>
      </trkpt>
      <trkpt lat="46.5544" lon="6.10631">
        <ele>1218</ele>
        <time>2021-08-11T12:04:00Z</time>
      </trkpt>
      <trkpt lat="46.55433" lon="6.10624">
        <ele>1218</ele>
        <time>2021-08-11T12:04:06Z</time>
      </trkpt>
      <trkpt lat="46.55416" lon="6.10596">
        <ele>1218</ele>
        <time>2021-08-11T12:04:25Z</time>
      </trkpt>
      <trkpt lat="46.55411" lon="6.10591">
        <ele>1218</ele>
        <time>2021-08-11T12:04:30Z</time>
      </trkpt>
      <trkpt lat="46.55404" lon="6.10577">
        <ele>1218</ele>
        <time>2021-08-11T12:04:40Z</time>
      </trkpt>
      <trkpt lat="46.55398" lon="6.10573">
        <ele>1218</ele>
        <time>2021-08-11T12:04:45Z</time>
      </trkpt>
      <trkpt lat="46.55394" lon="6.10568">
        <ele>1218</ele>
        <time>2021-08-11T12:04:48Z</time>
      </trkpt>
      <trkpt lat="46.55388" lon="6.10568">
        <ele>1218</ele>
        <time>2021-08-11T12:04:53Z</time>
      </trkpt>
      <trkpt lat="46.55383" lon="6.10568">
        <ele>1217</ele>
        <time>2021-08-11T12:04:58Z</time>
      </trkpt>
      <trkpt lat="46.55371" lon="6.10571">
        <ele>1217</ele>
        <time>2021-08-11T12:05:08Z</time>
      </trkpt>
      <trkpt lat="46.55359" lon="6.1057">
        <ele>1217</ele>
        <time>2021-08-11T12:05:16Z</time>
      </trkpt>
      <trkpt lat="46.55353" lon="6.10566">
        <ele>1217</ele>
        <time>2021-08-11T12:05:20Z</time>
      </trkpt>
      <trkpt lat="46.55349" lon="6.10559">
        <ele>1217</ele>
        <time>2021-08-11T12:05:25Z</time>
      </trkpt>
      <trkpt lat="46.55346" lon="6.10552">
        <ele>1217</ele>
        <time>2021-08-11T12:05:30Z</time>
      </trkpt>
      <trkpt lat="46.55346" lon="6.10533">
        <ele>1217</ele>
        <time>2021-08-11T12:05:40Z</time>
      </trkpt>
      <trkpt lat="46.55349" lon="6.10515">
        <ele>1217</ele>
        <time>2021-08-11T12:05:49Z</time>
      </trkpt>
      <trkpt lat="46.55353" lon="6.10507">
        <ele>1217</ele>
        <time>2021-08-11T12:05:55Z</time>
      </trkpt>
      <trkpt lat="46.55364" lon="6.10498">
        <ele>1217</ele>
        <time>2021-08-11T12:06:05Z</time>
      </trkpt>
      <trkpt lat="46.55375" lon="6.10494">
        <ele>1217</ele>
        <time>2021-08-11T12:06:12Z</time>
      </trkpt>
      <trkpt lat="46.55411" lon="6.10462">
        <ele>1217</ele>
        <time>2021-08-11T12:06:46Z</time>
      </trkpt>
      <trkpt lat="46.55416" lon="6.10455">
        <ele>1218</ele>
        <time>2021-08-11T12:06:50Z</time>
      </trkpt>
      <trkpt lat="46.55423" lon="6.10448">
        <ele>1217</ele>
        <time>2021-08-11T12:06:56Z</time>
      </trkpt>
      <trkpt lat="46.55428" lon="6.1044">
        <ele>1217</ele>
        <time>2021-08-11T12:07:03Z</time>
      </trkpt>
      <trkpt lat="46.55446" lon="6.1042">
        <ele>1218</ele>
        <time>2021-08-11T12:07:19Z</time>
      </trkpt>
      <trkpt lat="46.55453" lon="6.10416">
        <ele>1219</ele>
        <time>2021-08-11T12:07:25Z</time>
      </trkpt>
      <trkpt lat="46.5546" lon="6.10414">
        <ele>1218</ele>
        <time>2021-08-11T12:07:33Z</time>
      </trkpt>
      <trkpt lat="46.55468" lon="6.10404">
        <ele>1218</ele>
        <time>2021-08-11T12:07:41Z</time>
      </trkpt>
      <trkpt lat="46.55476" lon="6.10387">
        <ele>1218</ele>
        <time>2021-08-11T12:07:51Z</time>
      </trkpt>
      <trkpt lat="46.55478" lon="6.10378">
        <ele>1218</ele>
        <time>2021-08-11T12:07:56Z</time>
      </trkpt>
      <trkpt lat="46.55487" lon="6.10357">
        <ele>1218</ele>
        <time>2021-08-11T12:08:11Z</time>
      </trkpt>
      <trkpt lat="46.55494" lon="6.10339">
        <ele>1218</ele>
        <time>2021-08-11T12:08:25Z</time>
      </trkpt>
      <trkpt lat="46.55499" lon="6.10332">
        <ele>1217</ele>
        <time>2021-08-11T12:08:31Z</time>
      </trkpt>
      <trkpt lat="46.55504" lon="6.10322">
        <ele>1217</ele>
        <time>2021-08-11T12:08:37Z</time>
      </trkpt>
      <trkpt lat="46.55504" lon="6.10311">
        <ele>1217</ele>
        <time>2021-08-11T12:08:44Z</time>
      </trkpt>
      <trkpt lat="46.55504" lon="6.10301">
        <ele>1217</ele>
        <time>2021-08-11T12:08:53Z</time>
      </trkpt>
      <trkpt lat="46.55506" lon="6.10256">
        <ele>1217</ele>
        <time>2021-08-11T12:09:20Z</time>
      </trkpt>
      <trkpt lat="46.55511" lon="6.10234">
        <ele>1217</ele>
        <time>2021-08-11T12:09:34Z</time>
      </trkpt>
      <trkpt lat="46.55519" lon="6.10213">
        <ele>1217</ele>
        <time>2021-08-11T12:09:45Z</time>
      </trkpt>
      <trkpt lat="46.55524" lon="6.10205">
        <ele>1217</ele>
        <time>2021-08-11T12:09:50Z</time>
      </trkpt>
      <trkpt lat="46.55532" lon="6.10199">
        <ele>1217</ele>
        <time>2021-08-11T12:09:55Z</time>
      </trkpt>
      <trkpt lat="46.55538" lon="6.10195">
        <ele>1217</ele>
        <time>2021-08-11T12:10:00Z</time>
      </trkpt>
      <trkpt lat="46.55544" lon="6.10188">
        <ele>1217</ele>
        <time>2021-08-11T12:10:05Z</time>
      </trkpt>
      <trkpt lat="46.55552" lon="6.10186">
        <ele>1217</ele>
        <time>2021-08-11T12:10:10Z</time>
      </trkpt>
      <trkpt lat="46.55567" lon="6.10157">
        <ele>1218</ele>
        <time>2021-08-11T12:10:38Z</time>
      </trkpt>
      <trkpt lat="46.55575" lon="6.10152">
        <ele>1218</ele>
        <time>2021-08-11T12:10:49Z</time>
      </trkpt>
      <trkpt lat="46.55587" lon="6.10138">
        <ele>1218</ele>
        <time>2021-08-11T12:11:07Z</time>
      </trkpt>
      <trkpt lat="46.55594" lon="6.10137">
        <ele>1218</ele>
        <time>2021-08-11T12:11:12Z</time>
      </trkpt>
      <trkpt lat="46.55617" lon="6.10118">
        <ele>1219</ele>
        <time>2021-08-11T12:11:34Z</time>
      </trkpt>
      <trkpt lat="46.55649" lon="6.10067">
        <ele>1220</ele>
        <time>2021-08-11T12:12:06Z</time>
      </trkpt>
      <trkpt lat="46.55658" lon="6.10048">
        <ele>1221</ele>
        <time>2021-08-11T12:12:16Z</time>
      </trkpt>
      <trkpt lat="46.5566" lon="6.10031">
        <ele>1221</ele>
        <time>2021-08-11T12:12:28Z</time>
      </trkpt>
      <trkpt lat="46.55676" lon="6.09993">
        <ele>1222</ele>
        <time>2021-08-11T12:12:53Z</time>
      </trkpt>
      <trkpt lat="46.55699" lon="6.09969">
        <ele>1223</ele>
        <time>2021-08-11T12:13:15Z</time>
      </trkpt>
      <trkpt lat="46.55708" lon="6.09947">
        <ele>1224</ele>
        <time>2021-08-11T12:13:30Z</time>
      </trkpt>
      <trkpt lat="46.5571" lon="6.09939">
        <ele>1224</ele>
        <time>2021-08-11T12:13:34Z</time>
      </trkpt>
      <trkpt lat="46.55711" lon="6.09931">
        <ele>1225</ele>
        <time>2021-08-11T12:13:40Z</time>
      </trkpt>
      <trkpt lat="46.5571" lon="6.09922">
        <ele>1225</ele>
        <time>2021-08-11T12:13:45Z</time>
      </trkpt>
      <trkpt lat="46.55707" lon="6.09915">
        <ele>1225</ele>
        <time>2021-08-11T12:13:48Z</time>
      </trkpt>
      <trkpt lat="46.55701" lon="6.09902">
        <ele>1226</ele>
        <time>2021-08-11T12:13:57Z</time>
      </trkpt>
      <trkpt lat="46.55696" lon="6.09896">
        <ele>1227</ele>
        <time>2021-08-11T12:14:01Z</time>
      </trkpt>
      <trkpt lat="46.55691" lon="6.09885">
        <ele>1227</ele>
        <time>2021-08-11T12:14:09Z</time>
      </trkpt>
      <trkpt lat="46.55678" lon="6.09872">
        <ele>1228</ele>
        <time>2021-08-11T12:14:21Z</time>
      </trkpt>
      <trkpt lat="46.55673" lon="6.09864">
        <ele>1228</ele>
        <time>2021-08-11T12:14:28Z</time>
      </trkpt>
      <trkpt lat="46.55671" lon="6.0985">
        <ele>1228</ele>
        <time>2021-08-11T12:14:37Z</time>
      </trkpt>
      <trkpt lat="46.55671" lon="6.09839">
        <ele>1228</ele>
        <time>2021-08-11T12:14:42Z</time>
      </trkpt>
      <trkpt lat="46.5567" lon="6.09821">
        <ele>1229</ele>
        <time>2021-08-11T12:14:49Z</time>
      </trkpt>
      <trkpt lat="46.55673" lon="6.09812">
        <ele>1229</ele>
        <time>2021-08-11T12:14:54Z</time>
      </trkpt>
      <trkpt lat="46.55677" lon="6.09807">
        <ele>1229</ele>
        <time>2021-08-11T12:14:58Z</time>
      </trkpt>
      <trkpt lat="46.5568" lon="6.09798">
        <ele>1230</ele>
        <time>2021-08-11T12:15:03Z</time>
      </trkpt>
      <trkpt lat="46.55685" lon="6.09792">
        <ele>1229</ele>
        <time>2021-08-11T12:15:08Z</time>
      </trkpt>
      <trkpt lat="46.55689" lon="6.09784">
        <ele>1232</ele>
        <time>2021-08-11T12:15:12Z</time>
      </trkpt>
      <trkpt lat="46.55693" lon="6.09778">
        <ele>1231</ele>
        <time>2021-08-11T12:15:17Z</time>
      </trkpt>
      <trkpt lat="46.55702" lon="6.09767">
        <ele>1231</ele>
        <time>2021-08-11T12:15:26Z</time>
      </trkpt>
      <trkpt lat="46.55707" lon="6.09757">
        <ele>1231</ele>
        <time>2021-08-11T12:15:34Z</time>
      </trkpt>
      <trkpt lat="46.55713" lon="6.0975">
        <ele>1231</ele>
        <time>2021-08-11T12:15:40Z</time>
      </trkpt>
      <trkpt lat="46.55726" lon="6.09744">
        <ele>1232</ele>
        <time>2021-08-11T12:15:52Z</time>
      </trkpt>
      <trkpt lat="46.55737" lon="6.09733">
        <ele>1233</ele>
        <time>2021-08-11T12:16:02Z</time>
      </trkpt>
      <trkpt lat="46.55745" lon="6.0972">
        <ele>1233</ele>
        <time>2021-08-11T12:16:11Z</time>
      </trkpt>
      <trkpt lat="46.55747" lon="6.09712">
        <ele>1233</ele>
        <time>2021-08-11T12:16:17Z</time>
      </trkpt>
      <trkpt lat="46.55746" lon="6.09705">
        <ele>1234</ele>
        <time>2021-08-11T12:16:22Z</time>
      </trkpt>
      <trkpt lat="46.55743" lon="6.09692">
        <ele>1234</ele>
        <time>2021-08-11T12:16:32Z</time>
      </trkpt>
      <trkpt lat="46.55739" lon="6.09683">
        <ele>1235</ele>
        <time>2021-08-11T12:16:38Z</time>
      </trkpt>
      <trkpt lat="46.55739" lon="6.09671">
        <ele>1235</ele>
        <time>2021-08-11T12:16:44Z</time>
      </trkpt>
      <trkpt lat="46.55747" lon="6.09651">
        <ele>1236</ele>
        <time>2021-08-11T12:16:56Z</time>
      </trkpt>
      <trkpt lat="46.55752" lon="6.09643">
        <ele>1236</ele>
        <time>2021-08-11T12:17:00Z</time>
      </trkpt>
      <trkpt lat="46.55758" lon="6.09638">
        <ele>1236</ele>
        <time>2021-08-11T12:17:06Z</time>
      </trkpt>
      <trkpt lat="46.5577" lon="6.09633">
        <ele>1237</ele>
        <time>2021-08-11T12:17:18Z</time>
      </trkpt>
      <trkpt lat="46.55797" lon="6.09608">
        <ele>1240</ele>
        <time>2021-08-11T12:17:44Z</time>
      </trkpt>
      <trkpt lat="46.55803" lon="6.096">
        <ele>1241</ele>
        <time>2021-08-11T12:17:50Z</time>
      </trkpt>
      <trkpt lat="46.5581" lon="6.09595">
        <ele>1241</ele>
        <time>2021-08-11T12:17:56Z</time>
      </trkpt>
      <trkpt lat="46.55841" lon="6.09562">
        <ele>1243</ele>
        <time>2021-08-11T12:18:28Z</time>
      </trkpt>
      <trkpt lat="46.55846" lon="6.0956">
        <ele>1243</ele>
        <time>2021-08-11T12:18:33Z</time>
      </trkpt>
      <trkpt lat="46.55853" lon="6.09554">
        <ele>1244</ele>
        <time>2021-08-11T12:18:48Z</time>
      </trkpt>
      <trkpt lat="46.55868" lon="6.09565">
        <ele>1244</ele>
        <time>2021-08-11T12:19:06Z</time>
      </trkpt>
      <trkpt lat="46.55871" lon="6.09563">
        <ele>1244</ele>
        <time>2021-08-11T12:20:07Z</time>
      </trkpt>
      <trkpt lat="46.55862" lon="6.09574">
        <ele>1244</ele>
        <time>2021-08-11T12:21:47Z</time>
      </trkpt>
      <trkpt lat="46.55861" lon="6.09571">
        <ele>1243</ele>
        <time>2021-08-11T12:22:28Z</time>
      </trkpt>
      <trkpt lat="46.5587" lon="6.09572">
        <ele>1243</ele>
        <time>2021-08-11T12:22:40Z</time>
      </trkpt>
      <trkpt lat="46.55872" lon="6.09564">
        <ele>1243</ele>
        <time>2021-08-11T12:22:51Z</time>
      </trkpt>
      <trkpt lat="46.55879" lon="6.09576">
        <ele>1244</ele>
        <time>2021-08-11T12:23:07Z</time>
      </trkpt>
      <trkpt lat="46.55886" lon="6.09593">
        <ele>1244</ele>
        <time>2021-08-11T12:23:19Z</time>
      </trkpt>
      <trkpt lat="46.55891" lon="6.09606">
        <ele>1245</ele>
        <time>2021-08-11T12:23:30Z</time>
      </trkpt>
      <trkpt lat="46.55907" lon="6.09629">
        <ele>1246</ele>
        <time>2021-08-11T12:23:53Z</time>
      </trkpt>
      <trkpt lat="46.55909" lon="6.09636">
        <ele>1246</ele>
        <time>2021-08-11T12:23:57Z</time>
      </trkpt>
      <trkpt lat="46.55908" lon="6.09662">
        <ele>1246</ele>
        <time>2021-08-11T12:24:11Z</time>
      </trkpt>
      <trkpt lat="46.55908" lon="6.09682">
        <ele>1247</ele>
        <time>2021-08-11T12:24:25Z</time>
      </trkpt>
      <trkpt lat="46.55904" lon="6.09689">
        <ele>1248</ele>
        <time>2021-08-11T12:24:29Z</time>
      </trkpt>
      <trkpt lat="46.55899" lon="6.0971">
        <ele>1250</ele>
        <time>2021-08-11T12:24:47Z</time>
      </trkpt>
      <trkpt lat="46.55898" lon="6.09719">
        <ele>1250</ele>
        <time>2021-08-11T12:24:52Z</time>
      </trkpt>
      <trkpt lat="46.55901" lon="6.09727">
        <ele>1250</ele>
        <time>2021-08-11T12:24:55Z</time>
      </trkpt>
      <trkpt lat="46.55906" lon="6.09744">
        <ele>1250</ele>
        <time>2021-08-11T12:25:07Z</time>
      </trkpt>
      <trkpt lat="46.55915" lon="6.09757">
        <ele>1251</ele>
        <time>2021-08-11T12:25:17Z</time>
      </trkpt>
      <trkpt lat="46.55923" lon="6.09758">
        <ele>1253</ele>
        <time>2021-08-11T12:25:26Z</time>
      </trkpt>
      <trkpt lat="46.55933" lon="6.09756">
        <ele>1255</ele>
        <time>2021-08-11T12:25:40Z</time>
      </trkpt>
      <trkpt lat="46.5596" lon="6.09762">
        <ele>1256</ele>
        <time>2021-08-11T12:26:02Z</time>
      </trkpt>
      <trkpt lat="46.55972" lon="6.09772">
        <ele>1256</ele>
        <time>2021-08-11T12:26:13Z</time>
      </trkpt>
      <trkpt lat="46.55991" lon="6.09792">
        <ele>1258</ele>
        <time>2021-08-11T12:26:29Z</time>
      </trkpt>
      <trkpt lat="46.56001" lon="6.09813">
        <ele>1260</ele>
        <time>2021-08-11T12:26:49Z</time>
      </trkpt>
      <trkpt lat="46.56008" lon="6.0984">
        <ele>1261</ele>
        <time>2021-08-11T12:27:02Z</time>
      </trkpt>
      <trkpt lat="46.56012" lon="6.09846">
        <ele>1260</ele>
        <time>2021-08-11T12:27:07Z</time>
      </trkpt>
      <trkpt lat="46.56017" lon="6.09862">
        <ele>1260</ele>
        <time>2021-08-11T12:27:17Z</time>
      </trkpt>
      <trkpt lat="46.56018" lon="6.09874">
        <ele>1259</ele>
        <time>2021-08-11T12:27:24Z</time>
      </trkpt>
      <trkpt lat="46.56025" lon="6.09903">
        <ele>1258</ele>
        <time>2021-08-11T12:27:41Z</time>
      </trkpt>
      <trkpt lat="46.56035" lon="6.09918">
        <ele>1257</ele>
        <time>2021-08-11T12:27:55Z</time>
      </trkpt>
      <trkpt lat="46.56056" lon="6.09925">
        <ele>1257</ele>
        <time>2021-08-11T12:28:15Z</time>
      </trkpt>
      <trkpt lat="46.56061" lon="6.0993">
        <ele>1256</ele>
        <time>2021-08-11T12:28:21Z</time>
      </trkpt>
      <trkpt lat="46.56068" lon="6.09933">
        <ele>1256</ele>
        <time>2021-08-11T12:28:29Z</time>
      </trkpt>
      <trkpt lat="46.56077" lon="6.09936">
        <ele>1255</ele>
        <time>2021-08-11T12:28:37Z</time>
      </trkpt>
      <trkpt lat="46.56083" lon="6.09942">
        <ele>1255</ele>
        <time>2021-08-11T12:28:42Z</time>
      </trkpt>
      <trkpt lat="46.5609" lon="6.09948">
        <ele>1255</ele>
        <time>2021-08-11T12:28:48Z</time>
      </trkpt>
      <trkpt lat="46.56094" lon="6.09957">
        <ele>1256</ele>
        <time>2021-08-11T12:28:53Z</time>
      </trkpt>
      <trkpt lat="46.56108" lon="6.09969">
        <ele>1258</ele>
        <time>2021-08-11T12:29:04Z</time>
      </trkpt>
      <trkpt lat="46.56115" lon="6.09974">
        <ele>1258</ele>
        <time>2021-08-11T12:29:10Z</time>
      </trkpt>
      <trkpt lat="46.56117" lon="6.09989">
        <ele>1259</ele>
        <time>2021-08-11T12:29:20Z</time>
      </trkpt>
      <trkpt lat="46.56119" lon="6.09999">
        <ele>1258</ele>
        <time>2021-08-11T12:29:26Z</time>
      </trkpt>
      <trkpt lat="46.56119" lon="6.10056">
        <ele>1255</ele>
        <time>2021-08-11T12:29:59Z</time>
      </trkpt>
      <trkpt lat="46.56136" lon="6.10121">
        <ele>1253</ele>
        <time>2021-08-11T12:30:36Z</time>
      </trkpt>
      <trkpt lat="46.56139" lon="6.10129">
        <ele>1252</ele>
        <time>2021-08-11T12:30:42Z</time>
      </trkpt>
      <trkpt lat="46.56144" lon="6.10137">
        <ele>1252</ele>
        <time>2021-08-11T12:30:46Z</time>
      </trkpt>
      <trkpt lat="46.56146" lon="6.10144">
        <ele>1252</ele>
        <time>2021-08-11T12:30:51Z</time>
      </trkpt>
      <trkpt lat="46.5615" lon="6.10152">
        <ele>1252</ele>
        <time>2021-08-11T12:30:54Z</time>
      </trkpt>
      <trkpt lat="46.56157" lon="6.10167">
        <ele>1251</ele>
        <time>2021-08-11T12:31:02Z</time>
      </trkpt>
      <trkpt lat="46.56161" lon="6.10177">
        <ele>1251</ele>
        <time>2021-08-11T12:31:13Z</time>
      </trkpt>
      <trkpt lat="46.5618" lon="6.10195">
        <ele>1253</ele>
        <time>2021-08-11T12:31:39Z</time>
      </trkpt>
      <trkpt lat="46.56187" lon="6.10201">
        <ele>1255</ele>
        <time>2021-08-11T12:31:47Z</time>
      </trkpt>
      <trkpt lat="46.56192" lon="6.10209">
        <ele>1255</ele>
        <time>2021-08-11T12:31:52Z</time>
      </trkpt>
      <trkpt lat="46.56197" lon="6.10213">
        <ele>1255</ele>
        <time>2021-08-11T12:31:56Z</time>
      </trkpt>
      <trkpt lat="46.56203" lon="6.10217">
        <ele>1256</ele>
        <time>2021-08-11T12:32:00Z</time>
      </trkpt>
      <trkpt lat="46.56212" lon="6.10227">
        <ele>1256</ele>
        <time>2021-08-11T12:32:07Z</time>
      </trkpt>
      <trkpt lat="46.5622" lon="6.10239">
        <ele>1258</ele>
        <time>2021-08-11T12:32:17Z</time>
      </trkpt>
      <trkpt lat="46.56226" lon="6.10243">
        <ele>1260</ele>
        <time>2021-08-11T12:32:26Z</time>
      </trkpt>
      <trkpt lat="46.56231" lon="6.10253">
        <ele>1261</ele>
        <time>2021-08-11T12:32:37Z</time>
      </trkpt>
      <trkpt lat="46.56243" lon="6.10258">
        <ele>1262</ele>
        <time>2021-08-11T12:32:50Z</time>
      </trkpt>
      <trkpt lat="46.56249" lon="6.10256">
        <ele>1262</ele>
        <time>2021-08-11T12:32:57Z</time>
      </trkpt>
      <trkpt lat="46.56257" lon="6.10253">
        <ele>1263</ele>
        <time>2021-08-11T12:33:03Z</time>
      </trkpt>
      <trkpt lat="46.56264" lon="6.10249">
        <ele>1263</ele>
        <time>2021-08-11T12:33:08Z</time>
      </trkpt>
      <trkpt lat="46.56272" lon="6.1025">
        <ele>1264</ele>
        <time>2021-08-11T12:33:15Z</time>
      </trkpt>
      <trkpt lat="46.56301" lon="6.10263">
        <ele>1267</ele>
        <time>2021-08-11T12:33:46Z</time>
      </trkpt>
      <trkpt lat="46.56327" lon="6.10287">
        <ele>1268</ele>
        <time>2021-08-11T12:34:12Z</time>
      </trkpt>
      <trkpt lat="46.56335" lon="6.1029">
        <ele>1268</ele>
        <time>2021-08-11T12:34:17Z</time>
      </trkpt>
      <trkpt lat="46.56341" lon="6.10295">
        <ele>1268</ele>
        <time>2021-08-11T12:34:24Z</time>
      </trkpt>
      <trkpt lat="46.56347" lon="6.10304">
        <ele>1267</ele>
        <time>2021-08-11T12:34:34Z</time>
      </trkpt>
      <trkpt lat="46.56354" lon="6.1031">
        <ele>1266</ele>
        <time>2021-08-11T12:34:41Z</time>
      </trkpt>
      <trkpt lat="46.56362" lon="6.10302">
        <ele>1267</ele>
        <time>2021-08-11T12:35:03Z</time>
      </trkpt>
      <trkpt lat="46.56374" lon="6.10293">
        <ele>1268</ele>
        <time>2021-08-11T12:35:19Z</time>
      </trkpt>
      <trkpt lat="46.5638" lon="6.10284">
        <ele>1270</ele>
        <time>2021-08-11T12:35:29Z</time>
      </trkpt>
      <trkpt lat="46.56392" lon="6.10271">
        <ele>1272</ele>
        <time>2021-08-11T12:35:43Z</time>
      </trkpt>
      <trkpt lat="46.56402" lon="6.1023">
        <ele>1275</ele>
        <time>2021-08-11T12:36:13Z</time>
      </trkpt>
      <trkpt lat="46.56411" lon="6.10215">
        <ele>1278</ele>
        <time>2021-08-11T12:36:33Z</time>
      </trkpt>
      <trkpt lat="46.56428" lon="6.10206">
        <ele>1279</ele>
        <time>2021-08-11T12:36:54Z</time>
      </trkpt>
      <trkpt lat="46.56439" lon="6.10196">
        <ele>1281</ele>
        <time>2021-08-11T12:37:11Z</time>
      </trkpt>
      <trkpt lat="46.56448" lon="6.10188">
        <ele>1282</ele>
        <time>2021-08-11T12:37:26Z</time>
      </trkpt>
      <trkpt lat="46.56461" lon="6.10169">
        <ele>1284</ele>
        <time>2021-08-11T12:37:44Z</time>
      </trkpt>
      <trkpt lat="46.56468" lon="6.10161">
        <ele>1285</ele>
        <time>2021-08-11T12:37:56Z</time>
      </trkpt>
      <trkpt lat="46.5647" lon="6.10142">
        <ele>1287</ele>
        <time>2021-08-11T12:38:09Z</time>
      </trkpt>
      <trkpt lat="46.56476" lon="6.10132">
        <ele>1288</ele>
        <time>2021-08-11T12:38:23Z</time>
      </trkpt>
      <trkpt lat="46.56484" lon="6.10121">
        <ele>1290</ele>
        <time>2021-08-11T12:38:37Z</time>
      </trkpt>
      <trkpt lat="46.56492" lon="6.10116">
        <ele>1291</ele>
        <time>2021-08-11T12:38:52Z</time>
      </trkpt>
      <trkpt lat="46.56498" lon="6.10108">
        <ele>1292</ele>
        <time>2021-08-11T12:38:58Z</time>
      </trkpt>
      <trkpt lat="46.56503" lon="6.10098">
        <ele>1292</ele>
        <time>2021-08-11T12:39:03Z</time>
      </trkpt>
      <trkpt lat="46.5651" lon="6.10095">
        <ele>1293</ele>
        <time>2021-08-11T12:39:14Z</time>
      </trkpt>
      <trkpt lat="46.56514" lon="6.10083">
        <ele>1294</ele>
        <time>2021-08-11T12:39:28Z</time>
      </trkpt>
      <trkpt lat="46.56522" lon="6.10087">
        <ele>1293</ele>
        <time>2021-08-11T12:40:01Z</time>
      </trkpt>
      <trkpt lat="46.56529" lon="6.10085">
        <ele>1293</ele>
        <time>2021-08-11T12:40:28Z</time>
      </trkpt>
      <trkpt lat="46.56536" lon="6.10084">
        <ele>1294</ele>
        <time>2021-08-11T12:40:40Z</time>
      </trkpt>
      <trkpt lat="46.56541" lon="6.10078">
        <ele>1294</ele>
        <time>2021-08-11T12:40:48Z</time>
      </trkpt>
      <trkpt lat="46.56546" lon="6.10074">
        <ele>1295</ele>
        <time>2021-08-11T12:40:52Z</time>
      </trkpt>
      <trkpt lat="46.56552" lon="6.10067">
        <ele>1295</ele>
        <time>2021-08-11T12:40:59Z</time>
      </trkpt>
      <trkpt lat="46.56559" lon="6.10063">
        <ele>1294</ele>
        <time>2021-08-11T12:41:11Z</time>
      </trkpt>
      <trkpt lat="46.56569" lon="6.10055">
        <ele>1293</ele>
        <time>2021-08-11T12:41:23Z</time>
      </trkpt>
      <trkpt lat="46.5658" lon="6.10049">
        <ele>1292</ele>
        <time>2021-08-11T12:41:35Z</time>
      </trkpt>
      <trkpt lat="46.5659" lon="6.1005">
        <ele>1290</ele>
        <time>2021-08-11T12:41:46Z</time>
      </trkpt>
      <trkpt lat="46.56604" lon="6.10066">
        <ele>1288</ele>
        <time>2021-08-11T12:42:01Z</time>
      </trkpt>
      <trkpt lat="46.56614" lon="6.10098">
        <ele>1286</ele>
        <time>2021-08-11T12:42:24Z</time>
      </trkpt>
      <trkpt lat="46.56613" lon="6.10106">
        <ele>1285</ele>
        <time>2021-08-11T12:42:29Z</time>
      </trkpt>
      <trkpt lat="46.5662" lon="6.10119">
        <ele>1284</ele>
        <time>2021-08-11T12:42:43Z</time>
      </trkpt>
      <trkpt lat="46.56626" lon="6.10122">
        <ele>1283</ele>
        <time>2021-08-11T12:42:50Z</time>
      </trkpt>
      <trkpt lat="46.56637" lon="6.10121">
        <ele>1280</ele>
        <time>2021-08-11T12:43:02Z</time>
      </trkpt>
      <trkpt lat="46.56647" lon="6.10111">
        <ele>1279</ele>
        <time>2021-08-11T12:43:12Z</time>
      </trkpt>
      <trkpt lat="46.56651" lon="6.10104">
        <ele>1278</ele>
        <time>2021-08-11T12:43:17Z</time>
      </trkpt>
      <trkpt lat="46.56653" lon="6.10093">
        <ele>1277</ele>
        <time>2021-08-11T12:43:38Z</time>
      </trkpt>
      <trkpt lat="46.56655" lon="6.10082">
        <ele>1273</ele>
        <time>2021-08-11T12:44:33Z</time>
      </trkpt>
      <trkpt lat="46.56646" lon="6.10049">
        <ele>1271</ele>
        <time>2021-08-11T12:44:50Z</time>
      </trkpt>
      <trkpt lat="46.56651" lon="6.10027">
        <ele>1268</ele>
        <time>2021-08-11T12:45:09Z</time>
      </trkpt>
      <trkpt lat="46.56656" lon="6.10018">
        <ele>1267</ele>
        <time>2021-08-11T12:45:15Z</time>
      </trkpt>
      <trkpt lat="46.56661" lon="6.10001">
        <ele>1267</ele>
        <time>2021-08-11T12:45:30Z</time>
      </trkpt>
      <trkpt lat="46.56664" lon="6.09989">
        <ele>1266</ele>
        <time>2021-08-11T12:45:38Z</time>
      </trkpt>
      <trkpt lat="46.56673" lon="6.09988">
        <ele>1264</ele>
        <time>2021-08-11T12:45:52Z</time>
      </trkpt>
      <trkpt lat="46.56687" lon="6.09995">
        <ele>1264</ele>
        <time>2021-08-11T12:46:06Z</time>
      </trkpt>
      <trkpt lat="46.56694" lon="6.1">
        <ele>1264</ele>
        <time>2021-08-11T12:46:12Z</time>
      </trkpt>
      <trkpt lat="46.56703" lon="6.09999">
        <ele>1265</ele>
        <time>2021-08-11T12:46:22Z</time>
      </trkpt>
      <trkpt lat="46.56714" lon="6.10004">
        <ele>1268</ele>
        <time>2021-08-11T12:46:34Z</time>
      </trkpt>
      <trkpt lat="46.56721" lon="6.10009">
        <ele>1268</ele>
        <time>2021-08-11T12:46:39Z</time>
      </trkpt>
      <trkpt lat="46.56728" lon="6.10012">
        <ele>1268</ele>
        <time>2021-08-11T12:46:46Z</time>
      </trkpt>
      <trkpt lat="46.56743" lon="6.10017">
        <ele>1270</ele>
        <time>2021-08-11T12:47:01Z</time>
      </trkpt>
      <trkpt lat="46.56752" lon="6.10016">
        <ele>1270</ele>
        <time>2021-08-11T12:47:14Z</time>
      </trkpt>
      <trkpt lat="46.5676" lon="6.10023">
        <ele>1272</ele>
        <time>2021-08-11T12:47:27Z</time>
      </trkpt>
      <trkpt lat="46.5679" lon="6.10041">
        <ele>1274</ele>
        <time>2021-08-11T12:48:01Z</time>
      </trkpt>
      <trkpt lat="46.56804" lon="6.1005">
        <ele>1275</ele>
        <time>2021-08-11T12:48:12Z</time>
      </trkpt>
      <trkpt lat="46.5681" lon="6.10058">
        <ele>1274</ele>
        <time>2021-08-11T12:48:17Z</time>
      </trkpt>
      <trkpt lat="46.56816" lon="6.10066">
        <ele>1275</ele>
        <time>2021-08-11T12:48:24Z</time>
      </trkpt>
      <trkpt lat="46.56819" lon="6.10076">
        <ele>1275</ele>
        <time>2021-08-11T12:48:31Z</time>
      </trkpt>
      <trkpt lat="46.5682" lon="6.10095">
        <ele>1274</ele>
        <time>2021-08-11T12:48:47Z</time>
      </trkpt>
      <trkpt lat="46.56827" lon="6.10113">
        <ele>1274</ele>
        <time>2021-08-11T12:48:59Z</time>
      </trkpt>
      <trkpt lat="46.56835" lon="6.10125">
        <ele>1275</ele>
        <time>2021-08-11T12:49:10Z</time>
      </trkpt>
      <trkpt lat="46.5684" lon="6.10134">
        <ele>1275</ele>
        <time>2021-08-11T12:49:18Z</time>
      </trkpt>
      <trkpt lat="46.5685" lon="6.1015">
        <ele>1275</ele>
        <time>2021-08-11T12:49:31Z</time>
      </trkpt>
      <trkpt lat="46.56854" lon="6.10154">
        <ele>1275</ele>
        <time>2021-08-11T12:49:36Z</time>
      </trkpt>
      <trkpt lat="46.56866" lon="6.10158">
        <ele>1276</ele>
        <time>2021-08-11T12:49:49Z</time>
      </trkpt>
      <trkpt lat="46.56877" lon="6.10168">
        <ele>1275</ele>
        <time>2021-08-11T12:50:05Z</time>
      </trkpt>
      <trkpt lat="46.56882" lon="6.10177">
        <ele>1275</ele>
        <time>2021-08-11T12:50:11Z</time>
      </trkpt>
      <trkpt lat="46.56897" lon="6.10221">
        <ele>1274</ele>
        <time>2021-08-11T12:50:40Z</time>
      </trkpt>
      <trkpt lat="46.56902" lon="6.10229">
        <ele>1274</ele>
        <time>2021-08-11T12:50:50Z</time>
      </trkpt>
      <trkpt lat="46.56908" lon="6.10238">
        <ele>1272</ele>
        <time>2021-08-11T12:50:58Z</time>
      </trkpt>
      <trkpt lat="46.56912" lon="6.10249">
        <ele>1272</ele>
        <time>2021-08-11T12:51:05Z</time>
      </trkpt>
      <trkpt lat="46.56916" lon="6.10254">
        <ele>1272</ele>
        <time>2021-08-11T12:51:10Z</time>
      </trkpt>
      <trkpt lat="46.56923" lon="6.10259">
        <ele>1272</ele>
        <time>2021-08-11T12:51:17Z</time>
      </trkpt>
      <trkpt lat="46.56933" lon="6.10259">
        <ele>1274</ele>
        <time>2021-08-11T12:51:30Z</time>
      </trkpt>
      <trkpt lat="46.56941" lon="6.1026">
        <ele>1276</ele>
        <time>2021-08-11T12:51:44Z</time>
      </trkpt>
      <trkpt lat="46.5695" lon="6.10267">
        <ele>1278</ele>
        <time>2021-08-11T12:51:57Z</time>
      </trkpt>
      <trkpt lat="46.5696" lon="6.10272">
        <ele>1280</ele>
        <time>2021-08-11T12:52:11Z</time>
      </trkpt>
      <trkpt lat="46.56969" lon="6.10278">
        <ele>1280</ele>
        <time>2021-08-11T12:52:24Z</time>
      </trkpt>
      <trkpt lat="46.56978" lon="6.10282">
        <ele>1282</ele>
        <time>2021-08-11T12:52:36Z</time>
      </trkpt>
      <trkpt lat="46.56982" lon="6.10288">
        <ele>1283</ele>
        <time>2021-08-11T12:52:43Z</time>
      </trkpt>
      <trkpt lat="46.5699" lon="6.10293">
        <ele>1285</ele>
        <time>2021-08-11T12:52:55Z</time>
      </trkpt>
      <trkpt lat="46.56998" lon="6.10296">
        <ele>1284</ele>
        <time>2021-08-11T12:53:07Z</time>
      </trkpt>
      <trkpt lat="46.57007" lon="6.10303">
        <ele>1285</ele>
        <time>2021-08-11T12:53:21Z</time>
      </trkpt>
      <trkpt lat="46.57013" lon="6.1031">
        <ele>1285</ele>
        <time>2021-08-11T12:53:30Z</time>
      </trkpt>
      <trkpt lat="46.57032" lon="6.10325">
        <ele>1286</ele>
        <time>2021-08-11T12:53:47Z</time>
      </trkpt>
      <trkpt lat="46.57038" lon="6.10326">
        <ele>1285</ele>
        <time>2021-08-11T12:53:52Z</time>
      </trkpt>
      <trkpt lat="46.57044" lon="6.10334">
        <ele>1284</ele>
        <time>2021-08-11T12:54:00Z</time>
      </trkpt>
      <trkpt lat="46.57054" lon="6.10349">
        <ele>1284</ele>
        <time>2021-08-11T12:54:18Z</time>
      </trkpt>
      <trkpt lat="46.57061" lon="6.10359">
        <ele>1282</ele>
        <time>2021-08-11T12:54:31Z</time>
      </trkpt>
      <trkpt lat="46.57065" lon="6.10372">
        <ele>1280</ele>
        <time>2021-08-11T12:54:44Z</time>
      </trkpt>
      <trkpt lat="46.57072" lon="6.10368">
        <ele>1280</ele>
        <time>2021-08-11T12:54:51Z</time>
      </trkpt>
      <trkpt lat="46.57077" lon="6.10359">
        <ele>1279</ele>
        <time>2021-08-11T12:54:57Z</time>
      </trkpt>
      <trkpt lat="46.57085" lon="6.10355">
        <ele>1277</ele>
        <time>2021-08-11T12:55:12Z</time>
      </trkpt>
      <trkpt lat="46.57095" lon="6.10354">
        <ele>1278</ele>
        <time>2021-08-11T12:55:25Z</time>
      </trkpt>
      <trkpt lat="46.57103" lon="6.10358">
        <ele>1280</ele>
        <time>2021-08-11T12:55:37Z</time>
      </trkpt>
      <trkpt lat="46.57109" lon="6.10364">
        <ele>1281</ele>
        <time>2021-08-11T12:55:49Z</time>
      </trkpt>
      <trkpt lat="46.5711" lon="6.10376">
        <ele>1278</ele>
        <time>2021-08-11T12:56:13Z</time>
      </trkpt>
      <trkpt lat="46.5712" lon="6.10377">
        <ele>1276</ele>
        <time>2021-08-11T12:56:26Z</time>
      </trkpt>
      <trkpt lat="46.57131" lon="6.10379">
        <ele>1275</ele>
        <time>2021-08-11T12:56:38Z</time>
      </trkpt>
      <trkpt lat="46.57139" lon="6.10376">
        <ele>1274</ele>
        <time>2021-08-11T12:56:43Z</time>
      </trkpt>
      <trkpt lat="46.57145" lon="6.10382">
        <ele>1275</ele>
        <time>2021-08-11T12:56:50Z</time>
      </trkpt>
      <trkpt lat="46.57154" lon="6.1038">
        <ele>1276</ele>
        <time>2021-08-11T12:57:01Z</time>
      </trkpt>
      <trkpt lat="46.57163" lon="6.10383">
        <ele>1278</ele>
        <time>2021-08-11T12:57:13Z</time>
      </trkpt>
      <trkpt lat="46.57172" lon="6.10387">
        <ele>1280</ele>
        <time>2021-08-11T12:57:27Z</time>
      </trkpt>
      <trkpt lat="46.57179" lon="6.10396">
        <ele>1283</ele>
        <time>2021-08-11T12:57:45Z</time>
      </trkpt>
      <trkpt lat="46.5719" lon="6.10399">
        <ele>1284</ele>
        <time>2021-08-11T12:58:00Z</time>
      </trkpt>
      <trkpt lat="46.57197" lon="6.10404">
        <ele>1285</ele>
        <time>2021-08-11T12:58:07Z</time>
      </trkpt>
      <trkpt lat="46.57207" lon="6.10409">
        <ele>1286</ele>
        <time>2021-08-11T12:58:21Z</time>
      </trkpt>
      <trkpt lat="46.57214" lon="6.1041">
        <ele>1288</ele>
        <time>2021-08-11T12:58:34Z</time>
      </trkpt>
      <trkpt lat="46.57232" lon="6.1041">
        <ele>1286</ele>
        <time>2021-08-11T12:58:56Z</time>
      </trkpt>
      <trkpt lat="46.57241" lon="6.10412">
        <ele>1286</ele>
        <time>2021-08-11T12:59:07Z</time>
      </trkpt>
      <trkpt lat="46.57251" lon="6.10414">
        <ele>1288</ele>
        <time>2021-08-11T12:59:21Z</time>
      </trkpt>
      <trkpt lat="46.57258" lon="6.10409">
        <ele>1289</ele>
        <time>2021-08-11T12:59:29Z</time>
      </trkpt>
      <trkpt lat="46.57267" lon="6.10408">
        <ele>1289</ele>
        <time>2021-08-11T12:59:41Z</time>
      </trkpt>
      <trkpt lat="46.57286" lon="6.10418">
        <ele>1293</ele>
        <time>2021-08-11T13:00:04Z</time>
      </trkpt>
      <trkpt lat="46.57298" lon="6.10424">
        <ele>1294</ele>
        <time>2021-08-11T13:00:25Z</time>
      </trkpt>
      <trkpt lat="46.57304" lon="6.10419">
        <ele>1294</ele>
        <time>2021-08-11T13:00:36Z</time>
      </trkpt>
      <trkpt lat="46.57307" lon="6.1041">
        <ele>1295</ele>
        <time>2021-08-11T13:00:43Z</time>
      </trkpt>
      <trkpt lat="46.57311" lon="6.10404">
        <ele>1296</ele>
        <time>2021-08-11T13:00:53Z</time>
      </trkpt>
      <trkpt lat="46.57314" lon="6.1041">
        <ele>1294</ele>
        <time>2021-08-11T13:02:17Z</time>
      </trkpt>
      <trkpt lat="46.57306" lon="6.1041">
        <ele>1294</ele>
        <time>2021-08-11T13:03:35Z</time>
      </trkpt>
      <trkpt lat="46.57298" lon="6.10416">
        <ele>1292</ele>
        <time>2021-08-11T13:05:11Z</time>
      </trkpt>
      <trkpt lat="46.5729" lon="6.10426">
        <ele>1291</ele>
        <time>2021-08-11T13:05:29Z</time>
      </trkpt>
      <trkpt lat="46.57287" lon="6.10433">
        <ele>1293</ele>
        <time>2021-08-11T13:05:47Z</time>
      </trkpt>
      <trkpt lat="46.57292" lon="6.10445">
        <ele>1294</ele>
        <time>2021-08-11T13:06:06Z</time>
      </trkpt>
      <trkpt lat="46.57298" lon="6.10474">
        <ele>1292</ele>
        <time>2021-08-11T13:06:25Z</time>
      </trkpt>
      <trkpt lat="46.57303" lon="6.1049">
        <ele>1292</ele>
        <time>2021-08-11T13:06:40Z</time>
      </trkpt>
      <trkpt lat="46.5731" lon="6.10511">
        <ele>1292</ele>
        <time>2021-08-11T13:06:53Z</time>
      </trkpt>
      <trkpt lat="46.57315" lon="6.10523">
        <ele>1291</ele>
        <time>2021-08-11T13:07:05Z</time>
      </trkpt>
      <trkpt lat="46.57325" lon="6.10535">
        <ele>1289</ele>
        <time>2021-08-11T13:07:25Z</time>
      </trkpt>
      <trkpt lat="46.57344" lon="6.10564">
        <ele>1286</ele>
        <time>2021-08-11T13:08:03Z</time>
      </trkpt>
      <trkpt lat="46.57341" lon="6.10575">
        <ele>1285</ele>
        <time>2021-08-11T13:08:11Z</time>
      </trkpt>
      <trkpt lat="46.57337" lon="6.10583">
        <ele>1285</ele>
        <time>2021-08-11T13:08:24Z</time>
      </trkpt>
      <trkpt lat="46.57336" lon="6.10607">
        <ele>1282</ele>
        <time>2021-08-11T13:08:50Z</time>
      </trkpt>
      <trkpt lat="46.57349" lon="6.10635">
        <ele>1280</ele>
        <time>2021-08-11T13:09:26Z</time>
      </trkpt>
      <trkpt lat="46.57353" lon="6.10644">
        <ele>1279</ele>
        <time>2021-08-11T13:09:38Z</time>
      </trkpt>
      <trkpt lat="46.57358" lon="6.1063">
        <ele>1277</ele>
        <time>2021-08-11T13:09:52Z</time>
      </trkpt>
      <trkpt lat="46.57383" lon="6.10594">
        <ele>1270</ele>
        <time>2021-08-11T13:10:33Z</time>
      </trkpt>
      <trkpt lat="46.57389" lon="6.10589">
        <ele>1268</ele>
        <time>2021-08-11T13:10:41Z</time>
      </trkpt>
      <trkpt lat="46.57397" lon="6.10567">
        <ele>1266</ele>
        <time>2021-08-11T13:10:57Z</time>
      </trkpt>
      <trkpt lat="46.57389" lon="6.10534">
        <ele>1260</ele>
        <time>2021-08-11T13:11:29Z</time>
      </trkpt>
      <trkpt lat="46.57384" lon="6.10507">
        <ele>1251</ele>
        <time>2021-08-11T13:12:06Z</time>
      </trkpt>
      <trkpt lat="46.57383" lon="6.10496">
        <ele>1250</ele>
        <time>2021-08-11T13:12:12Z</time>
      </trkpt>
      <trkpt lat="46.57383" lon="6.10469">
        <ele>1241</ele>
        <time>2021-08-11T13:12:56Z</time>
      </trkpt>
      <trkpt lat="46.57384" lon="6.10457">
        <ele>1239</ele>
        <time>2021-08-11T13:13:08Z</time>
      </trkpt>
      <trkpt lat="46.57386" lon="6.10445">
        <ele>1236</ele>
        <time>2021-08-11T13:13:26Z</time>
      </trkpt>
      <trkpt lat="46.57385" lon="6.10433">
        <ele>1232</ele>
        <time>2021-08-11T13:13:44Z</time>
      </trkpt>
      <trkpt lat="46.57385" lon="6.10419">
        <ele>1228</ele>
        <time>2021-08-11T13:14:04Z</time>
      </trkpt>
      <trkpt lat="46.57385" lon="6.10405">
        <ele>1224</ele>
        <time>2021-08-11T13:14:28Z</time>
      </trkpt>
      <trkpt lat="46.57388" lon="6.1037">
        <ele>1215</ele>
        <time>2021-08-11T13:15:03Z</time>
      </trkpt>
      <trkpt lat="46.57385" lon="6.10358">
        <ele>1213</ele>
        <time>2021-08-11T13:15:18Z</time>
      </trkpt>
      <trkpt lat="46.57385" lon="6.10341">
        <ele>1209</ele>
        <time>2021-08-11T13:15:39Z</time>
      </trkpt>
      <trkpt lat="46.57383" lon="6.10329">
        <ele>1206</ele>
        <time>2021-08-11T13:15:56Z</time>
      </trkpt>
      <trkpt lat="46.57383" lon="6.10311">
        <ele>1202</ele>
        <time>2021-08-11T13:16:16Z</time>
      </trkpt>
      <trkpt lat="46.57379" lon="6.10296">
        <ele>1200</ele>
        <time>2021-08-11T13:16:30Z</time>
      </trkpt>
      <trkpt lat="46.57372" lon="6.10288">
        <ele>1197</ele>
        <time>2021-08-11T13:16:50Z</time>
      </trkpt>
      <trkpt lat="46.57371" lon="6.10277">
        <ele>1195</ele>
        <time>2021-08-11T13:17:08Z</time>
      </trkpt>
      <trkpt lat="46.57366" lon="6.10265">
        <ele>1192</ele>
        <time>2021-08-11T13:17:26Z</time>
      </trkpt>
      <trkpt lat="46.57362" lon="6.1026">
        <ele>1191</ele>
        <time>2021-08-11T13:17:38Z</time>
      </trkpt>
      <trkpt lat="46.57357" lon="6.10237">
        <ele>1183</ele>
        <time>2021-08-11T13:18:14Z</time>
      </trkpt>
      <trkpt lat="46.57357" lon="6.10223">
        <ele>1181</ele>
        <time>2021-08-11T13:18:28Z</time>
      </trkpt>
      <trkpt lat="46.57353" lon="6.10207">
        <ele>1177</ele>
        <time>2021-08-11T13:18:48Z</time>
      </trkpt>
      <trkpt lat="46.5735" lon="6.10197">
        <ele>1173</ele>
        <time>2021-08-11T13:19:06Z</time>
      </trkpt>
      <trkpt lat="46.57353" lon="6.10186">
        <ele>1170</ele>
        <time>2021-08-11T13:19:18Z</time>
      </trkpt>
      <trkpt lat="46.57347" lon="6.10177">
        <ele>1167</ele>
        <time>2021-08-11T13:19:32Z</time>
      </trkpt>
      <trkpt lat="46.57347" lon="6.10166">
        <ele>1164</ele>
        <time>2021-08-11T13:19:50Z</time>
      </trkpt>
      <trkpt lat="46.57341" lon="6.10158">
        <ele>1160</ele>
        <time>2021-08-11T13:20:20Z</time>
      </trkpt>
      <trkpt lat="46.57343" lon="6.10142">
        <ele>1157</ele>
        <time>2021-08-11T13:20:35Z</time>
      </trkpt>
      <trkpt lat="46.57345" lon="6.10132">
        <ele>1153</ele>
        <time>2021-08-11T13:20:53Z</time>
      </trkpt>
      <trkpt lat="46.57345" lon="6.10129">
        <ele>1151</ele>
        <time>2021-08-11T13:24:07Z</time>
      </trkpt>
      <trkpt lat="46.57336" lon="6.10125">
        <ele>1153</ele>
        <time>2021-08-11T13:24:24Z</time>
      </trkpt>
      <trkpt lat="46.57358" lon="6.10112">
        <ele>1148</ele>
        <time>2021-08-11T13:28:52Z</time>
      </trkpt>
      <trkpt lat="46.57365" lon="6.10115">
        <ele>1148</ele>
        <time>2021-08-11T13:29:01Z</time>
      </trkpt>
      <trkpt lat="46.57371" lon="6.10112">
        <ele>1148</ele>
        <time>2021-08-11T13:29:06Z</time>
      </trkpt>
      <trkpt lat="46.57378" lon="6.10113">
        <ele>1147</ele>
        <time>2021-08-11T13:29:19Z</time>
      </trkpt>
      <trkpt lat="46.57384" lon="6.10111">
        <ele>1147</ele>
        <time>2021-08-11T13:29:25Z</time>
      </trkpt>
      <trkpt lat="46.57388" lon="6.10106">
        <ele>1147</ele>
        <time>2021-08-11T13:29:29Z</time>
      </trkpt>
      <trkpt lat="46.57395" lon="6.10104">
        <ele>1146</ele>
        <time>2021-08-11T13:29:37Z</time>
      </trkpt>
      <trkpt lat="46.574" lon="6.10105">
        <ele>1146</ele>
        <time>2021-08-11T13:29:43Z</time>
      </trkpt>
      <trkpt lat="46.57408" lon="6.10102">
        <ele>1146</ele>
        <time>2021-08-11T13:29:50Z</time>
      </trkpt>
      <trkpt lat="46.57414" lon="6.10098">
        <ele>1145</ele>
        <time>2021-08-11T13:29:56Z</time>
      </trkpt>
      <trkpt lat="46.5742" lon="6.10095">
        <ele>1144</ele>
        <time>2021-08-11T13:30:02Z</time>
      </trkpt>
      <trkpt lat="46.57431" lon="6.10088">
        <ele>1143</ele>
        <time>2021-08-11T13:30:12Z</time>
      </trkpt>
      <trkpt lat="46.57439" lon="6.10088">
        <ele>1142</ele>
        <time>2021-08-11T13:30:23Z</time>
      </trkpt>
      <trkpt lat="46.57445" lon="6.10091">
        <ele>1141</ele>
        <time>2021-08-11T13:30:28Z</time>
      </trkpt>
      <trkpt lat="46.57465" lon="6.10092">
        <ele>1140</ele>
        <time>2021-08-11T13:30:51Z</time>
      </trkpt>
      <trkpt lat="46.57471" lon="6.10094">
        <ele>1139</ele>
        <time>2021-08-11T13:30:59Z</time>
      </trkpt>
      <trkpt lat="46.57481" lon="6.10103">
        <ele>1138</ele>
        <time>2021-08-11T13:31:11Z</time>
      </trkpt>
      <trkpt lat="46.57488" lon="6.10107">
        <ele>1138</ele>
        <time>2021-08-11T13:31:21Z</time>
      </trkpt>
      <trkpt lat="46.57492" lon="6.10113">
        <ele>1138</ele>
        <time>2021-08-11T13:31:27Z</time>
      </trkpt>
      <trkpt lat="46.57498" lon="6.10115">
        <ele>1137</ele>
        <time>2021-08-11T13:31:35Z</time>
      </trkpt>
      <trkpt lat="46.57504" lon="6.10115">
        <ele>1137</ele>
        <time>2021-08-11T13:31:47Z</time>
      </trkpt>
      <trkpt lat="46.57511" lon="6.10122">
        <ele>1136</ele>
        <time>2021-08-11T13:32:01Z</time>
      </trkpt>
      <trkpt lat="46.57518" lon="6.10146">
        <ele>1136</ele>
        <time>2021-08-11T13:32:16Z</time>
      </trkpt>
      <trkpt lat="46.5752" lon="6.10154">
        <ele>1137</ele>
        <time>2021-08-11T13:32:21Z</time>
      </trkpt>
      <trkpt lat="46.57524" lon="6.1016">
        <ele>1138</ele>
        <time>2021-08-11T13:32:26Z</time>
      </trkpt>
      <trkpt lat="46.57532" lon="6.102">
        <ele>1139</ele>
        <time>2021-08-11T13:32:52Z</time>
      </trkpt>
      <trkpt lat="46.57532" lon="6.1022">
        <ele>1138</ele>
        <time>2021-08-11T13:33:06Z</time>
      </trkpt>
      <trkpt lat="46.57533" lon="6.10229">
        <ele>1138</ele>
        <time>2021-08-11T13:33:11Z</time>
      </trkpt>
      <trkpt lat="46.57536" lon="6.10236">
        <ele>1137</ele>
        <time>2021-08-11T13:33:15Z</time>
      </trkpt>
      <trkpt lat="46.5754" lon="6.10255">
        <ele>1136</ele>
        <time>2021-08-11T13:33:25Z</time>
      </trkpt>
      <trkpt lat="46.57548" lon="6.10267">
        <ele>1135</ele>
        <time>2021-08-11T13:33:36Z</time>
      </trkpt>
      <trkpt lat="46.57554" lon="6.10271">
        <ele>1135</ele>
        <time>2021-08-11T13:33:41Z</time>
      </trkpt>
      <trkpt lat="46.57563" lon="6.10284">
        <ele>1134</ele>
        <time>2021-08-11T13:33:52Z</time>
      </trkpt>
      <trkpt lat="46.57568" lon="6.10289">
        <ele>1134</ele>
        <time>2021-08-11T13:33:57Z</time>
      </trkpt>
      <trkpt lat="46.57579" lon="6.10294">
        <ele>1133</ele>
        <time>2021-08-11T13:34:07Z</time>
      </trkpt>
      <trkpt lat="46.57585" lon="6.10298">
        <ele>1133</ele>
        <time>2021-08-11T13:34:13Z</time>
      </trkpt>
      <trkpt lat="46.57595" lon="6.10307">
        <ele>1134</ele>
        <time>2021-08-11T13:34:23Z</time>
      </trkpt>
      <trkpt lat="46.57601" lon="6.10311">
        <ele>1134</ele>
        <time>2021-08-11T13:34:30Z</time>
      </trkpt>
      <trkpt lat="46.57609" lon="6.10318">
        <ele>1135</ele>
        <time>2021-08-11T13:34:40Z</time>
      </trkpt>
      <trkpt lat="46.57615" lon="6.1032">
        <ele>1136</ele>
        <time>2021-08-11T13:34:45Z</time>
      </trkpt>
      <trkpt lat="46.5762" lon="6.10322">
        <ele>1136</ele>
        <time>2021-08-11T13:34:49Z</time>
      </trkpt>
      <trkpt lat="46.57647" lon="6.10345">
        <ele>1138</ele>
        <time>2021-08-11T13:35:15Z</time>
      </trkpt>
      <trkpt lat="46.57661" lon="6.10365">
        <ele>1139</ele>
        <time>2021-08-11T13:35:31Z</time>
      </trkpt>
      <trkpt lat="46.57672" lon="6.10386">
        <ele>1140</ele>
        <time>2021-08-11T13:35:46Z</time>
      </trkpt>
      <trkpt lat="46.57684" lon="6.10395">
        <ele>1141</ele>
        <time>2021-08-11T13:35:58Z</time>
      </trkpt>
      <trkpt lat="46.57688" lon="6.10401">
        <ele>1141</ele>
        <time>2021-08-11T13:36:03Z</time>
      </trkpt>
      <trkpt lat="46.57694" lon="6.10414">
        <ele>1141</ele>
        <time>2021-08-11T13:36:14Z</time>
      </trkpt>
      <trkpt lat="46.57708" lon="6.10433">
        <ele>1141</ele>
        <time>2021-08-11T13:36:30Z</time>
      </trkpt>
      <trkpt lat="46.57716" lon="6.10446">
        <ele>1140</ele>
        <time>2021-08-11T13:36:40Z</time>
      </trkpt>
      <trkpt lat="46.57724" lon="6.1046">
        <ele>1139</ele>
        <time>2021-08-11T13:36:50Z</time>
      </trkpt>
      <trkpt lat="46.5775" lon="6.105">
        <ele>1138</ele>
        <time>2021-08-11T13:37:22Z</time>
      </trkpt>
      <trkpt lat="46.57759" lon="6.1051">
        <ele>1138</ele>
        <time>2021-08-11T13:37:30Z</time>
      </trkpt>
      <trkpt lat="46.57762" lon="6.10517">
        <ele>1138</ele>
        <time>2021-08-11T13:37:35Z</time>
      </trkpt>
      <trkpt lat="46.57781" lon="6.10541">
        <ele>1137</ele>
        <time>2021-08-11T13:37:57Z</time>
      </trkpt>
      <trkpt lat="46.57785" lon="6.10547">
        <ele>1136</ele>
        <time>2021-08-11T13:38:02Z</time>
      </trkpt>
      <trkpt lat="46.5779" lon="6.10551">
        <ele>1136</ele>
        <time>2021-08-11T13:38:07Z</time>
      </trkpt>
      <trkpt lat="46.57797" lon="6.10557">
        <ele>1135</ele>
        <time>2021-08-11T13:38:14Z</time>
      </trkpt>
      <trkpt lat="46.5782" lon="6.1057">
        <ele>1133</ele>
        <time>2021-08-11T13:38:36Z</time>
      </trkpt>
      <trkpt lat="46.57845" lon="6.10574">
        <ele>1132</ele>
        <time>2021-08-11T13:39:02Z</time>
      </trkpt>
      <trkpt lat="46.57851" lon="6.10576">
        <ele>1132</ele>
        <time>2021-08-11T13:39:06Z</time>
      </trkpt>
      <trkpt lat="46.57868" lon="6.10584">
        <ele>1131</ele>
        <time>2021-08-11T13:39:24Z</time>
      </trkpt>
      <trkpt lat="46.57874" lon="6.1059">
        <ele>1131</ele>
        <time>2021-08-11T13:39:32Z</time>
      </trkpt>
      <trkpt lat="46.57877" lon="6.10595">
        <ele>1131</ele>
        <time>2021-08-11T13:39:38Z</time>
      </trkpt>
      <trkpt lat="46.57881" lon="6.10602">
        <ele>1132</ele>
        <time>2021-08-11T13:39:43Z</time>
      </trkpt>
      <trkpt lat="46.57892" lon="6.10616">
        <ele>1134</ele>
        <time>2021-08-11T13:39:59Z</time>
      </trkpt>
      <trkpt lat="46.57898" lon="6.10619">
        <ele>1134</ele>
        <time>2021-08-11T13:40:04Z</time>
      </trkpt>
      <trkpt lat="46.57905" lon="6.10621">
        <ele>1135</ele>
        <time>2021-08-11T13:40:12Z</time>
      </trkpt>
      <trkpt lat="46.5791" lon="6.10625">
        <ele>1135</ele>
        <time>2021-08-11T13:40:19Z</time>
      </trkpt>
      <trkpt lat="46.57916" lon="6.10626">
        <ele>1136</ele>
        <time>2021-08-11T13:40:24Z</time>
      </trkpt>
      <trkpt lat="46.57923" lon="6.10629">
        <ele>1137</ele>
        <time>2021-08-11T13:40:40Z</time>
      </trkpt>
      <trkpt lat="46.57926" lon="6.10642">
        <ele>1137</ele>
        <time>2021-08-11T13:41:29Z</time>
      </trkpt>
      <trkpt lat="46.57933" lon="6.10645">
        <ele>1137</ele>
        <time>2021-08-11T13:41:37Z</time>
      </trkpt>
      <trkpt lat="46.57939" lon="6.10648">
        <ele>1137</ele>
        <time>2021-08-11T13:41:43Z</time>
      </trkpt>
      <trkpt lat="46.57944" lon="6.10675">
        <ele>1140</ele>
        <time>2021-08-11T13:42:04Z</time>
      </trkpt>
      <trkpt lat="46.57951" lon="6.1069">
        <ele>1140</ele>
        <time>2021-08-11T13:42:15Z</time>
      </trkpt>
      <trkpt lat="46.57968" lon="6.10702">
        <ele>1141</ele>
        <time>2021-08-11T13:42:32Z</time>
      </trkpt>
      <trkpt lat="46.57973" lon="6.10705">
        <ele>1142</ele>
        <time>2021-08-11T13:42:37Z</time>
      </trkpt>
      <trkpt lat="46.57992" lon="6.10714">
        <ele>1143</ele>
        <time>2021-08-11T13:42:59Z</time>
      </trkpt>
      <trkpt lat="46.58003" lon="6.10729">
        <ele>1143</ele>
        <time>2021-08-11T13:43:15Z</time>
      </trkpt>
      <trkpt lat="46.58012" lon="6.10732">
        <ele>1142</ele>
        <time>2021-08-11T13:43:22Z</time>
      </trkpt>
      <trkpt lat="46.58027" lon="6.10758">
        <ele>1145</ele>
        <time>2021-08-11T13:43:53Z</time>
      </trkpt>
      <trkpt lat="46.58032" lon="6.10768">
        <ele>1146</ele>
        <time>2021-08-11T13:44:01Z</time>
      </trkpt>
      <trkpt lat="46.58045" lon="6.10795">
        <ele>1147</ele>
        <time>2021-08-11T13:44:24Z</time>
      </trkpt>
      <trkpt lat="46.5805" lon="6.10803">
        <ele>1147</ele>
        <time>2021-08-11T13:44:31Z</time>
      </trkpt>
      <trkpt lat="46.58057" lon="6.1081">
        <ele>1147</ele>
        <time>2021-08-11T13:44:37Z</time>
      </trkpt>
      <trkpt lat="46.58061" lon="6.10818">
        <ele>1147</ele>
        <time>2021-08-11T13:44:42Z</time>
      </trkpt>
      <trkpt lat="46.58074" lon="6.10834">
        <ele>1148</ele>
        <time>2021-08-11T13:45:02Z</time>
      </trkpt>
      <trkpt lat="46.58076" lon="6.10847">
        <ele>1148</ele>
        <time>2021-08-11T13:45:11Z</time>
      </trkpt>
      <trkpt lat="46.58093" lon="6.10878">
        <ele>1148</ele>
        <time>2021-08-11T13:45:37Z</time>
      </trkpt>
      <trkpt lat="46.58095" lon="6.10889">
        <ele>1149</ele>
        <time>2021-08-11T13:45:43Z</time>
      </trkpt>
      <trkpt lat="46.58102" lon="6.10907">
        <ele>1149</ele>
        <time>2021-08-11T13:45:58Z</time>
      </trkpt>
      <trkpt lat="46.58101" lon="6.10922">
        <ele>1150</ele>
        <time>2021-08-11T13:46:10Z</time>
      </trkpt>
      <trkpt lat="46.58099" lon="6.10933">
        <ele>1151</ele>
        <time>2021-08-11T13:46:20Z</time>
      </trkpt>
      <trkpt lat="46.581" lon="6.10968">
        <ele>1154</ele>
        <time>2021-08-11T13:46:42Z</time>
      </trkpt>
      <trkpt lat="46.58098" lon="6.1099">
        <ele>1155</ele>
        <time>2021-08-11T13:46:53Z</time>
      </trkpt>
      <trkpt lat="46.58098" lon="6.11002">
        <ele>1157</ele>
        <time>2021-08-11T13:47:09Z</time>
      </trkpt>
      <trkpt lat="46.5809" lon="6.11013">
        <ele>1157</ele>
        <time>2021-08-11T13:47:34Z</time>
      </trkpt>
      <trkpt lat="46.58103" lon="6.11014">
        <ele>1156</ele>
        <time>2021-08-11T13:48:27Z</time>
      </trkpt>
      <trkpt lat="46.58112" lon="6.11012">
        <ele>1154</ele>
        <time>2021-08-11T13:48:41Z</time>
      </trkpt>
      <trkpt lat="46.58127" lon="6.1101">
        <ele>1151</ele>
        <time>2021-08-11T13:48:57Z</time>
      </trkpt>
      <trkpt lat="46.58154" lon="6.11002">
        <ele>1148</ele>
        <time>2021-08-11T13:49:19Z</time>
      </trkpt>
      <trkpt lat="46.58167" lon="6.10995">
        <ele>1147</ele>
        <time>2021-08-11T13:49:35Z</time>
      </trkpt>
      <trkpt lat="46.58166" lon="6.11004">
        <ele>1147</ele>
        <time>2021-08-11T13:49:39Z</time>
      </trkpt>
      <trkpt lat="46.5817" lon="6.11014">
        <ele>1147</ele>
        <time>2021-08-11T13:49:46Z</time>
      </trkpt>
      <trkpt lat="46.58174" lon="6.11021">
        <ele>1149</ele>
        <time>2021-08-11T13:49:56Z</time>
      </trkpt>
      <trkpt lat="46.58179" lon="6.11026">
        <ele>1151</ele>
        <time>2021-08-11T13:50:10Z</time>
      </trkpt>
      <trkpt lat="46.58185" lon="6.11029">
        <ele>1150</ele>
        <time>2021-08-11T13:50:22Z</time>
      </trkpt>
      <trkpt lat="46.58206" lon="6.11014">
        <ele>1145</ele>
        <time>2021-08-11T13:50:53Z</time>
      </trkpt>
      <trkpt lat="46.58213" lon="6.11007">
        <ele>1144</ele>
        <time>2021-08-11T13:51:04Z</time>
      </trkpt>
      <trkpt lat="46.58219" lon="6.11008">
        <ele>1143</ele>
        <time>2021-08-11T13:51:10Z</time>
      </trkpt>
      <trkpt lat="46.58225" lon="6.11008">
        <ele>1143</ele>
        <time>2021-08-11T13:51:14Z</time>
      </trkpt>
      <trkpt lat="46.58231" lon="6.11012">
        <ele>1144</ele>
        <time>2021-08-11T13:51:22Z</time>
      </trkpt>
      <trkpt lat="46.5824" lon="6.11019">
        <ele>1144</ele>
        <time>2021-08-11T13:51:34Z</time>
      </trkpt>
      <trkpt lat="46.58268" lon="6.11041">
        <ele>1145</ele>
        <time>2021-08-11T13:52:02Z</time>
      </trkpt>
      <trkpt lat="46.58273" lon="6.11045">
        <ele>1145</ele>
        <time>2021-08-11T13:52:08Z</time>
      </trkpt>
      <trkpt lat="46.58277" lon="6.11052">
        <ele>1145</ele>
        <time>2021-08-11T13:52:19Z</time>
      </trkpt>
      <trkpt lat="46.58287" lon="6.11061">
        <ele>1146</ele>
        <time>2021-08-11T13:52:43Z</time>
      </trkpt>
      <trkpt lat="46.58294" lon="6.11068">
        <ele>1146</ele>
        <time>2021-08-11T13:52:58Z</time>
      </trkpt>
      <trkpt lat="46.58301" lon="6.11073">
        <ele>1145</ele>
        <time>2021-08-11T13:53:10Z</time>
      </trkpt>
      <trkpt lat="46.58309" lon="6.11085">
        <ele>1145</ele>
        <time>2021-08-11T13:53:22Z</time>
      </trkpt>
      <trkpt lat="46.58319" lon="6.11088">
        <ele>1143</ele>
        <time>2021-08-11T13:53:37Z</time>
      </trkpt>
      <trkpt lat="46.58324" lon="6.11079">
        <ele>1142</ele>
        <time>2021-08-11T13:53:42Z</time>
      </trkpt>
      <trkpt lat="46.58328" lon="6.11075">
        <ele>1140</ele>
        <time>2021-08-11T13:54:02Z</time>
      </trkpt>
      <trkpt lat="46.58337" lon="6.11077">
        <ele>1138</ele>
        <time>2021-08-11T13:54:14Z</time>
      </trkpt>
      <trkpt lat="46.58343" lon="6.11074">
        <ele>1137</ele>
        <time>2021-08-11T13:54:21Z</time>
      </trkpt>
      <trkpt lat="46.58345" lon="6.11067">
        <ele>1136</ele>
        <time>2021-08-11T13:54:30Z</time>
      </trkpt>
      <trkpt lat="46.58353" lon="6.11079">
        <ele>1135</ele>
        <time>2021-08-11T13:54:41Z</time>
      </trkpt>
      <trkpt lat="46.58358" lon="6.11083">
        <ele>1134</ele>
        <time>2021-08-11T13:54:47Z</time>
      </trkpt>
      <trkpt lat="46.58369" lon="6.11099">
        <ele>1133</ele>
        <time>2021-08-11T13:55:05Z</time>
      </trkpt>
      <trkpt lat="46.5839" lon="6.11121">
        <ele>1130</ele>
        <time>2021-08-11T13:55:36Z</time>
      </trkpt>
      <trkpt lat="46.58398" lon="6.11138">
        <ele>1128</ele>
        <time>2021-08-11T13:55:50Z</time>
      </trkpt>
      <trkpt lat="46.58407" lon="6.11142">
        <ele>1127</ele>
        <time>2021-08-11T13:56:01Z</time>
      </trkpt>
      <trkpt lat="46.58412" lon="6.11155">
        <ele>1126</ele>
        <time>2021-08-11T13:56:15Z</time>
      </trkpt>
      <trkpt lat="46.58416" lon="6.11165">
        <ele>1125</ele>
        <time>2021-08-11T13:56:22Z</time>
      </trkpt>
      <trkpt lat="46.58425" lon="6.11178">
        <ele>1123</ele>
        <time>2021-08-11T13:56:36Z</time>
      </trkpt>
      <trkpt lat="46.5843" lon="6.11181">
        <ele>1122</ele>
        <time>2021-08-11T13:56:41Z</time>
      </trkpt>
      <trkpt lat="46.5845" lon="6.11205">
        <ele>1116</ele>
        <time>2021-08-11T13:57:43Z</time>
      </trkpt>
      <trkpt lat="46.58457" lon="6.11211">
        <ele>1115</ele>
        <time>2021-08-11T13:58:00Z</time>
      </trkpt>
      <trkpt lat="46.58464" lon="6.11204">
        <ele>1114</ele>
        <time>2021-08-11T13:58:16Z</time>
      </trkpt>
      <trkpt lat="46.58475" lon="6.11197">
        <ele>1113</ele>
        <time>2021-08-11T13:58:25Z</time>
      </trkpt>
      <trkpt lat="46.58485" lon="6.11195">
        <ele>1113</ele>
        <time>2021-08-11T13:58:39Z</time>
      </trkpt>
      <trkpt lat="46.58494" lon="6.11194">
        <ele>1112</ele>
        <time>2021-08-11T13:58:49Z</time>
      </trkpt>
      <trkpt lat="46.58501" lon="6.11193">
        <ele>1110</ele>
        <time>2021-08-11T13:58:58Z</time>
      </trkpt>
      <trkpt lat="46.58507" lon="6.11195">
        <ele>1109</ele>
        <time>2021-08-11T13:59:03Z</time>
      </trkpt>
      <trkpt lat="46.58512" lon="6.11201">
        <ele>1109</ele>
        <time>2021-08-11T13:59:10Z</time>
      </trkpt>
      <trkpt lat="46.58522" lon="6.11206">
        <ele>1108</ele>
        <time>2021-08-11T13:59:22Z</time>
      </trkpt>
      <trkpt lat="46.58529" lon="6.11207">
        <ele>1107</ele>
        <time>2021-08-11T13:59:34Z</time>
      </trkpt>
      <trkpt lat="46.58529" lon="6.11196">
        <ele>1107</ele>
        <time>2021-08-11T13:59:53Z</time>
      </trkpt>
      <trkpt lat="46.58524" lon="6.11188">
        <ele>1107</ele>
        <time>2021-08-11T13:59:56Z</time>
      </trkpt>
      <trkpt lat="46.58517" lon="6.11185">
        <ele>1107</ele>
        <time>2021-08-11T14:00:05Z</time>
      </trkpt>
      <trkpt lat="46.58513" lon="6.11199">
        <ele>1108</ele>
        <time>2021-08-11T14:00:24Z</time>
      </trkpt>
      <trkpt lat="46.58511" lon="6.11207">
        <ele>1108</ele>
        <time>2021-08-11T14:00:29Z</time>
      </trkpt>
      <trkpt lat="46.58514" lon="6.11234">
        <ele>1107</ele>
        <time>2021-08-11T14:00:42Z</time>
      </trkpt>
      <trkpt lat="46.58516" lon="6.11242">
        <ele>1107</ele>
        <time>2021-08-11T14:00:48Z</time>
      </trkpt>
      <trkpt lat="46.58517" lon="6.11251">
        <ele>1107</ele>
        <time>2021-08-11T14:00:54Z</time>
      </trkpt>
      <trkpt lat="46.58524" lon="6.11255">
        <ele>1107</ele>
        <time>2021-08-11T14:01:02Z</time>
      </trkpt>
      <trkpt lat="46.58541" lon="6.1128">
        <ele>1107</ele>
        <time>2021-08-11T14:01:26Z</time>
      </trkpt>
      <trkpt lat="46.58547" lon="6.1129">
        <ele>1106</ele>
        <time>2021-08-11T14:01:38Z</time>
      </trkpt>
      <trkpt lat="46.58553" lon="6.11298">
        <ele>1105</ele>
        <time>2021-08-11T14:01:52Z</time>
      </trkpt>
      <trkpt lat="46.5856" lon="6.113">
        <ele>1104</ele>
        <time>2021-08-11T14:02:04Z</time>
      </trkpt>
      <trkpt lat="46.58564" lon="6.11309">
        <ele>1103</ele>
        <time>2021-08-11T14:02:39Z</time>
      </trkpt>
      <trkpt lat="46.5857" lon="6.11314">
        <ele>1103</ele>
        <time>2021-08-11T14:02:44Z</time>
      </trkpt>
      <trkpt lat="46.58602" lon="6.11326">
        <ele>1100</ele>
        <time>2021-08-11T14:03:16Z</time>
      </trkpt>
      <trkpt lat="46.5861" lon="6.11333">
        <ele>1099</ele>
        <time>2021-08-11T14:03:25Z</time>
      </trkpt>
      <trkpt lat="46.58619" lon="6.11335">
        <ele>1098</ele>
        <time>2021-08-11T14:03:38Z</time>
      </trkpt>
      <trkpt lat="46.58625" lon="6.11337">
        <ele>1098</ele>
        <time>2021-08-11T14:03:44Z</time>
      </trkpt>
      <trkpt lat="46.5863" lon="6.11341">
        <ele>1098</ele>
        <time>2021-08-11T14:03:48Z</time>
      </trkpt>
      <trkpt lat="46.58643" lon="6.11342">
        <ele>1097</ele>
        <time>2021-08-11T14:04:00Z</time>
      </trkpt>
      <trkpt lat="46.58648" lon="6.11348">
        <ele>1096</ele>
        <time>2021-08-11T14:04:06Z</time>
      </trkpt>
      <trkpt lat="46.58654" lon="6.11349">
        <ele>1095</ele>
        <time>2021-08-11T14:04:11Z</time>
      </trkpt>
      <trkpt lat="46.5866" lon="6.11349">
        <ele>1097</ele>
        <time>2021-08-11T14:04:15Z</time>
      </trkpt>
      <trkpt lat="46.58667" lon="6.11349">
        <ele>1095</ele>
        <time>2021-08-11T14:04:24Z</time>
      </trkpt>
      <trkpt lat="46.58682" lon="6.11356">
        <ele>1095</ele>
        <time>2021-08-11T14:04:41Z</time>
      </trkpt>
      <trkpt lat="46.58688" lon="6.11357">
        <ele>1095</ele>
        <time>2021-08-11T14:04:47Z</time>
      </trkpt>
      <trkpt lat="46.58695" lon="6.11358">
        <ele>1093</ele>
        <time>2021-08-11T14:04:56Z</time>
      </trkpt>
      <trkpt lat="46.58701" lon="6.11359">
        <ele>1093</ele>
        <time>2021-08-11T14:05:08Z</time>
      </trkpt>
      <trkpt lat="46.58704" lon="6.11358">
        <ele>1093</ele>
        <time>2021-08-11T14:05:20Z</time>
      </trkpt>
      <trkpt lat="46.58714" lon="6.11362">
        <ele>1093</ele>
        <time>2021-08-11T14:05:44Z</time>
      </trkpt>
      <trkpt lat="46.58715" lon="6.1135">
        <ele>1093</ele>
        <time>2021-08-11T14:06:03Z</time>
      </trkpt>
      <trkpt lat="46.58718" lon="6.11344">
        <ele>1094</ele>
        <time>2021-08-11T14:06:09Z</time>
      </trkpt>
      <trkpt lat="46.58721" lon="6.1134">
        <ele>1094</ele>
        <time>2021-08-11T14:06:13Z</time>
      </trkpt>
      <trkpt lat="46.58725" lon="6.11343">
        <ele>1094</ele>
        <time>2021-08-11T14:06:17Z</time>
      </trkpt>
      <trkpt lat="46.5873" lon="6.11342">
        <ele>1094</ele>
        <time>2021-08-11T14:06:21Z</time>
      </trkpt>
      <trkpt lat="46.58733" lon="6.11345">
        <ele>1093</ele>
        <time>2021-08-11T14:06:24Z</time>
      </trkpt>
      <trkpt lat="46.58738" lon="6.11346">
        <ele>1093</ele>
        <time>2021-08-11T14:06:27Z</time>
      </trkpt>
      <trkpt lat="46.58758" lon="6.1135">
        <ele>1091</ele>
        <time>2021-08-11T14:06:44Z</time>
      </trkpt>
      <trkpt lat="46.58762" lon="6.11353">
        <ele>1091</ele>
        <time>2021-08-11T14:06:48Z</time>
      </trkpt>
      <trkpt lat="46.58771" lon="6.11354">
        <ele>1090</ele>
        <time>2021-08-11T14:06:57Z</time>
      </trkpt>
      <trkpt lat="46.58776" lon="6.11356">
        <ele>1090</ele>
        <time>2021-08-11T14:07:01Z</time>
      </trkpt>
      <trkpt lat="46.5878" lon="6.11356">
        <ele>1090</ele>
        <time>2021-08-11T14:07:04Z</time>
      </trkpt>
      <trkpt lat="46.58783" lon="6.11358">
        <ele>1090</ele>
        <time>2021-08-11T14:07:08Z</time>
      </trkpt>
      <trkpt lat="46.58787" lon="6.11359">
        <ele>1090</ele>
        <time>2021-08-11T14:07:11Z</time>
      </trkpt>
      <trkpt lat="46.58791" lon="6.11358">
        <ele>1090</ele>
        <time>2021-08-11T14:07:15Z</time>
      </trkpt>
      <trkpt lat="46.58795" lon="6.11361">
        <ele>1090</ele>
        <time>2021-08-11T14:07:18Z</time>
      </trkpt>
      <trkpt lat="46.58803" lon="6.11359">
        <ele>1089</ele>
        <time>2021-08-11T14:07:26Z</time>
      </trkpt>
      <trkpt lat="46.58807" lon="6.1136">
        <ele>1089</ele>
        <time>2021-08-11T14:07:29Z</time>
      </trkpt>
      <trkpt lat="46.58813" lon="6.11362">
        <ele>1089</ele>
        <time>2021-08-11T14:07:35Z</time>
      </trkpt>
      <trkpt lat="46.58816" lon="6.11365">
        <ele>1089</ele>
        <time>2021-08-11T14:07:38Z</time>
      </trkpt>
      <trkpt lat="46.58834" lon="6.11373">
        <ele>1088</ele>
        <time>2021-08-11T14:07:55Z</time>
      </trkpt>
      <trkpt lat="46.5884" lon="6.11372">
        <ele>1088</ele>
        <time>2021-08-11T14:08:00Z</time>
      </trkpt>
      <trkpt lat="46.58844" lon="6.11377">
        <ele>1088</ele>
        <time>2021-08-11T14:08:04Z</time>
      </trkpt>
      <trkpt lat="46.58849" lon="6.11382">
        <ele>1088</ele>
        <time>2021-08-11T14:08:09Z</time>
      </trkpt>
      <trkpt lat="46.58854" lon="6.11382">
        <ele>1088</ele>
        <time>2021-08-11T14:08:13Z</time>
      </trkpt>
      <trkpt lat="46.58862" lon="6.11373">
        <ele>1088</ele>
        <time>2021-08-11T14:08:22Z</time>
      </trkpt>
      <trkpt lat="46.58868" lon="6.11365">
        <ele>1088</ele>
        <time>2021-08-11T14:08:29Z</time>
      </trkpt>
      <trkpt lat="46.58873" lon="6.11367">
        <ele>1088</ele>
        <time>2021-08-11T14:08:32Z</time>
      </trkpt>
      <trkpt lat="46.58877" lon="6.11369">
        <ele>1088</ele>
        <time>2021-08-11T14:08:36Z</time>
      </trkpt>
      <trkpt lat="46.58886" lon="6.11379">
        <ele>1087</ele>
        <time>2021-08-11T14:08:46Z</time>
      </trkpt>
      <trkpt lat="46.58918" lon="6.11397">
        <ele>1089</ele>
        <time>2021-08-11T14:09:14Z</time>
      </trkpt>
      <trkpt lat="46.5893" lon="6.11399">
        <ele>1089</ele>
        <time>2021-08-11T14:09:25Z</time>
      </trkpt>
      <trkpt lat="46.5894" lon="6.11409">
        <ele>1090</ele>
        <time>2021-08-11T14:09:36Z</time>
      </trkpt>
      <trkpt lat="46.58955" lon="6.11424">
        <ele>1090</ele>
        <time>2021-08-11T14:09:52Z</time>
      </trkpt>
      <trkpt lat="46.58958" lon="6.11431">
        <ele>1090</ele>
        <time>2021-08-11T14:09:56Z</time>
      </trkpt>
      <trkpt lat="46.58966" lon="6.11446">
        <ele>1090</ele>
        <time>2021-08-11T14:10:09Z</time>
      </trkpt>
      <trkpt lat="46.58979" lon="6.11485">
        <ele>1090</ele>
        <time>2021-08-11T14:10:39Z</time>
      </trkpt>
      <trkpt lat="46.58982" lon="6.11492">
        <ele>1091</ele>
        <time>2021-08-11T14:10:44Z</time>
      </trkpt>
      <trkpt lat="46.58987" lon="6.11507">
        <ele>1090</ele>
        <time>2021-08-11T14:10:54Z</time>
      </trkpt>
      <trkpt lat="46.58992" lon="6.11513">
        <ele>1091</ele>
        <time>2021-08-11T14:10:59Z</time>
      </trkpt>
      <trkpt lat="46.58994" lon="6.1152">
        <ele>1090</ele>
        <time>2021-08-11T14:11:03Z</time>
      </trkpt>
      <trkpt lat="46.58998" lon="6.11526">
        <ele>1090</ele>
        <time>2021-08-11T14:11:08Z</time>
      </trkpt>
      <trkpt lat="46.59" lon="6.11532">
        <ele>1090</ele>
        <time>2021-08-11T14:11:12Z</time>
      </trkpt>
      <trkpt lat="46.59005" lon="6.11538">
        <ele>1091</ele>
        <time>2021-08-11T14:11:20Z</time>
      </trkpt>
      <trkpt lat="46.59014" lon="6.11549">
        <ele>1091</ele>
        <time>2021-08-11T14:11:31Z</time>
      </trkpt>
      <trkpt lat="46.59019" lon="6.11555">
        <ele>1091</ele>
        <time>2021-08-11T14:11:39Z</time>
      </trkpt>
      <trkpt lat="46.59024" lon="6.11561">
        <ele>1091</ele>
        <time>2021-08-11T14:11:45Z</time>
      </trkpt>
      <trkpt lat="46.59028" lon="6.11567">
        <ele>1092</ele>
        <time>2021-08-11T14:11:50Z</time>
      </trkpt>
      <trkpt lat="46.59036" lon="6.11577">
        <ele>1091</ele>
        <time>2021-08-11T14:12:02Z</time>
      </trkpt>
      <trkpt lat="46.5904" lon="6.11584">
        <ele>1091</ele>
        <time>2021-08-11T14:12:06Z</time>
      </trkpt>
      <trkpt lat="46.59045" lon="6.11591">
        <ele>1091</ele>
        <time>2021-08-11T14:12:11Z</time>
      </trkpt>
      <trkpt lat="46.59047" lon="6.11599">
        <ele>1091</ele>
        <time>2021-08-11T14:12:16Z</time>
      </trkpt>
      <trkpt lat="46.59057" lon="6.11607">
        <ele>1093</ele>
        <time>2021-08-11T14:12:26Z</time>
      </trkpt>
      <trkpt lat="46.59062" lon="6.11612">
        <ele>1093</ele>
        <time>2021-08-11T14:12:31Z</time>
      </trkpt>
      <trkpt lat="46.59069" lon="6.1162">
        <ele>1093</ele>
        <time>2021-08-11T14:12:41Z</time>
      </trkpt>
      <trkpt lat="46.59072" lon="6.11626">
        <ele>1093</ele>
        <time>2021-08-11T14:12:46Z</time>
      </trkpt>
      <trkpt lat="46.59079" lon="6.11634">
        <ele>1092</ele>
        <time>2021-08-11T14:12:55Z</time>
      </trkpt>
      <trkpt lat="46.59084" lon="6.1164">
        <ele>1093</ele>
        <time>2021-08-11T14:13:00Z</time>
      </trkpt>
      <trkpt lat="46.59088" lon="6.11646">
        <ele>1092</ele>
        <time>2021-08-11T14:13:05Z</time>
      </trkpt>
      <trkpt lat="46.59093" lon="6.11649">
        <ele>1092</ele>
        <time>2021-08-11T14:13:11Z</time>
      </trkpt>
      <trkpt lat="46.591" lon="6.11656">
        <ele>1092</ele>
        <time>2021-08-11T14:13:20Z</time>
      </trkpt>
      <trkpt lat="46.59105" lon="6.11664">
        <ele>1092</ele>
        <time>2021-08-11T14:13:28Z</time>
      </trkpt>
      <trkpt lat="46.59115" lon="6.1167">
        <ele>1092</ele>
        <time>2021-08-11T14:13:40Z</time>
      </trkpt>
      <trkpt lat="46.59123" lon="6.11683">
        <ele>1091</ele>
        <time>2021-08-11T14:13:52Z</time>
      </trkpt>
      <trkpt lat="46.59128" lon="6.11689">
        <ele>1090</ele>
        <time>2021-08-11T14:13:57Z</time>
      </trkpt>
      <trkpt lat="46.59132" lon="6.11691">
        <ele>1090</ele>
        <time>2021-08-11T14:14:02Z</time>
      </trkpt>
      <trkpt lat="46.59139" lon="6.11684">
        <ele>1088</ele>
        <time>2021-08-11T14:14:12Z</time>
      </trkpt>
      <trkpt lat="46.5914" lon="6.11675">
        <ele>1087</ele>
        <time>2021-08-11T14:14:19Z</time>
      </trkpt>
      <trkpt lat="46.59145" lon="6.11676">
        <ele>1086</ele>
        <time>2021-08-11T14:14:27Z</time>
      </trkpt>
      <trkpt lat="46.59148" lon="6.11679">
        <ele>1086</ele>
        <time>2021-08-11T14:14:29Z</time>
      </trkpt>
      <trkpt lat="46.59152" lon="6.1169">
        <ele>1086</ele>
        <time>2021-08-11T14:14:36Z</time>
      </trkpt>
      <trkpt lat="46.59154" lon="6.11695">
        <ele>1086</ele>
        <time>2021-08-11T14:14:40Z</time>
      </trkpt>
      <trkpt lat="46.59156" lon="6.11701">
        <ele>1086</ele>
        <time>2021-08-11T14:14:44Z</time>
      </trkpt>
      <trkpt lat="46.59165" lon="6.11727">
        <ele>1087</ele>
        <time>2021-08-11T14:15:03Z</time>
      </trkpt>
      <trkpt lat="46.59172" lon="6.11743">
        <ele>1088</ele>
        <time>2021-08-11T14:15:17Z</time>
      </trkpt>
      <trkpt lat="46.59174" lon="6.11751">
        <ele>1088</ele>
        <time>2021-08-11T14:15:23Z</time>
      </trkpt>
      <trkpt lat="46.59178" lon="6.11759">
        <ele>1089</ele>
        <time>2021-08-11T14:15:29Z</time>
      </trkpt>
      <trkpt lat="46.59182" lon="6.11766">
        <ele>1089</ele>
        <time>2021-08-11T14:15:34Z</time>
      </trkpt>
      <trkpt lat="46.59196" lon="6.11777">
        <ele>1089</ele>
        <time>2021-08-11T14:15:50Z</time>
      </trkpt>
      <trkpt lat="46.59205" lon="6.11787">
        <ele>1089</ele>
        <time>2021-08-11T14:16:02Z</time>
      </trkpt>
      <trkpt lat="46.59208" lon="6.11794">
        <ele>1089</ele>
        <time>2021-08-11T14:16:10Z</time>
      </trkpt>
      <trkpt lat="46.59215" lon="6.11798">
        <ele>1089</ele>
        <time>2021-08-11T14:16:21Z</time>
      </trkpt>
      <trkpt lat="46.59221" lon="6.1178">
        <ele>1089</ele>
        <time>2021-08-11T14:16:55Z</time>
      </trkpt>
      <trkpt lat="46.59223" lon="6.11768">
        <ele>1088</ele>
        <time>2021-08-11T14:17:03Z</time>
      </trkpt>
      <trkpt lat="46.59226" lon="6.11758">
        <ele>1088</ele>
        <time>2021-08-11T14:17:10Z</time>
      </trkpt>
      <trkpt lat="46.59228" lon="6.1175">
        <ele>1088</ele>
        <time>2021-08-11T14:17:15Z</time>
      </trkpt>
      <trkpt lat="46.5923" lon="6.11746">
        <ele>1087</ele>
        <time>2021-08-11T14:17:18Z</time>
      </trkpt>
      <trkpt lat="46.59231" lon="6.11741">
        <ele>1087</ele>
        <time>2021-08-11T14:17:21Z</time>
      </trkpt>
      <trkpt lat="46.59237" lon="6.11726">
        <ele>1087</ele>
        <time>2021-08-11T14:17:32Z</time>
      </trkpt>
      <trkpt lat="46.59239" lon="6.11722">
        <ele>1087</ele>
        <time>2021-08-11T14:17:35Z</time>
      </trkpt>
      <trkpt lat="46.59238" lon="6.11717">
        <ele>1086</ele>
        <time>2021-08-11T14:17:39Z</time>
      </trkpt>
      <trkpt lat="46.59239" lon="6.11711">
        <ele>1086</ele>
        <time>2021-08-11T14:17:42Z</time>
      </trkpt>
      <trkpt lat="46.59242" lon="6.11703">
        <ele>1086</ele>
        <time>2021-08-11T14:17:48Z</time>
      </trkpt>
      <trkpt lat="46.59245" lon="6.11699">
        <ele>1086</ele>
        <time>2021-08-11T14:17:51Z</time>
      </trkpt>
      <trkpt lat="46.59249" lon="6.11685">
        <ele>1086</ele>
        <time>2021-08-11T14:17:59Z</time>
      </trkpt>
      <trkpt lat="46.59252" lon="6.11679">
        <ele>1085</ele>
        <time>2021-08-11T14:18:03Z</time>
      </trkpt>
      <trkpt lat="46.59253" lon="6.11674">
        <ele>1085</ele>
        <time>2021-08-11T14:18:06Z</time>
      </trkpt>
      <trkpt lat="46.59254" lon="6.11666">
        <ele>1085</ele>
        <time>2021-08-11T14:18:10Z</time>
      </trkpt>
      <trkpt lat="46.59271" lon="6.11639">
        <ele>1084</ele>
        <time>2021-08-11T14:18:31Z</time>
      </trkpt>
      <trkpt lat="46.59281" lon="6.11619">
        <ele>1084</ele>
        <time>2021-08-11T14:18:46Z</time>
      </trkpt>
      <trkpt lat="46.59297" lon="6.11604">
        <ele>1083</ele>
        <time>2021-08-11T14:19:00Z</time>
      </trkpt>
      <trkpt lat="46.59304" lon="6.1159">
        <ele>1083</ele>
        <time>2021-08-11T14:19:12Z</time>
      </trkpt>
      <trkpt lat="46.59315" lon="6.11579">
        <ele>1083</ele>
        <time>2021-08-11T14:19:22Z</time>
      </trkpt>
      <trkpt lat="46.5932" lon="6.11575">
        <ele>1082</ele>
        <time>2021-08-11T14:19:27Z</time>
      </trkpt>
      <trkpt lat="46.59328" lon="6.1156">
        <ele>1082</ele>
        <time>2021-08-11T14:19:38Z</time>
      </trkpt>
      <trkpt lat="46.59344" lon="6.11545">
        <ele>1082</ele>
        <time>2021-08-11T14:19:52Z</time>
      </trkpt>
      <trkpt lat="46.59355" lon="6.11523">
        <ele>1082</ele>
        <time>2021-08-11T14:20:05Z</time>
      </trkpt>
      <trkpt lat="46.59364" lon="6.11512">
        <ele>1081</ele>
        <time>2021-08-11T14:20:14Z</time>
      </trkpt>
      <trkpt lat="46.59367" lon="6.11504">
        <ele>1081</ele>
        <time>2021-08-11T14:20:18Z</time>
      </trkpt>
      <trkpt lat="46.59378" lon="6.11494">
        <ele>1081</ele>
        <time>2021-08-11T14:20:32Z</time>
      </trkpt>
      <trkpt lat="46.594" lon="6.11489">
        <ele>1080</ele>
        <time>2021-08-11T14:20:50Z</time>
      </trkpt>
      <trkpt lat="46.59406" lon="6.1149">
        <ele>1080</ele>
        <time>2021-08-11T14:20:54Z</time>
      </trkpt>
      <trkpt lat="46.59412" lon="6.11488">
        <ele>1080</ele>
        <time>2021-08-11T14:20:59Z</time>
      </trkpt>
      <trkpt lat="46.59417" lon="6.11489">
        <ele>1080</ele>
        <time>2021-08-11T14:21:03Z</time>
      </trkpt>
      <trkpt lat="46.59428" lon="6.11488">
        <ele>1079</ele>
        <time>2021-08-11T14:21:12Z</time>
      </trkpt>
      <trkpt lat="46.59444" lon="6.11488">
        <ele>1079</ele>
        <time>2021-08-11T14:21:25Z</time>
      </trkpt>
      <trkpt lat="46.59477" lon="6.11482">
        <ele>1079</ele>
        <time>2021-08-11T14:21:51Z</time>
      </trkpt>
      <trkpt lat="46.59493" lon="6.11482">
        <ele>1080</ele>
        <time>2021-08-11T14:22:03Z</time>
      </trkpt>
      <trkpt lat="46.59503" lon="6.11477">
        <ele>1080</ele>
        <time>2021-08-11T14:22:11Z</time>
      </trkpt>
      <trkpt lat="46.59512" lon="6.11477">
        <ele>1081</ele>
        <time>2021-08-11T14:22:18Z</time>
      </trkpt>
      <trkpt lat="46.59516" lon="6.11477">
        <ele>1081</ele>
        <time>2021-08-11T14:22:21Z</time>
      </trkpt>
      <trkpt lat="46.5952" lon="6.11479">
        <ele>1081</ele>
        <time>2021-08-11T14:22:24Z</time>
      </trkpt>
      <trkpt lat="46.59524" lon="6.11479">
        <ele>1081</ele>
        <time>2021-08-11T14:22:28Z</time>
      </trkpt>
      <trkpt lat="46.59551" lon="6.11485">
        <ele>1082</ele>
        <time>2021-08-11T14:22:52Z</time>
      </trkpt>
      <trkpt lat="46.5957" lon="6.11497">
        <ele>1080</ele>
        <time>2021-08-11T14:23:09Z</time>
      </trkpt>
      <trkpt lat="46.59574" lon="6.11497">
        <ele>1080</ele>
        <time>2021-08-11T14:23:13Z</time>
      </trkpt>
      <trkpt lat="46.59578" lon="6.11498">
        <ele>1080</ele>
        <time>2021-08-11T14:23:16Z</time>
      </trkpt>
      <trkpt lat="46.59582" lon="6.11499">
        <ele>1079</ele>
        <time>2021-08-11T14:23:19Z</time>
      </trkpt>
      <trkpt lat="46.59596" lon="6.11494">
        <ele>1078</ele>
        <time>2021-08-11T14:23:33Z</time>
      </trkpt>
      <trkpt lat="46.596" lon="6.1149">
        <ele>1078</ele>
        <time>2021-08-11T14:23:37Z</time>
      </trkpt>
      <trkpt lat="46.59604" lon="6.11487">
        <ele>1078</ele>
        <time>2021-08-11T14:23:41Z</time>
      </trkpt>
      <trkpt lat="46.59612" lon="6.11478">
        <ele>1078</ele>
        <time>2021-08-11T14:23:51Z</time>
      </trkpt>
      <trkpt lat="46.59628" lon="6.11471">
        <ele>1078</ele>
        <time>2021-08-11T14:24:06Z</time>
      </trkpt>
      <trkpt lat="46.59641" lon="6.11463">
        <ele>1080</ele>
        <time>2021-08-11T14:24:20Z</time>
      </trkpt>
      <trkpt lat="46.59646" lon="6.11462">
        <ele>1080</ele>
        <time>2021-08-11T14:24:23Z</time>
      </trkpt>
      <trkpt lat="46.59657" lon="6.11457">
        <ele>1082</ele>
        <time>2021-08-11T14:24:35Z</time>
      </trkpt>
      <trkpt lat="46.59663" lon="6.11454">
        <ele>1083</ele>
        <time>2021-08-11T14:24:42Z</time>
      </trkpt>
      <trkpt lat="46.59667" lon="6.11453">
        <ele>1083</ele>
        <time>2021-08-11T14:24:46Z</time>
      </trkpt>
      <trkpt lat="46.59671" lon="6.11451">
        <ele>1084</ele>
        <time>2021-08-11T14:24:50Z</time>
      </trkpt>
      <trkpt lat="46.59674" lon="6.11452">
        <ele>1084</ele>
        <time>2021-08-11T14:24:54Z</time>
      </trkpt>
      <trkpt lat="46.5968" lon="6.11449">
        <ele>1085</ele>
        <time>2021-08-11T14:25:02Z</time>
      </trkpt>
      <trkpt lat="46.59696" lon="6.11444">
        <ele>1087</ele>
        <time>2021-08-11T14:25:19Z</time>
      </trkpt>
      <trkpt lat="46.597" lon="6.11441">
        <ele>1087</ele>
        <time>2021-08-11T14:25:23Z</time>
      </trkpt>
      <trkpt lat="46.59705" lon="6.1144">
        <ele>1088</ele>
        <time>2021-08-11T14:25:31Z</time>
      </trkpt>
      <trkpt lat="46.59719" lon="6.11434">
        <ele>1091</ele>
        <time>2021-08-11T14:25:50Z</time>
      </trkpt>
      <trkpt lat="46.59723" lon="6.11427">
        <ele>1091</ele>
        <time>2021-08-11T14:25:59Z</time>
      </trkpt>
      <trkpt lat="46.59728" lon="6.11422">
        <ele>1092</ele>
        <time>2021-08-11T14:26:05Z</time>
      </trkpt>
      <trkpt lat="46.59741" lon="6.11399">
        <ele>1091</ele>
        <time>2021-08-11T14:26:26Z</time>
      </trkpt>
      <trkpt lat="46.59743" lon="6.11394">
        <ele>1090</ele>
        <time>2021-08-11T14:26:30Z</time>
      </trkpt>
      <trkpt lat="46.59753" lon="6.11374">
        <ele>1089</ele>
        <time>2021-08-11T14:26:47Z</time>
      </trkpt>
      <trkpt lat="46.59758" lon="6.11369">
        <ele>1089</ele>
        <time>2021-08-11T14:26:52Z</time>
      </trkpt>
      <trkpt lat="46.59768" lon="6.11371">
        <ele>1090</ele>
        <time>2021-08-11T14:27:04Z</time>
      </trkpt>
      <trkpt lat="46.59793" lon="6.11406">
        <ele>1090</ele>
        <time>2021-08-11T14:27:42Z</time>
      </trkpt>
      <trkpt lat="46.59798" lon="6.1141">
        <ele>1090</ele>
        <time>2021-08-11T14:27:48Z</time>
      </trkpt>
      <trkpt lat="46.59806" lon="6.1141">
        <ele>1090</ele>
        <time>2021-08-11T14:27:55Z</time>
      </trkpt>
      <trkpt lat="46.59808" lon="6.11406">
        <ele>1090</ele>
        <time>2021-08-11T14:27:59Z</time>
      </trkpt>
      <trkpt lat="46.59813" lon="6.11405">
        <ele>1090</ele>
        <time>2021-08-11T14:28:05Z</time>
      </trkpt>
      <trkpt lat="46.59816" lon="6.11401">
        <ele>1090</ele>
        <time>2021-08-11T14:28:08Z</time>
      </trkpt>
      <trkpt lat="46.59824" lon="6.11398">
        <ele>1090</ele>
        <time>2021-08-11T14:28:15Z</time>
      </trkpt>
      <trkpt lat="46.5983" lon="6.11397">
        <ele>1089</ele>
        <time>2021-08-11T14:28:20Z</time>
      </trkpt>
      <trkpt lat="46.59842" lon="6.11401">
        <ele>1089</ele>
        <time>2021-08-11T14:28:30Z</time>
      </trkpt>
      <trkpt lat="46.59869" lon="6.11396">
        <ele>1088</ele>
        <time>2021-08-11T14:28:53Z</time>
      </trkpt>
      <trkpt lat="46.59882" lon="6.11398">
        <ele>1087</ele>
        <time>2021-08-11T14:29:05Z</time>
      </trkpt>
      <trkpt lat="46.59888" lon="6.11396">
        <ele>1087</ele>
        <time>2021-08-11T14:29:10Z</time>
      </trkpt>
      <trkpt lat="46.599" lon="6.11394">
        <ele>1087</ele>
        <time>2021-08-11T14:29:20Z</time>
      </trkpt>
      <trkpt lat="46.59916" lon="6.11405">
        <ele>1087</ele>
        <time>2021-08-11T14:29:35Z</time>
      </trkpt>
      <trkpt lat="46.59921" lon="6.11407">
        <ele>1086</ele>
        <time>2021-08-11T14:29:40Z</time>
      </trkpt>
      <trkpt lat="46.5994" lon="6.11416">
        <ele>1086</ele>
        <time>2021-08-11T14:29:59Z</time>
      </trkpt>
      <trkpt lat="46.59944" lon="6.11421">
        <ele>1086</ele>
        <time>2021-08-11T14:30:03Z</time>
      </trkpt>
      <trkpt lat="46.59979" lon="6.11445">
        <ele>1086</ele>
        <time>2021-08-11T14:30:36Z</time>
      </trkpt>
      <trkpt lat="46.59987" lon="6.1145">
        <ele>1085</ele>
        <time>2021-08-11T14:30:44Z</time>
      </trkpt>
      <trkpt lat="46.60022" lon="6.11456">
        <ele>1084</ele>
        <time>2021-08-11T14:31:15Z</time>
      </trkpt>
      <trkpt lat="46.60031" lon="6.11463">
        <ele>1083</ele>
        <time>2021-08-11T14:31:24Z</time>
      </trkpt>
      <trkpt lat="46.60036" lon="6.11466">
        <ele>1083</ele>
        <time>2021-08-11T14:31:28Z</time>
      </trkpt>
      <trkpt lat="46.60064" lon="6.11467">
        <ele>1083</ele>
        <time>2021-08-11T14:31:50Z</time>
      </trkpt>
      <trkpt lat="46.60074" lon="6.11464">
        <ele>1083</ele>
        <time>2021-08-11T14:31:59Z</time>
      </trkpt>
      <trkpt lat="46.60078" lon="6.11463">
        <ele>1084</ele>
        <time>2021-08-11T14:32:02Z</time>
      </trkpt>
      <trkpt lat="46.60081" lon="6.11463">
        <ele>1084</ele>
        <time>2021-08-11T14:32:05Z</time>
      </trkpt>
      <trkpt lat="46.60086" lon="6.11461">
        <ele>1084</ele>
        <time>2021-08-11T14:32:08Z</time>
      </trkpt>
      <trkpt lat="46.60094" lon="6.11459">
        <ele>1085</ele>
        <time>2021-08-11T14:32:15Z</time>
      </trkpt>
      <trkpt lat="46.60114" lon="6.11442">
        <ele>1085</ele>
        <time>2021-08-11T14:32:36Z</time>
      </trkpt>
      <trkpt lat="46.60119" lon="6.11441">
        <ele>1085</ele>
        <time>2021-08-11T14:32:40Z</time>
      </trkpt>
      <trkpt lat="46.60123" lon="6.11441">
        <ele>1085</ele>
        <time>2021-08-11T14:32:43Z</time>
      </trkpt>
      <trkpt lat="46.60136" lon="6.11436">
        <ele>1086</ele>
        <time>2021-08-11T14:32:53Z</time>
      </trkpt>
      <trkpt lat="46.60139" lon="6.11432">
        <ele>1086</ele>
        <time>2021-08-11T14:32:56Z</time>
      </trkpt>
      <trkpt lat="46.60145" lon="6.11429">
        <ele>1087</ele>
        <time>2021-08-11T14:33:03Z</time>
      </trkpt>
      <trkpt lat="46.60158" lon="6.11421">
        <ele>1087</ele>
        <time>2021-08-11T14:33:17Z</time>
      </trkpt>
      <trkpt lat="46.60186" lon="6.11394">
        <ele>1087</ele>
        <time>2021-08-11T14:33:49Z</time>
      </trkpt>
      <trkpt lat="46.60192" lon="6.1139">
        <ele>1086</ele>
        <time>2021-08-11T14:33:55Z</time>
      </trkpt>
      <trkpt lat="46.60197" lon="6.11385">
        <ele>1087</ele>
        <time>2021-08-11T14:33:59Z</time>
      </trkpt>
      <trkpt lat="46.60201" lon="6.11379">
        <ele>1086</ele>
        <time>2021-08-11T14:34:04Z</time>
      </trkpt>
      <trkpt lat="46.60207" lon="6.11365">
        <ele>1086</ele>
        <time>2021-08-11T14:34:14Z</time>
      </trkpt>
      <trkpt lat="46.60234" lon="6.11332">
        <ele>1086</ele>
        <time>2021-08-11T14:34:47Z</time>
      </trkpt>
      <trkpt lat="46.60252" lon="6.1131">
        <ele>1086</ele>
        <time>2021-08-11T14:35:15Z</time>
      </trkpt>
      <trkpt lat="46.60261" lon="6.11308">
        <ele>1085</ele>
        <time>2021-08-11T14:35:23Z</time>
      </trkpt>
      <trkpt lat="46.60274" lon="6.11303">
        <ele>1085</ele>
        <time>2021-08-11T14:35:35Z</time>
      </trkpt>
      <trkpt lat="46.60279" lon="6.11304">
        <ele>1085</ele>
        <time>2021-08-11T14:35:39Z</time>
      </trkpt>
      <trkpt lat="46.60282" lon="6.11306">
        <ele>1085</ele>
        <time>2021-08-11T14:35:43Z</time>
      </trkpt>
      <trkpt lat="46.60289" lon="6.11314">
        <ele>1086</ele>
        <time>2021-08-11T14:35:51Z</time>
      </trkpt>
      <trkpt lat="46.60294" lon="6.11318">
        <ele>1086</ele>
        <time>2021-08-11T14:35:57Z</time>
      </trkpt>
      <trkpt lat="46.60299" lon="6.11322">
        <ele>1086</ele>
        <time>2021-08-11T14:36:05Z</time>
      </trkpt>
      <trkpt lat="46.60302" lon="6.11328">
        <ele>1086</ele>
        <time>2021-08-11T14:36:14Z</time>
      </trkpt>
      <trkpt lat="46.60306" lon="6.11332">
        <ele>1087</ele>
        <time>2021-08-11T14:36:20Z</time>
      </trkpt>
      <trkpt lat="46.60306" lon="6.11338">
        <ele>1087</ele>
        <time>2021-08-11T14:36:40Z</time>
      </trkpt>
      <trkpt lat="46.60303" lon="6.11344">
        <ele>1087</ele>
        <time>2021-08-11T14:38:33Z</time>
      </trkpt>
      <trkpt lat="46.60306" lon="6.11344">
        <ele>1087</ele>
        <time>2021-08-11T14:39:20Z</time>
      </trkpt>
      <trkpt lat="46.60306" lon="6.11339">
        <ele>1087</ele>
        <time>2021-08-11T14:39:25Z</time>
      </trkpt>
    </trkseg>
  </trk>
</gpx>